GFSGL_850_thetae_000.txt.gz
Theta_e
340 342 340 335 336 336 336 334 335 338 339 339 340 337 338 338 338 339 339 338 339 336 335 332 329 330 340 340 339 338 339 339 338 337 338 337 335 338 339 337 335 337 335
340 341 341 336 335 336 336 334 335 337 337 337 339 340 338 338 338 338 338 337 336 334 334 336 335 336 338 337 336 337 336 336 337 337 338 336 332 331 333 329 337 335 331
345 340 342 341 340 338 337 335 334 333 335 336 337 336 338 338 338 338 337 336 335 335 336 336 336 337 336 337 336 334 334 336 337 335 336 335 332 332 332 334 331 334 333
344 342 341 341 340 339 337 336 335 334 333 335 334 335 336 336 336 336 335 335 335 335 333 330 330 333 331 330 334 332 331 333 335 333 334 334 331 330 332 332 332 330 330
341 343 340 339 341 339 339 337 337 336 335 334 333 333 334 334 334 334 334 334 334 334 333 332 332 332 330 331 329 327 326 328 327 328 330 331 332 334 334 333 331 331 329
342 343 341 338 338 338 339 335 336 336 336 335 335 334 334 334 335 334 334 333 333 333 332 331 332 332 331 333 333 331 325 331 329 331 332 332 333 333 331 327 326 326 322
344 341 342 337 339 336 335 337 338 337 336 336 335 335 334 332 331 330 330 330 330 330 330 331 330 329 328 326 326 326 329 331 331 331 332 332 331 328 327 324 322 321 320
343 342 341 337 337 337 337 337 337 335 333 332 333 332 332 331 330 331 331 328 327 327 326 326 323 323 324 324 323 322 321 322 325 330 330 328 325 320 319 316 312 310 312
345 342 340 337 335 336 337 337 335 333 332 330 325 329 332 332 331 330 329 328 328 326 325 324 323 322 322 321 321 318 313 312 311 310 309 308 308 308 310 311 315 315 313
342 342 339 338 336 336 335 335 333 333 329 328 327 324 330 331 328 328 327 327 325 324 322 317 315 316 318 317 318 316 312 311 310 310 311 313 314 314 313 311 309 309 309
342 341 338 337 337 335 334 334 334 332 330 327 325 324 326 326 324 321 319 319 318 318 316 315 315 312 311 313 313 312 314 314 313 312 312 311 309 309 308 307 307 304 303
337 338 337 337 335 334 334 333 331 329 327 325 324 322 320 319 320 319 319 318 316 313 312 312 313 312 313 315 317 314 310 310 312 312 312 311 308 307 305 303 302 301 301
333 334 334 333 333 332 331 328 326 322 321 320 318 318 318 318 317 316 317 317 317 316 316 317 316 316 315 311 307 307 308 309 311 311 310 308 305 303 301 301 301 301 301
328 326 325 325 324 323 322 320 319 317 317 317 317 316 316 316 315 315 316 314 314 312 307 303 303 303 303 303 303 303 303 303 304 305 304 303 302 300 299 299 298 298 298
323 323 322 322 320 318 316 314 313 310 308 308 306 304 303 303 302 301 300 301 301 304 305 305 304 304 304 304 303 302 302 301 302 301 301 300 299 298 297 297 298 298 298
319 317 315 313 311 310 307 303 302 301 300 299 299 298 298 298 298 298 298 300 303 304 304 304 303 303 303 302 302 302 301 301 300 301 300 299 298 297 297 297 297 297 298
311 309 308 307 304 303 302 301 300 299 301 301 300 298 297 297 297 299 300 301 303 303 303 303 302 302 302 301 301 301 300 300 301 300 299 299 298 297 296 296 297 297 298
309 307 308 309 308 308 307 306 306 304 303 303 301 299 297 297 300 301 302 302 302 301 301 301 301 302 302 301 301 300 300 299 299 298 298 298 297 296 296 296 297 297 297
311 311 312 311 311 310 309 309 308 307 306 305 303 302 300 300 300 300 300 301 301 300 300 300 300 299 300 300 299 298 298 299 297 298 297 296 295 295 295 296 296 297 297
313 312 311 310 310 310 310 310 309 308 308 307 305 304 303 302 302 301 300 300 300 299 299 299 298 298 298 297 297 297 298 297 297 297 296 295 295 295 295 295 295 297 297
312 312 312 313 311 311 310 309 309 308 308 306 304 303 302 301 301 300 299 299 299 299 299 298 298 298 297 297 297 297 297 297 296 296 295 294 294 294 294 294 294 296 297
314 313 313 313 312 311 310 309 309 307 308 305 303 297 300 300 299 299 299 299 299 298 298 298 298 297 297 297 297 297 297 297 296 295 294 294 293 294 294 294 294 295 295
314 313 313 312 311 310 310 309 308 307 306 304 303 301 300 300 299 300 300 300 299 299 298 298 298 298 298 297 297 297 298 297 296 294 294 291 292 294 294 294 294 294 294
314 311 310 312 311 310 309 308 307 306 305 304 303 301 300 300 300 300 299 299 299 299 299 298 297 297 296 296 296 297 297 297 296 295 295 289 292 293 293 294 293 294 293
310 311 310 310 310 309 309 308 308 306 304 303 302 301 300 300 300 300 300 299 299 299 298 297 297 296 295 295 295 295 294 294 293 290 289 289 291 293 293 293 293 293 293
309 309 309 309 310 308 308 308 307 306 305 303 302 301 300 300 300 300 299 299 299 299 299 299 298 297 295 295 293 291 290 289 289 289 288 288 292 293 293 293 292 293 294

GFSGL_850_thetae_003.txt.gz
Theta_e
340 341 340 335 336 335 334 333 335 336 337 338 338 337 337 339 338 338 338 339 339 339 339 340 338 339 332 335 336 337 338 339 339 338 338 338 337 338 332 334 329 333 334
341 341 341 341 336 337 334 333 332 334 335 337 339 336 337 337 337 338 338 336 338 337 335 334 332 330 333 337 337 336 337 337 336 337 337 337 337 334 333 329 329 330 333
342 341 341 340 339 338 336 334 333 333 334 336 336 339 338 337 337 337 336 336 335 333 334 336 334 332 334 336 336 335 336 335 335 336 335 336 334 330 330 329 333 335 331
344 342 340 339 339 338 338 335 334 332 334 334 336 336 336 337 337 337 336 335 335 335 336 336 336 335 334 334 334 332 335 333 332 333 332 334 331 332 331 331 332 332 333
343 341 340 337 339 339 339 336 335 335 333 332 332 333 333 334 334 334 334 334 334 334 334 333 332 330 331 331 331 332 331 329 327 328 329 329 331 331 333 331 331 329 327
343 342 341 337 337 337 335 335 336 335 334 333 333 333 334 334 334 334 334 334 333 332 332 332 332 332 332 333 331 329 328 329 327 328 329 330 332 330 331 332 330 330 328
344 341 340 338 335 334 337 336 335 335 334 334 333 333 333 332 332 330 329 330 331 331 331 331 332 332 332 331 330 329 327 327 330 330 329 331 330 329 327 327 325 324 324
344 342 340 339 336 337 337 337 335 334 331 332 334 333 332 330 330 330 331 328 328 328 328 327 324 325 325 323 323 322 321 322 328 330 329 329 328 326 324 322 321 320 319
344 342 339 338 337 337 337 337 335 333 330 325 327 329 332 330 330 328 329 328 327 326 325 324 322 322 323 323 320 318 316 315 311 310 309 309 309 309 310 311 313 314 313
340 343 339 337 336 336 335 336 334 332 329 326 324 327 330 330 329 328 327 327 327 326 322 320 319 319 320 318 317 315 313 312 312 313 314 315 314 315 316 315 312 309 309
337 341 340 338 336 336 335 335 333 331 331 330 325 324 327 327 326 325 325 325 322 319 315 314 314 314 316 317 315 312 314 316 314 313 312 311 312 312 313 312 311 307 306
338 338 338 338 336 335 334 333 330 329 330 327 323 322 322 322 320 319 317 317 318 312 311 312 313 313 313 314 316 315 310 312 313 313 312 311 309 308 308 306 304 303 302
331 333 334 333 331 329 332 332 329 325 324 321 320 320 319 319 320 319 319 317 316 314 315 315 315 312 310 309 308 307 306 309 310 308 306 304 303 302 302 300 300 301 300
329 325 323 324 325 326 325 322 321 320 319 318 318 318 316 315 316 316 316 314 313 309 307 304 304 304 304 304 303 302 303 303 304 305 304 303 301 300 299 298 298 298 298
324 323 321 319 319 319 318 316 316 314 312 312 312 310 309 305 304 302 301 303 304 305 304 304 304 304 303 303 303 302 302 302 302 302 301 300 300 299 298 298 298 298 298
319 317 316 315 314 313 312 306 301 300 299 299 298 298 299 299 298 299 302 304 304 304 304 304 303 303 302 302 302 301 301 301 300 301 300 300 299 298 297 297 297 297 298
310 308 306 304 302 301 301 301 301 301 301 300 298 297 297 298 299 302 303 303 302 302 302 302 302 302 301 301 301 301 300 300 301 300 300 299 298 297 297 296 297 297 298
307 308 308 307 307 306 306 306 306 305 302 300 298 297 299 300 301 301 301 301 301 300 300 300 301 302 301 301 300 300 299 299 298 299 298 297 297 296 296 296 297 297 297
310 310 309 309 308 307 307 307 307 306 304 303 301 300 299 300 300 300 300 300 299 299 299 299 298 298 298 298 297 297 298 298 297 297 296 296 295 295 295 295 296 296 298
312 310 309 309 309 308 308 308 307 307 305 304 303 301 301 300 300 299 299 299 299 298 298 298 298 297 296 296 296 296 297 297 297 296 296 295 294 294 295 295 295 296 297
312 311 310 310 309 309 309 308 308 307 305 304 303 302 301 301 299 299 298 298 298 298 298 298 297 297 296 296 296 296 296 297 296 296 296 294 294 294 294 294 294 295 296
312 311 312 311 311 311 310 309 308 307 306 304 300 299 300 299 299 298 299 299 298 298 298 297 297 297 296 296 297 296 296 297 296 296 295 294 291 293 294 294 295 295 294
313 313 312 312 312 310 308 309 307 307 305 303 302 299 299 299 299 299 299 299 298 298 298 298 298 297 297 297 297 297 297 297 297 296 295 295 291 293 294 294 294 294 294
312 312 310 311 311 310 310 308 306 306 305 303 302 300 299 299 299 299 299 299 298 298 298 297 297 296 295 295 295 295 296 296 295 294 293 290 290 293 293 294 293 293 293
309 311 310 310 311 309 309 308 307 306 304 303 302 301 300 300 299 299 299 299 298 299 297 297 297 297 295 293 292 291 291 289 289 289 289 289 290 293 293 293 293 292 293
308 309 309 309 309 309 308 308 308 306 304 303 302 301 300 300 300 300 300 299 299 299 298 298 298 298 296 295 296 294 292 290 290 292 292 288 291 292 293 292 291 292 293

GFSGL_850_thetae_006.txt.gz
Theta_e
339 341 338 335 335 334 333 333 335 335 337 338 337 337 337 338 338 337 336 338 338 339 339 339 338 339 339 337 336 335 334 337 338 337 338 338 339 337 337 336 334 333 331
338 339 340 340 338 336 334 333 333 333 336 338 337 337 338 338 337 338 338 338 339 339 339 339 339 339 337 335 335 336 335 336 337 337 336 337 337 337 336 334 330 327 331
339 339 340 339 338 337 335 333 333 333 335 336 338 337 337 337 338 338 337 337 337 338 337 335 335 334 332 333 335 336 337 336 336 336 337 336 335 334 332 330 327 328 328
341 341 338 338 338 338 336 334 333 333 334 335 335 336 337 337 337 337 337 336 336 335 337 337 336 334 334 335 336 334 334 332 331 332 332 334 333 331 331 330 331 333 333
343 340 340 336 338 338 337 335 334 332 332 332 332 333 334 334 334 335 335 334 334 335 335 334 333 333 333 334 334 333 331 331 331 330 329 329 330 331 329 329 330 328 327
342 341 339 337 336 337 335 335 334 333 332 332 333 333 333 333 333 333 333 333 333 333 333 333 333 332 331 331 331 331 331 330 330 328 328 327 326 329 331 331 330 326 324
343 341 340 338 335 333 333 335 334 334 333 333 333 332 332 332 331 330 329 331 332 332 332 332 332 333 332 332 332 331 329 329 328 327 328 329 330 330 330 330 330 329 328
343 341 341 337 335 333 334 334 334 333 331 331 330 332 332 331 330 331 329 327 328 328 329 326 325 326 326 324 323 322 322 326 329 330 330 329 328 328 328 326 325 324 323
343 342 340 338 335 335 335 335 333 331 328 325 327 329 330 330 329 327 327 326 327 327 326 324 323 322 321 317 314 316 314 311 311 315 319 319 316 315 316 315 316 316 315
339 341 339 339 337 335 336 335 335 332 330 325 323 325 329 329 327 327 327 325 326 324 321 320 318 319 318 315 315 313 313 313 312 313 313 313 313 314 313 312 311 313 313
334 338 339 339 338 336 336 335 334 331 330 329 326 326 327 326 326 325 325 324 322 319 317 316 316 316 316 317 316 313 314 315 314 314 313 313 312 312 312 311 311 311 309
335 337 337 338 337 336 335 333 331 331 329 327 325 324 324 323 322 319 320 318 316 313 312 311 311 311 313 314 315 314 312 312 312 312 311 309 309 307 305 303 302 301 302
332 333 334 334 334 331 332 330 330 328 326 325 322 322 321 319 319 318 318 318 311 311 313 314 314 311 310 305 305 304 305 308 307 307 306 305 303 302 301 300 299 300 300
329 328 329 329 324 325 326 323 324 323 324 321 321 320 319 318 318 317 316 315 314 313 309 306 304 304 303 302 302 302 302 302 302 303 303 302 300 299 299 298 297 298 298
325 324 324 323 323 323 319 318 319 318 317 318 318 317 317 316 312 309 308 305 305 304 303 303 303 303 302 302 302 301 301 300 301 301 301 300 300 299 298 297 298 298 298
323 321 320 319 317 316 315 311 305 303 303 303 303 303 303 302 301 303 303 303 303 303 303 303 303 302 302 302 301 301 300 300 301 300 300 300 299 298 297 296 297 297 297
315 312 309 307 304 302 302 301 301 300 299 298 298 298 298 299 302 303 303 303 302 301 301 301 301 301 301 301 300 300 300 299 300 300 299 298 297 297 296 296 297 297 297
306 306 306 304 306 307 306 306 304 302 300 298 298 298 300 301 302 302 302 302 301 300 299 299 299 300 301 300 300 299 298 297 297 297 297 297 296 296 295 296 296 296 297
308 308 307 307 308 308 307 306 306 305 302 300 299 300 301 301 301 300 301 300 299 299 298 298 298 297 297 296 296 297 297 297 297 297 296 296 295 294 295 295 295 296 297
309 308 308 308 308 307 307 307 306 306 305 305 302 300 300 300 300 299 299 299 298 298 298 298 297 297 296 296 296 296 297 297 297 296 296 295 294 294 294 294 294 294 296
309 309 309 309 309 308 308 307 307 306 305 304 303 301 300 300 300 299 298 298 298 298 298 298 297 297 296 296 296 296 296 296 296 296 296 295 293 293 294 294 294 294 295
311 310 310 310 309 310 309 309 308 307 306 304 299 300 300 300 299 298 298 298 298 298 298 297 297 296 296 296 296 296 296 296 296 296 296 296 295 292 293 294 294 294 294
313 311 312 311 311 311 308 309 307 306 306 303 300 300 299 299 298 298 299 299 299 298 297 297 297 297 297 297 297 297 296 296 296 296 295 294 293 291 293 293 294 294 294
312 311 312 312 312 312 309 308 307 306 305 303 301 300 299 299 299 299 299 299 299 298 298 297 297 296 296 295 293 293 294 294 293 292 290 289 290 291 293 293 293 293 293
310 311 311 311 312 311 309 309 307 306 305 304 302 301 300 299 299 299 299 299 298 298 298 297 297 297 297 294 295 292 291 290 290 289 289 288 289 292 293 293 292 292 293
307 308 309 310 310 310 310 309 308 307 305 304 303 302 301 300 300 300 299 299 299 298 298 298 297 298 296 296 296 297 295 292 292 293 293 289 290 292 293 293 292 292 293

GFSGL_850_thetae_009.txt.gz
Theta_e
338 338 335 335 336 335 333 332 332 335 337 336 336 336 337 338 338 337 336 336 337 337 338 339 339 339 339 339 339 338 337 338 336 336 336 337 338 339 339 337 337 335 334
338 338 338 338 338 335 333 333 332 334 337 338 336 337 338 338 338 337 336 336 337 338 339 338 339 338 338 338 338 337 336 336 334 336 337 337 336 337 337 335 336 334 329
338 339 339 337 338 337 334 333 332 335 336 337 337 336 337 337 338 338 338 338 339 339 339 339 338 338 339 338 337 335 336 336 335 335 336 336 336 335 333 332 330 328 327
341 340 338 336 338 338 336 333 333 334 334 335 336 337 337 337 337 337 336 336 336 337 336 336 336 335 333 333 333 334 335 336 334 333 334 334 334 333 332 330 330 330 331
342 341 339 337 337 337 337 334 332 333 332 332 333 333 334 334 334 334 335 335 335 335 336 336 334 332 332 333 333 334 333 332 330 330 330 330 330 331 330 331 330 330 329
342 342 340 338 336 335 336 334 333 332 331 332 333 332 333 332 332 332 333 333 333 333 333 333 333 332 332 332 331 331 331 331 331 330 330 329 329 328 328 329 328 330 326
342 343 341 339 337 335 333 332 333 333 333 333 332 332 331 331 330 330 330 331 331 332 331 331 331 331 331 331 331 331 328 328 329 328 327 328 329 329 330 329 330 329 324
342 342 342 339 337 335 332 333 332 331 331 331 331 331 331 330 330 328 327 327 328 329 328 326 326 326 325 323 322 322 324 327 329 330 328 328 328 327 327 326 327 327 325
340 342 342 340 338 336 333 334 332 330 327 324 325 328 330 329 327 326 326 326 327 326 324 323 322 322 318 314 314 315 316 317 321 321 322 316 312 315 315 314 315 316 317
332 342 341 340 338 336 334 335 333 331 329 325 323 325 329 328 326 325 324 324 325 324 321 320 318 317 315 314 315 313 313 313 313 313 313 313 313 313 314 314 312 312 312
333 338 340 339 338 336 335 335 333 332 330 329 327 326 326 325 325 325 324 324 323 322 320 318 316 316 316 316 315 314 315 315 314 313 313 313 312 311 310 310 309 308 306
332 332 338 339 337 336 335 335 333 331 329 328 328 326 325 325 324 323 322 316 315 316 316 316 315 313 312 314 315 314 312 312 312 312 311 309 307 306 304 303 302 301 301
333 333 335 333 333 332 333 331 331 330 328 327 326 323 322 320 320 318 318 317 310 311 312 313 314 312 310 307 307 304 305 306 306 306 305 304 302 300 299 298 298 297 298
330 330 330 329 328 324 324 324 326 326 325 324 322 320 319 318 317 316 315 313 313 313 312 308 305 303 302 302 301 301 301 301 301 301 300 300 299 299 299 298 298 298 298
327 327 325 324 324 324 323 321 321 321 319 319 318 318 318 316 315 314 312 309 306 305 304 303 303 302 301 301 301 300 300 300 301 300 300 300 299 298 298 297 297 297 297
325 323 322 322 321 321 320 319 317 316 315 314 315 312 312 310 307 306 305 303 303 302 302 302 301 301 301 300 300 300 300 299 300 300 300 299 298 297 297 296 297 297 297
321 319 317 314 309 306 304 305 306 300 299 300 301 301 301 301 303 303 302 301 300 301 301 301 300 301 301 300 300 300 299 298 299 299 298 297 297 296 296 296 296 296 297
306 304 305 306 306 305 305 303 301 300 299 298 298 299 300 302 302 302 301 300 299 299 298 298 298 299 298 297 296 297 297 297 297 297 296 296 295 294 295 295 295 296 297
307 307 308 307 307 307 307 306 305 304 301 299 299 300 301 301 301 301 301 300 299 298 298 298 297 297 296 296 295 296 297 297 296 296 296 295 294 294 294 294 294 294 296
308 308 308 308 307 307 307 307 306 306 305 304 300 300 301 300 300 300 299 299 298 298 298 298 297 297 296 296 296 295 296 296 296 296 296 295 295 293 293 294 294 294 294
309 308 308 308 308 308 307 307 306 306 305 303 301 299 300 299 299 299 298 298 298 298 298 298 297 297 296 296 296 296 295 295 295 296 296 296 296 295 293 294 294 294 295
309 309 309 309 309 309 309 308 307 306 305 303 301 301 300 300 299 299 298 298 298 298 298 297 297 297 296 296 296 296 296 295 296 296 296 295 295 294 292 293 293 294 294
310 309 309 310 311 309 310 308 308 307 306 304 301 299 300 299 299 299 298 299 299 299 297 297 296 296 296 296 296 295 295 294 295 295 294 292 290 290 291 292 293 293 293
313 312 311 311 312 311 311 310 308 307 306 306 304 302 301 300 300 299 299 299 299 298 297 297 297 297 296 296 294 291 291 291 292 290 289 289 289 289 291 292 293 293 293
309 309 311 311 311 311 311 311 308 307 306 305 305 303 301 300 300 299 299 299 299 299 298 298 298 297 297 295 294 295 293 291 290 290 290 289 288 289 292 293 292 292 292
311 310 308 310 310 311 312 311 309 308 307 306 305 304 303 301 300 300 299 299 299 299 299 298 298 297 298 298 295 297 297 295 292 292 293 291 288 291 292 292 291 291 292

GFSGL_850_thetae_012.txt.gz
Theta_e
338 336 334 335 336 335 333 332 332 335 337 337 336 336 337 337 337 337 337 336 336 336 336 336 336 338 339 339 338 338 338 338 337 337 336 337 337 338 338 339 337 337 336
337 337 337 337 337 336 333 333 333 336 338 336 337 337 337 338 337 337 336 335 336 337 337 337 338 339 339 339 339 338 338 338 337 336 335 336 337 336 337 337 336 334 332
338 338 338 337 337 337 334 333 333 335 335 337 337 337 337 337 338 338 338 338 338 338 338 338 338 338 338 338 338 337 337 336 336 335 335 335 336 336 335 332 330 329 327
339 339 338 335 335 337 336 333 333 333 333 334 336 336 336 336 336 336 336 336 336 336 337 337 337 337 337 336 335 335 335 335 336 334 334 334 333 331 331 332 330 327 327
341 340 338 336 336 335 336 334 332 331 332 332 332 332 333 332 332 333 333 335 335 335 336 336 335 334 334 333 333 333 333 334 331 330 330 331 332 331 331 331 330 329 330
342 342 339 337 336 336 335 332 332 331 332 332 332 332 332 332 332 332 332 332 332 333 333 332 332 331 331 331 331 331 331 331 331 330 330 329 329 329 329 328 328 329 328
341 343 342 338 338 336 334 332 333 332 332 332 331 331 330 330 329 329 330 330 331 331 331 330 330 331 330 330 328 328 326 327 328 328 328 327 328 329 328 328 325 325 325
342 341 342 341 339 337 334 332 332 332 331 330 329 330 330 329 327 327 327 327 328 328 327 325 325 324 321 320 321 323 324 326 327 327 325 325 325 325 326 325 325 324 323
338 340 341 341 340 338 336 333 333 331 328 324 324 327 329 327 325 325 325 326 326 324 323 322 321 318 314 313 315 315 314 314 312 313 314 314 312 311 311 312 313 315 316
328 330 340 341 340 339 336 334 333 332 330 325 324 325 327 325 324 323 323 323 324 323 321 320 317 316 314 314 315 314 315 314 314 314 313 312 312 313 313 313 313 313 312
331 332 339 340 340 338 336 335 334 333 331 327 327 327 326 324 325 323 323 323 322 321 319 317 316 316 317 316 315 314 315 313 313 312 312 311 310 310 308 307 305 304 303
331 331 333 335 337 337 336 335 333 331 329 328 328 326 325 325 324 323 321 318 317 317 318 316 316 315 314 315 316 315 313 312 311 310 309 307 305 303 301 300 299 299 299
331 331 332 332 334 333 334 333 331 329 328 327 325 325 323 322 321 318 314 313 311 312 312 313 314 314 312 306 304 303 304 304 304 304 302 301 300 300 300 299 298 298 298
328 331 330 331 330 328 326 327 323 322 324 326 324 322 321 319 317 316 315 312 312 313 312 310 305 303 302 301 300 300 300 300 300 300 300 300 299 299 298 297 297 297 297
328 328 328 326 325 324 323 323 323 322 319 320 321 320 320 318 315 314 313 312 309 306 304 303 302 301 300 300 300 299 299 299 300 300 300 299 298 297 297 296 297 297 297
326 326 324 323 322 322 322 322 321 318 318 317 317 317 317 315 313 309 306 304 303 302 302 301 300 300 300 300 300 299 298 299 299 299 299 297 297 296 296 296 296 296 296
322 320 318 315 311 310 309 310 314 313 311 310 309 308 307 307 305 304 302 301 300 300 300 300 300 300 300 299 298 297 297 297 298 298 297 295 294 294 295 295 296 296 297
310 305 304 304 304 303 302 300 299 299 299 300 301 301 303 303 302 302 300 299 299 298 298 297 297 297 296 296 295 297 297 296 296 296 295 295 293 293 294 295 295 295 296
306 307 307 307 307 306 305 305 305 303 300 299 299 301 302 302 301 301 300 299 298 298 298 297 297 296 296 296 295 296 297 296 296 296 295 295 294 293 293 294 294 294 295
308 308 308 308 308 307 307 307 306 305 303 300 300 301 301 301 300 300 300 299 298 298 298 297 297 297 296 296 295 295 295 295 296 296 295 296 296 295 293 293 294 294 294
308 309 308 308 308 308 307 307 306 305 304 302 300 300 300 300 300 299 298 298 298 298 298 297 297 297 296 296 296 295 295 295 295 295 296 296 295 294 293 293 293 294 294
309 309 309 309 309 308 308 308 307 306 305 303 301 300 300 299 299 299 298 298 298 298 298 297 297 296 296 296 295 296 295 295 294 295 296 295 294 291 291 292 293 294 294
310 310 310 310 310 309 309 309 308 307 307 305 303 300 299 300 299 299 299 299 299 299 298 297 296 296 296 296 296 296 295 294 294 294 294 293 290 290 290 291 293 293 293
312 311 312 312 311 311 311 310 310 308 307 306 305 303 302 301 300 300 299 299 299 299 298 297 297 297 297 297 296 292 291 291 291 291 290 290 289 289 290 291 292 293 293
314 313 309 310 310 311 311 311 311 310 307 306 305 305 304 303 302 301 300 299 299 299 299 298 297 297 297 297 297 294 295 293 291 290 290 291 290 289 289 291 292 292 292
309 310 309 308 308 310 310 311 311 311 309 308 307 306 306 304 303 302 301 300 299 299 299 299 298 298 298 297 298 296 296 296 295 292 293 292 291 289 290 292 292 291 292

GFSGL_850_thetae_015.txt.gz
Theta_e
337 336 334 335 336 335 333 333 333 336 337 336 337 337 337 338 337 337 338 337 336 336 336 336 336 337 337 337 339 339 338 337 337 338 337 337 337 336 337 338 338 337 338
336 337 337 336 336 337 334 333 334 336 337 336 337 337 338 338 337 337 337 337 336 336 336 336 336 337 337 338 339 340 338 337 337 338 337 336 335 337 337 337 337 336 334
337 337 336 334 336 336 335 332 334 334 335 337 337 337 337 337 338 338 338 337 337 338 338 338 338 338 338 339 339 339 337 335 336 336 336 335 334 336 335 333 331 329 329
339 338 337 335 336 337 336 333 333 332 333 334 335 335 335 336 336 336 337 336 335 335 335 336 337 336 336 336 335 334 336 336 335 333 334 333 333 332 331 331 331 330 329
340 340 338 336 337 336 336 333 332 332 332 332 332 332 332 332 332 332 333 334 335 335 335 335 335 335 334 333 333 333 333 332 331 331 330 331 331 330 330 331 331 330 329
340 340 340 338 337 337 335 332 332 331 332 332 331 331 332 331 331 331 332 332 333 333 333 332 331 331 331 331 331 331 331 330 330 330 330 329 329 329 328 328 328 328 326
339 341 342 340 338 337 335 332 332 332 331 330 330 330 330 330 328 328 330 330 330 331 331 330 331 330 329 328 327 326 326 327 328 328 328 327 327 327 327 327 326 325 325
340 340 341 342 339 338 336 333 332 332 330 328 327 328 329 328 326 327 327 327 328 327 325 325 324 321 320 320 322 322 323 322 321 322 322 321 322 323 323 322 324 323 322
341 341 341 342 340 339 337 333 333 331 329 327 327 326 326 325 324 325 324 326 324 323 322 320 318 316 314 314 314 314 314 314 314 314 314 314 314 314 313 312 312 315 314
328 329 336 340 341 340 337 334 333 332 329 326 325 326 326 324 323 323 323 323 324 322 320 318 317 316 314 315 316 315 316 315 313 313 312 311 311 311 312 312 311 311 313
330 330 333 336 338 338 337 334 334 333 330 328 326 326 325 325 324 323 323 323 322 322 320 318 317 317 317 316 316 315 315 314 313 312 311 308 307 306 304 302 302 302 305
331 331 331 334 337 337 336 335 334 333 330 328 327 327 326 325 324 323 322 320 319 319 318 317 316 315 315 316 316 314 313 311 307 305 303 302 301 300 300 300 300 299 299
330 332 330 332 333 334 333 334 332 331 328 326 327 325 324 324 323 322 318 317 315 314 314 315 314 312 306 304 302 302 303 303 303 302 301 300 299 299 299 299 298 299 298
328 329 329 329 330 330 326 325 325 326 324 324 323 322 322 321 318 315 314 312 312 313 313 307 303 302 301 300 300 300 300 301 301 301 300 299 299 299 299 299 300 301 302
326 326 326 326 325 325 323 323 322 322 321 322 320 320 320 318 316 313 313 313 311 308 304 303 303 302 302 301 299 299 300 301 300 300 299 299 298 299 298 299 299 299 299
325 323 322 323 322 321 322 321 322 320 321 318 318 317 316 315 314 311 308 305 303 303 303 303 303 302 301 301 301 300 300 300 299 299 298 297 297 297 298 298 298 299 299
321 319 318 317 316 316 316 316 317 316 315 315 314 314 312 311 308 305 303 301 301 301 302 302 302 301 299 298 299 299 299 298 297 298 297 296 296 296 297 297 298 298 299
306 303 303 303 302 301 300 299 300 303 305 305 306 305 305 304 303 301 300 299 299 299 301 300 300 297 297 298 299 298 298 297 297 297 297 296 295 296 296 296 296 297 298
307 307 306 306 305 305 306 305 304 300 299 299 301 303 303 302 301 300 299 302 301 300 300 299 298 297 297 296 296 297 298 298 297 297 297 296 296 296 296 295 296 295 295
308 308 308 308 308 307 307 306 306 304 302 300 302 302 301 301 301 301 300 300 300 300 299 299 298 297 296 296 297 297 298 297 297 297 296 296 296 296 295 295 295 296 296
309 309 309 308 308 308 307 307 306 306 304 301 301 300 300 301 301 301 301 300 300 300 299 299 299 298 297 296 297 297 297 297 297 297 296 296 296 295 295 295 295 296 296
309 309 309 309 309 309 308 308 308 307 306 305 301 300 300 300 300 300 299 299 299 299 299 298 298 298 298 297 297 297 297 297 297 296 296 296 295 295 294 294 295 295 295
310 310 310 310 310 310 310 310 309 309 307 306 305 302 300 300 300 300 300 299 299 299 298 298 297 297 297 297 297 297 297 297 297 297 296 296 295 293 293 294 295 295 295
311 311 311 313 313 312 311 311 311 310 308 307 306 305 303 301 301 300 300 300 299 299 299 298 297 298 298 297 297 296 295 294 293 295 293 295 294 291 292 294 294 294 295
314 314 314 312 310 309 309 310 311 311 310 308 306 305 305 304 303 302 301 300 300 299 299 299 298 297 297 297 297 297 295 295 293 292 290 291 291 290 292 293 294 294 294
310 309 309 308 308 306 306 308 310 311 310 310 309 309 307 306 305 304 303 302 301 300 300 299 299 298 298 298 298 297 297 296 296 295 292 293 293 292 291 293 294 294 294

GFSGL_850_thetae_018.txt.gz
Theta_e
341 337 333 337 339 339 339 338 336 338 337 337 337 337 338 339 339 339 338 338 338 336 337 337 337 337 340 342 342 343 342 339 340 340 338 338 338 337 337 337 337 338 338
344 343 336 338 341 342 340 337 335 335 337 337 337 338 338 338 338 338 337 337 337 339 338 337 336 336 338 338 338 338 339 340 339 338 337 336 337 337 337 337 338 337 336
344 345 343 343 343 342 339 333 334 334 336 337 337 337 337 338 338 338 338 337 337 338 339 339 338 338 338 339 338 338 338 338 336 335 336 336 335 335 335 334 334 331 330
345 346 344 343 343 341 336 332 333 333 336 334 333 333 334 336 336 336 336 336 336 335 335 335 336 336 335 336 336 335 335 336 336 335 334 333 332 332 331 331 331 331 330
346 345 345 344 342 338 335 332 332 332 333 334 332 332 332 332 333 332 333 334 335 335 335 335 335 335 334 333 333 333 333 332 331 331 331 331 331 330 330 330 330 329 328
346 346 346 347 344 339 336 333 332 332 332 331 331 331 331 331 331 331 331 332 332 333 332 331 331 331 331 331 331 331 331 330 331 330 330 330 329 329 328 328 327 326 326
346 345 346 346 344 340 337 334 332 332 332 331 330 330 330 328 328 329 330 330 331 331 330 330 330 329 327 327 326 326 327 328 329 328 328 328 327 327 327 326 325 324 324
341 340 344 346 343 344 338 336 332 332 332 330 328 329 329 327 326 327 326 327 329 327 326 325 323 322 322 322 322 323 323 323 322 321 322 322 320 321 322 324 323 323 322
339 339 341 340 343 343 340 337 333 332 331 328 326 325 326 325 325 324 325 324 323 323 323 321 318 317 315 315 316 316 316 317 316 316 315 315 315 315 316 317 315 317 314
329 328 332 338 341 341 340 338 334 333 331 328 325 325 326 324 323 323 323 322 322 320 320 318 318 316 316 318 320 319 316 314 313 312 312 313 313 312 312 312 313 316 318
329 329 330 332 337 338 339 338 335 333 331 328 326 326 326 325 325 323 323 322 322 320 318 318 318 317 316 316 316 316 316 314 313 310 309 307 306 305 305 305 304 309 310
330 330 331 332 335 336 336 336 335 333 330 328 326 326 326 325 325 324 322 321 320 320 318 317 316 315 316 316 316 314 312 310 309 307 305 305 304 304 304 304 300 304 303
330 331 330 332 333 333 333 333 334 331 330 329 326 325 325 325 324 323 320 319 318 318 316 316 316 310 306 303 302 302 306 307 306 305 305 304 303 303 304 304 305 306 304
328 328 330 329 330 330 329 327 327 325 326 325 325 324 324 323 321 318 316 314 314 313 314 311 305 303 304 302 304 304 305 305 305 304 303 303 303 302 303 303 303 304 305
327 327 327 327 327 326 324 324 323 322 322 322 322 321 320 319 316 315 313 313 313 312 306 306 307 306 305 305 304 304 304 304 304 303 302 302 302 302 302 302 302 302 302
323 324 324 324 323 322 321 321 319 319 320 318 318 318 318 316 314 313 313 310 306 303 307 307 306 305 305 304 304 304 303 303 302 302 301 300 301 301 302 301 301 302 302
321 321 320 318 319 318 318 318 318 316 316 316 316 315 314 313 311 309 305 303 301 302 306 306 306 305 304 303 302 303 303 302 301 301 300 300 300 300 300 300 301 301 301
314 310 308 307 307 307 308 310 311 311 310 309 311 311 310 307 304 302 300 301 302 304 304 304 304 303 302 302 302 302 301 301 301 300 300 299 299 299 299 299 299 300 300
306 306 306 306 306 306 306 306 306 306 306 306 304 303 304 302 301 300 302 305 304 303 303 303 302 302 301 301 301 301 301 301 300 300 300 300 299 299 299 299 299 296 297
307 307 307 307 307 307 307 308 307 306 306 305 305 305 303 302 303 303 303 304 303 303 303 303 302 301 301 301 300 301 301 300 300 300 300 299 299 299 299 298 298 299 299
309 309 309 310 310 309 309 309 308 307 306 304 305 304 303 304 304 304 304 304 304 303 303 302 302 302 301 301 300 301 300 300 300 300 300 299 299 299 298 298 298 298 299
311 310 311 311 311 311 311 310 310 309 308 306 304 302 300 300 303 303 303 303 302 302 302 302 302 301 301 301 300 300 300 300 300 299 299 299 299 298 298 297 298 298 299
312 312 312 313 313 312 312 311 311 311 310 308 307 305 303 302 302 303 303 303 303 302 302 301 301 300 300 300 300 300 300 300 300 300 300 299 299 298 297 297 298 298 298
313 314 314 314 314 313 313 313 313 312 311 311 310 308 307 305 304 304 304 304 303 303 302 302 302 301 300 300 300 300 299 299 298 298 299 298 298 298 295 295 297 297 298
315 315 315 315 314 313 312 311 311 312 313 312 311 310 309 308 307 306 305 305 304 303 303 302 302 302 301 300 300 300 299 298 295 296 297 297 297 297 295 295 297 297 297
314 313 312 311 312 313 311 312 311 311 312 312 312 312 311 310 310 309 307 306 305 304 304 303 303 302 302 301 301 301 300 298 297 295 296 296 296 296 296 295 295 297 297

GFSGL_850_thetae_021.txt.gz
Theta_e
347 345 345 344 343 343 343 342 341 340 340 341 338 338 338 340 341 340 339 339 340 339 336 338 338 337 338 342 343 343 341 341 340 339 340 340 339 337 337 337 337 337 337
347 346 345 344 344 343 343 342 340 336 340 338 341 341 339 338 338 338 337 342 343 340 341 342 343 343 339 338 339 340 341 339 340 340 340 338 335 337 335 335 333 334 334
347 347 345 345 346 343 343 339 338 339 337 342 339 338 338 338 338 338 338 337 337 338 339 337 341 339 339 339 339 338 338 338 338 337 337 335 336 335 335 332 332 331 331
346 346 346 345 346 343 340 338 340 339 335 334 339 341 337 338 336 336 336 336 336 336 336 336 336 336 335 336 336 335 335 335 335 335 335 334 333 332 331 330 331 331 330
347 346 346 346 346 344 341 338 337 337 333 330 333 338 336 333 333 333 333 334 334 334 334 335 334 334 333 333 333 333 334 333 332 332 332 331 331 330 330 330 330 329 328
346 346 346 346 346 344 341 337 340 333 332 329 329 330 331 330 331 331 334 332 332 332 331 331 331 331 331 331 331 331 331 331 331 330 330 330 329 329 328 328 327 326 326
347 348 347 347 346 345 342 341 337 332 332 329 326 329 329 327 327 329 330 330 330 330 329 329 328 327 326 326 326 327 328 329 329 328 328 328 327 327 327 326 324 324 324
348 347 347 346 347 346 344 343 337 333 332 330 327 328 327 326 326 326 327 329 329 328 328 325 324 323 322 321 321 322 324 324 322 322 325 324 323 322 323 323 322 322 322
344 338 338 341 343 345 342 342 339 335 332 330 330 330 326 325 324 325 327 327 326 324 324 322 319 317 317 320 319 318 318 318 317 317 317 317 316 316 319 321 320 321 318
334 329 327 328 336 342 343 340 338 336 332 330 330 327 326 325 323 324 325 325 324 321 319 318 318 317 318 321 322 321 319 318 317 315 315 314 313 313 314 315 314 317 318
328 329 329 329 331 339 339 339 337 334 332 330 328 326 326 326 325 324 324 325 324 322 319 320 319 319 318 317 319 319 318 315 313 313 311 309 308 308 308 307 308 312 313
329 329 330 330 332 335 336 336 335 331 331 330 327 324 327 326 325 325 323 323 322 320 318 319 318 318 318 317 317 315 311 312 312 309 308 307 307 307 307 308 301 302 309
329 330 330 331 332 334 333 331 331 329 331 330 328 326 326 325 325 324 323 321 319 317 317 316 317 311 307 304 303 304 308 309 308 308 307 306 306 305 306 307 307 308 308
329 329 331 329 330 331 330 328 327 327 326 326 326 325 325 325 323 321 320 318 317 316 316 314 308 305 307 303 307 307 308 308 307 307 306 305 305 305 305 305 305 306 307
328 327 328 328 328 327 326 325 324 323 324 323 323 323 323 322 321 320 317 315 314 314 309 309 309 309 308 308 307 307 307 307 307 306 305 305 304 305 304 304 304 305 305
323 323 325 325 323 323 323 322 322 321 321 320 320 320 320 319 318 316 315 314 312 307 309 311 309 308 308 308 307 307 306 305 305 304 304 303 303 303 304 304 304 304 304
324 324 322 319 319 318 319 319 320 318 318 318 318 318 318 317 316 314 311 306 303 303 309 309 309 308 307 306 305 305 306 305 303 303 303 302 302 302 302 303 303 303 304
320 319 318 316 315 315 316 317 316 315 313 312 314 314 314 312 309 305 302 300 304 305 307 308 307 306 305 305 305 304 304 303 304 303 302 301 301 301 302 302 302 302 303
311 310 310 309 309 309 309 309 309 310 310 309 306 305 305 304 302 300 302 306 308 307 306 306 306 305 304 304 304 304 304 303 303 302 302 302 302 302 302 301 301 299 298
310 309 310 310 310 310 311 310 309 309 309 308 308 308 305 301 303 303 303 306 306 306 306 305 305 305 304 303 303 303 303 303 302 302 302 303 302 301 301 301 301 301 302
310 310 311 312 312 311 311 311 310 310 308 307 308 307 306 305 307 307 307 306 306 306 306 305 305 304 304 303 303 303 303 303 303 303 303 303 302 301 302 301 301 301 301
312 312 313 313 313 313 313 313 312 311 310 309 308 306 302 302 305 306 306 306 305 305 304 304 304 304 304 303 303 303 302 302 302 302 302 302 302 302 301 300 300 301 301
313 313 314 314 315 314 315 315 314 313 312 312 310 309 306 304 304 305 305 305 305 305 304 304 303 303 302 302 302 302 302 302 302 302 302 302 302 301 301 300 299 300 301
314 315 316 316 316 315 315 315 314 314 314 313 312 312 310 309 308 307 307 306 306 306 305 304 304 304 303 302 302 302 302 301 301 301 301 301 301 301 300 300 298 299 300
316 317 316 316 314 314 314 315 314 315 313 313 313 312 312 311 311 310 309 308 308 307 306 305 305 304 304 303 302 302 301 301 300 300 298 299 300 300 300 300 298 298 299
316 315 314 314 314 314 313 314 314 313 313 313 312 312 312 311 311 311 310 310 310 309 307 306 306 305 305 305 304 303 302 301 300 299 298 298 298 299 299 298 298 298 298

GFSGL_850_thetae_024.txt.gz
Theta_e
349 347 344 346 345 342 341 340 341 341 340 342 340 341 338 340 341 340 341 340 340 340 338 340 340 339 337 337 337 337 340 339 338 340 341 339 339 338 336 335 334 335 335
349 347 347 345 343 341 341 338 335 339 340 339 339 338 338 339 338 337 337 339 337 338 338 339 339 339 339 339 340 340 341 340 340 338 341 340 339 335 335 334 334 333 333
349 348 347 346 345 341 341 339 339 341 337 337 337 336 337 338 339 336 337 337 337 338 338 338 338 337 338 342 339 338 338 338 339 339 338 337 335 335 334 332 331 330 330
349 348 347 346 344 342 341 339 337 340 337 333 337 335 334 334 338 336 335 335 335 335 335 335 335 335 335 335 335 335 334 334 334 335 336 335 333 330 330 330 330 330 329
348 347 346 344 344 343 342 341 334 334 331 327 335 334 333 331 332 337 336 333 333 332 332 332 332 332 332 333 333 334 333 333 333 333 331 331 331 330 330 330 329 327 327
348 347 346 346 344 343 342 340 338 332 330 333 330 329 328 329 330 331 334 335 332 331 330 330 330 329 330 331 331 331 331 331 330 330 330 330 329 329 328 327 326 325 325
348 344 347 345 344 343 344 341 339 333 333 329 328 326 327 325 326 327 331 331 330 329 328 327 326 326 325 325 326 327 328 329 329 328 328 327 327 327 326 325 324 324 324
348 346 347 348 346 345 345 343 341 337 333 330 327 324 326 325 326 326 328 328 327 326 326 326 324 323 321 320 320 321 321 320 320 321 324 323 324 323 321 319 320 320 318
346 344 341 341 343 344 344 343 341 340 334 332 329 328 325 325 324 327 327 326 325 324 323 322 320 318 320 321 321 319 318 318 317 317 317 316 316 318 319 321 321 320 319
342 340 330 328 331 340 341 340 339 338 334 332 330 327 326 325 324 326 326 325 324 322 319 318 318 318 321 323 322 321 319 318 317 312 310 308 309 313 316 317 315 316 318
331 328 329 330 334 337 337 337 336 336 333 333 330 327 326 327 326 325 325 325 324 322 321 320 318 319 319 319 319 320 317 313 313 313 309 309 309 308 304 306 312 314 313
329 329 330 330 331 337 335 335 335 333 332 331 327 329 327 326 326 325 324 324 324 322 321 320 320 319 318 317 317 315 312 312 311 309 308 308 308 308 305 304 303 301 311
329 329 330 330 331 333 333 334 333 331 331 330 328 328 327 327 326 326 325 324 323 322 320 318 318 313 311 304 303 306 309 309 309 309 308 307 306 305 307 308 307 308 309
328 329 330 330 330 331 331 331 330 329 328 327 326 326 325 325 325 323 322 321 320 317 317 314 309 309 307 307 308 308 308 309 308 307 307 306 306 305 305 306 306 305 311
328 328 328 328 328 328 328 327 327 326 325 325 324 323 323 323 322 321 320 318 316 314 310 310 310 310 310 309 308 308 308 308 307 306 306 305 305 305 305 305 305 305 305
324 325 325 325 325 324 324 324 324 323 323 322 322 321 321 320 320 319 317 316 315 311 310 311 311 310 309 309 308 308 307 306 306 305 304 304 304 304 305 304 304 305 305
325 323 322 321 320 319 319 318 317 319 320 319 319 319 319 319 318 316 316 313 306 303 310 311 310 310 309 307 306 306 306 307 306 304 304 303 303 303 302 303 303 304 304
323 323 322 320 319 319 319 318 317 315 313 311 314 315 315 315 313 311 306 301 305 307 307 309 308 308 307 306 306 305 305 305 304 304 303 303 302 302 302 302 302 303 303
313 313 312 311 311 311 311 311 311 311 312 310 308 305 303 304 303 301 300 304 309 309 308 307 307 307 306 305 305 305 305 304 304 304 303 302 302 302 302 303 302 302 301
312 311 311 311 312 312 312 311 311 310 310 310 310 309 307 303 304 305 303 304 308 307 307 306 306 306 305 305 304 303 304 304 303 303 301 303 303 302 302 302 302 302 302
311 312 312 313 313 313 313 312 312 311 310 309 309 308 305 305 307 308 308 308 308 307 307 306 306 305 305 305 304 303 303 303 303 304 303 303 303 302 302 302 302 301 302
313 314 315 314 314 314 313 314 314 313 312 311 310 309 308 308 303 306 307 307 306 306 306 305 305 305 305 304 304 303 303 303 302 303 302 302 302 302 302 302 301 301 301
314 315 315 315 316 315 316 316 315 315 314 314 313 311 310 308 307 306 306 306 307 307 306 306 305 304 304 303 302 302 302 303 302 302 303 303 303 302 302 302 301 301 300
315 316 316 316 316 316 316 316 316 314 314 315 314 313 312 311 310 310 309 308 308 307 307 306 306 305 305 304 304 303 302 302 302 302 302 302 301 302 302 302 301 301 300
317 317 317 316 315 315 316 316 315 314 314 314 314 314 313 313 313 312 312 311 311 310 309 308 307 307 306 305 305 304 303 302 302 301 301 301 300 299 300 301 301 300 300
317 316 314 314 314 313 313 313 313 312 312 311 310 311 310 310 310 309 308 309 309 310 310 309 309 308 307 307 306 305 305 304 304 303 302 300 299 298 298 299 299 300 299

GFSGL_850_thetae_027.txt.gz
Theta_e
346 345 344 345 343 340 340 339 338 339 335 341 339 338 337 338 337 337 337 338 339 339 338 340 340 339 339 339 339 338 337 340 340 340 339 339 338 337 335 334 333 334 334
346 344 345 344 343 339 339 337 339 339 335 337 336 334 335 335 337 336 336 336 337 336 338 338 337 338 338 338 337 337 336 337 337 339 339 336 337 335 335 333 333 333 331
346 343 345 345 344 342 338 334 339 338 335 332 333 333 333 332 335 335 336 336 336 335 335 336 336 335 336 337 336 337 337 337 337 338 337 335 335 333 332 331 330 330 330
346 345 345 344 344 343 339 338 336 335 332 333 332 331 331 330 331 332 333 333 334 334 334 334 334 334 334 334 334 335 334 334 334 335 335 333 333 329 329 329 328 327 327
346 345 345 344 344 342 341 338 333 332 329 332 329 330 329 329 328 328 330 331 331 331 331 331 331 331 332 333 333 333 332 333 332 332 331 331 330 329 329 328 328 326 325
347 346 346 345 345 344 342 341 337 332 335 329 326 328 326 327 329 329 328 330 330 328 328 328 328 329 329 329 330 330 331 330 330 330 328 328 328 327 327 326 326 324 323
346 347 346 346 345 343 342 341 340 335 337 329 325 326 325 325 326 327 327 326 326 327 326 326 326 324 323 324 326 327 327 327 327 326 326 325 325 325 325 324 324 323 323
347 345 344 345 345 344 343 343 340 340 334 331 326 326 325 325 326 327 327 326 326 326 326 324 323 321 320 319 319 320 320 320 320 321 322 323 324 322 320 320 319 319 318
344 343 344 342 342 345 344 343 343 340 336 333 330 326 325 325 327 328 327 325 324 324 323 320 320 320 321 322 321 320 319 318 317 316 316 316 317 318 319 321 318 320 319
344 343 338 328 328 342 343 343 340 339 335 333 331 328 325 324 325 326 326 325 323 322 320 320 318 319 322 322 322 321 319 313 311 309 309 308 308 307 314 317 314 318 320
341 332 329 328 329 335 338 338 338 336 334 333 332 329 326 325 325 325 325 325 324 324 323 322 320 320 319 320 320 320 314 313 313 313 311 309 308 307 301 307 312 312 314
330 329 329 329 331 336 335 335 335 334 334 332 332 328 327 326 325 325 325 325 324 322 322 322 320 320 319 317 317 315 313 311 311 310 308 308 308 307 305 306 306 305 307
329 329 329 330 330 333 331 333 334 333 333 331 330 328 327 326 326 326 325 324 323 322 321 319 316 312 308 304 307 309 309 309 309 308 307 307 306 305 306 306 306 306 308
328 328 329 329 329 330 330 330 330 330 329 328 327 327 326 325 325 324 322 322 322 319 318 315 310 309 309 308 308 307 307 308 307 307 306 306 305 305 305 305 305 306 306
327 328 328 328 328 328 328 327 326 326 326 326 325 324 324 323 322 321 320 319 317 315 311 310 310 309 310 309 308 308 307 307 307 306 306 305 304 304 305 304 305 305 306
326 326 326 325 324 324 324 324 324 324 324 323 323 322 322 321 321 320 319 317 316 312 311 311 311 309 308 308 307 307 307 307 306 306 305 304 303 303 304 304 303 304 304
324 323 320 319 318 316 315 315 314 317 318 320 320 320 320 319 318 318 317 316 310 306 310 310 310 309 309 308 307 306 305 306 306 305 304 303 302 302 302 303 303 303 304
322 322 320 319 317 313 316 315 313 312 310 308 305 307 310 314 314 313 310 303 306 307 308 308 308 308 307 307 306 305 305 305 304 304 304 303 302 302 302 302 302 302 303
315 313 313 311 311 310 312 313 312 310 310 310 309 308 304 301 301 301 301 301 308 308 308 307 307 306 306 305 305 304 304 304 304 304 303 303 302 302 302 302 302 302 302
312 311 311 312 312 311 311 311 310 309 310 309 309 307 305 305 308 307 306 307 306 307 307 307 306 306 305 305 305 304 304 303 302 303 304 302 303 303 303 302 302 302 302
311 312 312 313 312 312 312 312 311 310 309 310 309 309 308 308 306 307 307 308 308 307 307 307 306 306 305 305 304 304 304 303 303 303 303 303 303 303 303 302 302 302 301
312 313 314 314 313 314 314 313 314 313 313 312 311 310 309 309 308 307 306 307 307 306 306 306 306 306 305 305 304 303 302 302 302 302 302 303 302 302 302 302 302 302 301
314 314 314 315 315 315 316 316 316 315 315 315 313 312 311 310 310 309 308 307 306 306 307 307 307 306 306 306 305 304 303 302 302 302 302 302 302 303 302 302 302 302 302
316 315 316 316 316 316 316 316 316 315 315 315 314 314 313 312 312 312 311 311 309 309 309 308 308 307 306 306 306 305 305 304 303 302 302 302 301 301 301 300 299 301 301
317 317 316 316 315 315 315 314 313 314 313 313 312 312 311 312 313 312 312 312 311 310 310 310 309 308 308 307 307 306 305 305 305 305 303 302 302 301 300 299 298 297 300
317 317 315 314 314 313 313 312 311 310 310 309 309 309 309 309 309 309 309 309 309 309 310 309 307 307 309 308 307 307 308 307 306 305 304 303 303 303 303 303 301 299 298

GFSGL_850_thetae_030.txt.gz
Theta_e
345 341 343 342 342 338 337 333 334 329 334 337 334 335 337 336 336 336 337 337 337 337 339 340 340 339 339 339 339 339 340 338 337 338 338 337 337 336 335 334 334 336 335
345 343 344 343 342 338 334 330 330 327 326 331 333 334 333 336 336 336 335 336 336 335 335 336 336 338 338 338 337 337 336 336 337 338 336 335 335 334 334 333 333 332 332
346 344 343 343 343 339 335 332 330 327 327 330 331 331 330 332 334 334 334 335 335 335 335 335 334 335 335 335 335 336 336 337 337 337 337 334 334 332 332 331 330 330 330
346 343 344 343 343 342 339 335 331 327 324 328 329 329 328 328 331 331 332 332 331 331 332 332 333 333 333 334 334 334 334 334 335 337 334 332 332 329 329 329 330 329 328
346 342 344 343 344 341 339 338 333 329 326 327 328 327 327 327 326 327 328 328 329 329 330 330 330 331 332 333 333 332 332 332 333 335 331 331 329 329 328 328 328 327 326
346 345 345 345 344 343 341 340 337 332 330 326 326 326 326 326 325 326 326 326 326 327 328 327 326 326 326 327 328 329 329 329 330 329 329 329 328 327 327 327 326 325 323
346 346 346 345 345 344 342 341 339 339 336 329 325 326 325 325 325 326 326 325 325 325 325 325 322 321 322 324 324 325 325 326 325 325 326 325 325 325 325 323 323 323 322
346 344 346 345 345 344 342 342 340 340 338 332 326 326 325 326 325 326 326 325 325 325 324 323 321 320 320 319 319 319 319 319 319 322 323 324 324 323 322 321 322 320 318
342 343 343 343 345 345 343 342 342 340 338 334 330 325 325 326 326 327 326 325 323 324 321 320 320 320 322 322 321 319 318 315 313 314 316 316 316 318 319 320 319 318 318
342 342 342 339 331 337 341 341 341 338 336 333 333 327 325 325 326 326 326 325 324 322 321 319 319 320 321 321 320 319 314 311 309 309 308 308 308 307 305 317 314 317 319
342 341 335 329 328 334 340 338 339 336 334 333 333 331 326 324 325 325 325 325 325 323 322 321 319 319 320 320 320 319 314 313 312 311 310 309 308 307 304 304 310 312 315
340 333 329 328 328 336 335 336 334 334 334 333 331 330 327 325 324 324 325 324 324 323 322 322 320 319 318 317 317 316 313 312 311 310 308 309 306 305 306 306 306 306 307
332 328 328 329 331 334 336 332 333 332 333 333 331 328 327 326 324 325 323 323 323 322 322 318 315 311 306 308 309 309 309 309 308 308 307 306 305 305 304 305 306 306 308
328 328 328 329 329 330 330 332 331 333 332 329 328 327 326 325 325 324 323 322 321 320 318 312 309 309 308 308 308 307 305 308 307 306 306 305 305 305 304 304 304 305 305
327 328 328 328 329 329 328 328 329 329 328 327 326 326 325 324 323 321 320 318 318 315 310 310 309 309 309 309 308 307 307 307 306 306 306 305 304 304 304 304 304 304 305
327 326 326 326 326 326 326 326 325 324 324 324 323 323 323 322 322 321 320 318 315 311 310 311 310 309 308 308 307 306 307 307 306 306 306 305 303 303 303 303 304 303 304
325 322 319 317 315 313 313 314 310 313 320 321 320 320 320 319 319 318 317 317 315 309 309 310 310 309 309 308 307 306 305 305 305 305 304 304 303 302 302 302 303 303 303
319 318 316 313 315 314 311 310 310 309 305 305 302 302 305 312 314 314 312 304 304 306 308 308 308 307 306 306 305 304 304 304 304 304 304 304 303 303 302 302 302 302 302
320 315 313 311 312 312 311 310 309 309 309 306 306 305 303 301 301 301 302 306 308 307 307 307 306 306 306 305 305 304 304 303 302 302 303 303 302 302 302 302 302 302 302
312 311 311 310 311 311 311 310 310 310 310 309 309 308 307 306 308 307 306 307 307 306 306 307 306 306 306 305 304 304 304 304 303 302 303 303 303 302 303 303 302 302 302
311 311 311 311 311 311 312 312 311 310 311 311 310 309 308 307 307 307 308 308 307 307 307 307 306 306 305 305 305 304 304 303 302 302 302 302 302 302 302 302 302 302 302
311 312 313 312 313 313 313 313 312 312 311 312 311 310 309 309 309 307 306 306 306 306 306 306 306 306 306 306 306 305 304 304 303 302 302 302 302 302 303 302 302 302 302
312 313 314 314 314 315 315 316 316 314 314 314 313 311 310 309 309 309 308 308 306 306 306 307 307 306 306 305 306 306 305 305 304 303 302 302 302 301 301 302 302 301 301
314 314 314 316 316 316 316 316 315 315 314 315 314 313 312 310 309 310 311 311 310 308 308 308 308 306 307 306 306 306 305 305 305 305 304 303 302 302 302 301 301 300 300
315 315 316 316 316 315 315 314 313 313 312 311 313 312 311 311 312 312 311 311 311 311 311 310 309 309 309 307 308 308 308 307 307 307 307 306 305 304 302 301 302 302 302
317 317 316 316 315 314 313 310 311 311 311 309 309 310 309 310 309 309 309 309 309 309 309 310 309 308 307 307 306 306 306 306 306 306 306 306 305 305 305 303 304 302 303

GFSGL_850_thetae_033.txt.gz
Theta_e
344 339 341 339 340 337 331 331 329 325 326 331 332 334 336 336 335 335 335 336 336 337 339 339 339 339 339 339 338 338 340 338 338 338 339 337 337 336 335 334 335 333 333
345 342 343 342 341 336 332 330 328 324 328 330 330 331 334 335 335 335 335 335 335 335 335 335 335 338 338 338 338 338 338 338 338 337 336 335 334 334 334 333 333 333 332
345 344 343 342 342 338 334 332 328 325 326 328 328 327 330 332 332 333 333 333 334 334 334 334 334 334 335 335 336 337 337 336 336 336 336 334 334 333 332 331 330 330 330
344 345 342 342 342 341 338 334 331 327 324 327 327 327 327 328 329 330 329 329 329 330 330 331 332 333 333 333 333 334 334 335 336 336 335 334 333 331 330 329 328 328 328
340 344 341 342 342 341 340 338 334 330 326 324 326 325 326 326 326 327 327 327 328 328 329 330 330 331 331 332 331 332 331 332 335 332 332 332 330 329 328 328 327 327 326
343 342 342 344 344 342 340 340 337 333 331 326 324 325 326 325 326 326 325 325 325 327 326 325 324 325 325 326 326 327 328 328 329 329 329 329 328 328 327 327 326 324 323
346 345 344 343 342 341 340 340 338 337 335 331 326 325 325 325 326 326 325 325 325 325 324 320 320 321 321 321 321 322 323 324 324 326 325 325 326 326 325 324 323 323 322
345 345 344 341 342 341 339 341 340 338 337 333 330 326 325 325 326 327 325 324 324 324 323 320 321 321 321 320 319 320 319 320 321 324 324 324 322 322 322 322 321 322 320
341 336 341 340 340 340 341 341 340 339 339 335 331 326 325 325 326 327 326 324 323 323 321 320 320 321 321 321 320 319 317 317 316 316 316 315 312 314 318 319 319 318 318
335 339 340 339 340 341 341 340 340 338 336 335 332 328 325 325 326 326 326 325 322 322 322 320 319 320 321 321 320 318 312 312 310 309 309 308 308 307 304 311 317 314 316
333 338 340 338 331 330 337 338 339 337 336 333 332 331 328 325 325 325 326 325 325 323 322 323 321 320 319 319 319 319 315 312 311 310 309 308 307 306 304 302 307 311 314
335 340 337 331 330 332 337 338 335 334 334 332 332 330 330 327 324 325 325 325 325 323 321 322 320 318 317 317 316 315 313 312 310 310 310 309 306 305 305 305 306 305 309
339 334 329 328 331 336 334 333 333 332 331 333 331 330 328 327 326 326 324 324 323 321 321 318 315 310 309 309 307 307 308 308 308 308 307 306 305 305 304 304 305 305 307
329 328 328 328 330 333 333 331 330 331 332 332 330 329 328 327 325 325 324 323 322 319 317 312 307 305 306 308 307 307 306 307 307 306 306 305 305 305 304 304 304 304 304
328 327 328 328 329 330 329 329 330 330 331 329 328 327 326 325 324 322 321 319 318 316 310 309 309 309 309 309 308 307 307 307 306 306 306 305 304 304 304 304 304 303 304
327 327 327 328 328 328 328 327 327 326 326 325 324 323 323 323 321 320 320 319 315 310 310 310 310 309 309 308 307 307 306 306 306 306 305 304 304 303 302 302 302 303 303
325 325 325 324 321 321 322 321 324 323 322 322 321 321 320 320 320 319 317 316 313 310 310 310 310 308 306 305 305 304 304 304 304 304 304 304 303 303 302 301 301 302 302
320 317 315 312 311 310 309 308 306 304 304 303 303 306 313 316 316 316 315 312 307 307 308 309 307 306 306 305 305 304 303 303 303 302 302 304 303 303 302 302 302 302 302
316 313 314 313 311 310 309 308 308 307 309 308 306 304 303 301 301 304 305 307 307 307 307 307 306 306 306 305 305 304 304 304 303 302 302 303 303 302 302 302 302 302 301
316 314 311 311 311 310 310 310 310 309 309 309 310 310 308 307 306 304 302 306 307 306 306 306 306 305 305 306 306 305 304 303 303 302 302 302 302 302 302 302 302 303 302
313 312 310 311 311 311 311 312 311 311 311 310 309 309 308 307 307 308 307 307 307 306 306 306 306 305 306 305 305 306 306 304 304 303 302 302 302 302 302 302 302 302 302
311 311 311 311 311 313 313 313 313 314 314 312 311 309 308 309 307 307 306 306 306 307 307 307 307 306 305 305 305 306 306 305 305 304 303 302 302 302 302 301 301 302 302
311 311 312 312 313 314 313 313 314 315 314 314 314 311 309 309 309 308 307 307 306 306 306 306 306 307 307 305 306 306 305 306 306 306 305 304 304 304 303 302 302 301 301
312 313 313 313 314 315 315 315 315 315 315 314 314 314 311 309 309 308 309 311 310 311 311 309 306 307 307 305 306 306 305 307 307 307 306 305 305 306 306 304 303 302 301
313 314 314 314 315 316 316 315 315 315 314 314 313 313 313 312 311 312 312 311 310 310 310 308 309 309 308 307 308 308 308 307 307 306 306 306 306 306 306 306 306 305 304
315 315 314 315 315 315 314 315 314 312 311 311 311 310 310 310 310 310 309 309 309 309 309 308 308 308 308 307 306 306 305 304 303 302 302 302 303 304 304 304 304 304 305

GFSGL_850_thetae_036.txt.gz
Theta_e
341 338 338 337 336 335 333 330 325 327 330 331 331 334 335 335 335 335 335 334 334 335 337 338 339 339 339 337 337 338 338 339 338 337 337 338 337 335 334 334 334 333 333
331 337 339 337 337 335 332 328 326 327 329 329 328 331 333 333 334 334 334 334 334 334 334 335 336 337 337 338 338 339 339 339 338 338 338 337 335 333 333 333 332 331 332
339 340 340 339 339 337 334 332 328 325 327 326 326 328 330 330 331 330 330 330 330 331 332 333 333 334 334 334 335 337 337 337 337 338 336 335 333 333 332 331 331 330 329
336 340 340 340 342 339 337 334 332 327 324 325 325 326 326 327 328 327 327 327 328 329 330 331 332 332 333 333 333 334 335 336 337 336 335 334 333 332 330 329 329 328 327
337 341 339 342 342 341 339 338 334 330 328 324 325 325 325 326 326 326 325 326 327 327 326 327 328 328 329 330 330 330 330 332 332 332 333 333 332 330 328 327 327 326 325
334 342 341 342 340 340 339 338 336 333 332 329 325 325 325 325 326 326 325 325 325 323 322 322 323 324 324 324 325 325 324 325 328 328 328 329 328 327 327 326 325 323 322
343 342 342 343 340 339 341 338 338 336 335 332 328 325 325 325 326 326 325 325 324 323 321 320 320 320 320 320 321 322 322 323 324 325 325 324 324 325 324 324 324 323 322
343 343 343 343 341 340 340 339 338 338 336 334 330 326 325 325 326 326 325 323 323 322 321 321 321 321 322 321 320 320 319 320 321 322 323 321 321 321 321 321 322 322 321
341 342 344 339 338 338 339 339 339 340 338 336 331 328 326 325 326 326 325 323 322 321 320 319 321 321 321 320 319 317 315 314 314 314 312 308 307 306 309 319 319 318 318
338 340 340 340 340 340 340 340 339 339 336 335 332 330 326 325 326 326 326 324 322 322 322 320 319 320 321 320 320 318 313 312 310 309 309 308 307 307 304 303 312 314 314
338 334 338 338 339 338 339 342 337 339 334 335 332 332 331 327 325 325 326 325 324 323 322 322 320 319 319 319 318 317 315 313 312 311 311 309 307 306 304 304 303 305 311
333 332 332 337 334 330 332 338 338 336 336 334 331 331 329 329 326 324 325 325 325 324 322 322 319 318 315 313 311 310 310 309 309 309 310 308 306 305 304 304 305 306 305
334 334 337 335 331 330 333 335 338 332 335 332 331 330 329 327 327 327 326 325 324 323 322 320 316 311 307 306 308 307 305 306 307 308 307 306 306 305 304 304 304 304 305
337 336 331 329 329 333 333 332 332 333 331 331 331 330 328 328 326 326 324 323 322 322 320 315 307 307 308 308 308 307 307 306 306 306 306 305 305 304 305 304 304 304 304
330 328 328 328 331 330 331 333 329 330 330 331 329 328 327 326 325 324 322 322 320 317 313 310 309 309 309 308 308 307 307 307 306 306 306 305 304 303 303 303 303 304 303
327 327 327 328 328 327 327 328 329 328 328 327 326 324 322 323 322 321 321 319 317 312 310 310 310 308 306 305 304 304 305 305 305 305 304 304 304 303 302 302 302 302 302
326 326 326 327 327 327 326 326 326 324 323 322 322 320 319 321 320 320 319 317 311 311 310 310 309 306 305 305 304 304 303 303 303 302 301 303 303 303 303 302 302 301 302
325 324 321 318 317 314 310 310 313 317 317 315 316 317 317 318 317 317 316 316 312 310 309 309 307 306 305 305 305 304 304 304 303 302 301 302 303 303 301 302 302 302 302
319 313 311 310 309 308 305 304 306 307 304 303 303 303 302 303 305 310 306 306 306 307 307 307 306 306 305 305 305 304 304 304 303 302 302 302 302 302 302 302 302 302 302
315 314 311 310 309 308 307 308 310 310 311 311 309 308 307 306 303 302 306 307 306 306 306 306 306 305 305 305 305 305 305 303 303 303 302 302 301 302 302 302 302 302 302
315 312 312 311 310 310 310 311 310 310 310 309 310 310 308 307 307 306 305 306 306 306 306 306 306 306 305 305 305 306 306 306 305 305 305 304 302 302 302 301 301 301 302
316 313 311 311 311 311 312 312 312 313 312 311 310 309 309 309 307 307 307 307 307 307 307 306 306 306 306 306 306 306 306 306 306 306 305 305 305 304 303 303 303 302 301
313 311 311 311 312 312 313 313 313 315 314 314 313 312 310 309 309 308 307 306 306 306 306 306 306 306 306 307 307 306 305 305 305 305 307 307 307 306 305 305 305 305 303
311 311 311 312 312 314 314 314 315 315 315 315 315 314 313 311 309 308 308 308 308 311 311 311 311 308 306 306 306 306 305 306 306 307 307 306 306 305 305 305 305 305 306
311 311 312 312 312 314 315 315 315 315 315 314 314 313 313 311 311 311 311 311 311 310 308 308 309 309 309 308 308 308 307 306 305 304 303 302 301 301 301 301 302 303 303
312 312 313 313 313 313 315 315 315 314 313 311 311 312 313 313 311 311 309 309 308 308 308 308 307 307 306 306 305 304 303 301 298 294 291 290 290 290 290 290 290 291 293

GFSGL_850_thetae_039.txt.gz
Theta_e
335 336 338 337 333 330 327 323 325 328 328 328 332 334 334 335 335 335 334 334 334 335 335 338 339 339 338 337 337 338 338 338 339 338 337 336 336 335 334 333 333 333 332
332 339 339 339 335 332 329 326 324 326 326 326 329 330 332 333 333 332 332 333 333 334 334 335 336 336 337 338 339 339 339 339 339 337 336 336 335 334 334 332 332 331 331
333 339 339 339 337 334 333 330 326 325 325 325 327 328 329 328 327 328 328 329 329 331 333 333 333 333 334 335 335 337 337 337 338 338 337 336 334 333 332 331 330 329 328
336 340 340 339 340 338 336 333 331 327 325 325 326 326 326 326 326 326 327 327 329 329 330 331 332 332 332 332 333 334 336 337 338 336 335 335 333 331 330 329 328 327 327
334 341 339 340 341 341 338 337 334 332 328 325 325 325 326 326 325 325 325 326 325 324 324 325 325 325 326 326 327 327 329 332 332 333 333 332 331 329 327 327 326 325 325
335 340 342 340 342 342 339 338 336 333 332 329 326 325 325 326 326 325 325 324 322 321 321 321 321 321 321 322 323 323 323 327 328 328 329 328 328 327 326 326 325 324 323
333 342 343 342 341 341 340 338 337 335 334 331 329 326 325 326 326 325 325 324 323 321 321 321 321 321 321 321 320 321 321 323 324 325 324 324 324 323 323 323 323 323 322
332 343 343 341 340 340 340 339 338 337 336 333 329 327 326 326 326 326 324 324 322 321 321 321 322 322 322 321 320 319 319 319 319 319 318 318 318 319 320 320 320 320 319
338 341 337 338 340 337 339 338 338 339 337 336 331 327 327 326 326 326 324 323 322 321 321 321 321 322 321 320 319 316 314 313 311 309 309 308 308 306 305 316 318 320 320
336 332 333 337 337 340 339 340 339 337 337 335 333 330 326 326 326 326 325 323 323 323 323 322 321 321 320 320 319 316 313 312 310 310 309 308 307 306 303 303 308 313 315
338 335 336 338 339 339 339 341 340 337 337 334 333 331 329 327 325 325 326 325 324 323 322 322 320 319 318 316 314 313 313 313 312 311 311 310 307 307 304 303 304 308 312
339 337 332 334 334 335 334 340 339 337 335 335 332 331 330 329 328 325 325 325 325 324 322 322 318 314 310 307 307 306 306 307 309 311 312 310 308 308 307 304 303 304 305
335 333 333 333 334 331 336 338 337 336 334 334 331 330 330 328 327 327 326 325 325 324 321 320 315 309 308 308 308 307 307 308 309 309 309 308 306 305 305 306 305 304 304
336 336 336 334 330 332 335 335 337 335 331 332 330 330 329 328 327 326 325 324 323 322 319 314 307 309 309 308 308 307 307 306 307 307 307 306 305 306 306 303 305 305 305
336 335 332 329 328 331 332 334 331 333 332 330 330 328 328 327 325 325 324 323 322 320 315 310 309 309 310 308 307 306 306 306 307 306 306 306 305 305 304 303 304 304 304
331 328 327 328 329 329 330 331 333 330 330 328 328 327 324 323 323 322 321 320 319 316 310 310 310 309 308 307 306 307 306 305 303 304 304 304 304 304 304 304 304 303 303
327 326 326 327 327 326 327 328 327 327 327 325 324 322 322 321 320 320 320 318 313 311 310 311 310 308 307 307 306 306 306 304 303 304 304 304 304 304 304 304 304 304 303
326 326 326 326 326 326 326 326 326 324 323 322 321 320 320 319 319 318 317 315 311 310 310 310 309 306 307 307 307 306 306 305 305 304 304 304 304 304 304 304 303 304 304
325 324 322 321 317 312 311 313 314 311 308 305 305 308 309 311 312 314 314 311 309 309 308 307 306 306 305 306 306 306 305 304 304 304 305 304 304 304 304 304 304 303 303
319 313 310 309 308 305 304 307 306 306 307 306 306 305 305 303 303 306 307 307 307 307 306 306 306 306 306 306 306 306 306 306 306 305 305 305 305 305 305 304 304 304 304
314 311 310 309 308 307 310 310 311 311 311 310 310 310 309 307 305 304 306 306 306 306 306 306 306 306 306 305 306 306 306 306 306 306 306 305 305 306 305 305 305 305 305
315 314 311 310 309 308 310 311 311 310 310 310 309 310 310 310 308 307 307 306 306 306 306 306 306 306 306 306 306 306 306 306 305 305 305 305 305 306 306 306 306 305 305
318 314 312 311 311 311 311 311 312 312 313 313 313 311 310 309 309 307 307 307 306 306 306 306 306 306 306 306 306 306 306 306 305 304 305 305 306 306 306 306 306 306 306
319 317 312 311 312 312 312 313 313 314 315 315 315 314 314 313 311 308 308 308 307 307 308 310 310 309 308 308 306 306 307 306 306 306 306 305 304 302 301 301 301 301 302
315 313 311 311 311 312 313 314 315 315 315 315 314 314 313 313 312 311 311 310 311 311 310 309 307 308 308 308 308 307 307 306 304 303 301 297 293 291 290 290 293 293 295
311 311 311 311 312 312 314 314 315 315 315 314 314 312 312 312 313 312 312 310 310 309 308 308 308 307 306 306 305 304 301 298 293 291 290 290 290 289 289 289 289 290 291

GFSGL_850_thetae_042.txt.gz
Theta_e
335 346 335 339 338 336 336 336 327 326 327 330 333 334 334 335 334 336 335 335 335 335 336 338 339 339 340 339 338 339 339 338 338 338 338 336 336 335 335 333 332 332 331
333 343 337 335 341 338 335 325 325 325 327 329 329 331 332 330 332 332 333 332 333 334 335 335 336 336 337 338 340 339 340 340 339 338 335 336 335 334 333 332 331 331 331
333 345 344 343 342 340 333 327 325 325 326 328 327 328 327 327 327 327 329 330 331 332 333 333 333 333 334 335 336 337 339 340 339 338 336 334 333 332 332 331 330 329 328
340 345 344 345 344 341 338 336 333 329 326 326 327 326 326 326 326 327 327 328 329 330 330 330 330 330 331 333 333 334 335 335 335 336 335 333 332 330 329 328 328 327 327
342 343 345 345 345 341 339 340 335 333 328 326 326 328 329 330 329 327 325 325 325 324 326 324 324 324 324 325 330 333 333 332 333 334 332 331 329 328 327 326 326 326 325
342 343 345 343 343 342 341 337 335 333 330 329 327 328 330 327 326 325 324 323 321 321 321 321 321 322 322 322 322 322 326 332 331 328 329 328 327 326 324 324 324 324 325
343 344 345 344 345 342 341 338 338 335 332 330 330 332 328 326 327 326 325 323 322 322 322 322 323 322 324 324 321 321 322 323 325 326 327 328 325 324 323 323 322 323 322
344 344 344 344 344 344 342 339 339 336 335 331 329 330 327 326 327 326 324 323 322 322 322 322 323 322 322 322 320 318 318 318 318 317 314 315 315 318 320 320 321 320 320
343 341 340 343 341 340 339 339 339 337 336 334 330 328 327 326 327 327 326 324 323 322 322 322 322 322 321 321 319 316 314 313 311 310 309 308 307 306 305 315 320 318 321
340 337 340 336 335 337 338 341 338 337 336 334 333 329 327 326 326 326 325 325 324 323 323 322 322 321 321 320 319 319 318 316 316 315 313 310 309 307 305 304 311 312 314
338 336 333 332 333 338 340 339 339 337 335 334 334 330 328 327 326 326 326 325 324 323 321 321 320 319 317 312 311 315 316 316 314 316 315 313 312 311 310 311 305 310 311
335 337 336 336 337 336 336 337 340 338 336 334 333 331 329 329 328 326 325 326 325 325 323 321 318 313 309 309 308 307 306 310 313 314 314 312 310 309 309 310 310 307 308
339 339 337 334 333 333 335 334 339 337 336 334 333 331 330 329 327 327 325 326 326 324 322 318 313 308 310 309 307 307 310 311 311 311 310 310 309 310 308 309 310 310 309
336 335 335 336 336 334 334 335 336 335 335 333 332 330 329 329 328 327 326 325 324 323 321 316 308 310 312 310 311 310 309 308 309 309 309 309 308 308 307 307 306 306 307
336 336 336 334 332 333 335 335 335 334 333 331 330 331 328 326 327 326 325 324 322 321 315 308 310 314 315 313 311 310 309 309 308 308 308 307 307 307 307 307 307 306 306
332 330 328 327 329 331 334 334 333 331 333 330 330 329 327 327 325 324 323 322 321 318 312 314 316 314 311 309 309 309 308 307 308 308 308 307 307 307 306 306 307 306 306
328 328 326 325 329 330 331 330 329 331 330 329 328 327 325 323 322 321 321 320 318 312 315 316 314 312 310 309 309 309 309 308 308 308 308 307 307 307 307 307 306 307 306
326 326 324 326 325 327 328 329 329 328 326 325 324 322 321 320 320 320 320 318 312 312 315 315 313 310 309 310 310 310 309 309 309 308 308 307 307 307 307 307 307 306 306
325 325 324 326 325 326 327 327 326 325 323 321 321 319 318 318 318 318 317 315 315 314 314 312 311 310 310 310 310 310 309 309 308 308 308 308 307 307 307 307 307 306 306
326 325 325 325 321 319 319 319 317 316 314 312 313 312 305 306 310 312 312 311 312 311 311 310 310 311 311 311 310 310 310 310 309 309 308 308 308 308 307 307 307 307 307
325 320 317 315 313 312 311 311 311 312 312 313 313 312 309 310 310 310 309 309 309 310 309 310 310 310 310 310 310 310 310 309 309 309 308 308 308 308 309 308 307 307 307
322 317 315 315 313 312 313 314 314 314 314 314 313 312 311 312 311 310 310 310 310 310 310 310 310 310 310 310 310 310 309 309 309 309 308 308 307 307 307 308 307 307 307
322 319 316 316 315 313 314 315 315 315 315 315 315 313 311 310 312 312 312 312 311 311 309 307 308 309 308 307 308 307 307 307 307 306 306 307 307 307 306 306 305 304 304
323 320 318 317 316 316 316 317 317 317 318 318 318 317 316 313 313 312 311 310 310 309 307 307 307 308 309 309 307 307 307 307 307 306 306 305 303 302 300 298 297 297 298
323 321 320 318 318 317 317 316 316 317 317 317 316 316 316 316 315 314 312 310 308 309 309 309 308 309 307 307 307 307 307 306 305 304 302 297 294 293 294 294 294 295 295
322 320 318 315 316 315 313 315 315 317 317 316 315 314 314 314 313 313 312 312 310 308 309 309 308 308 307 307 306 306 305 302 297 293 292 292 293 293 293 293 293 294 294

GFSGL_850_thetae_045.txt.gz
Theta_e
341 345 345 346 343 341 341 341 340 339 342 341 341 339 340 336 333 338 338 336 341 343 343 342 342 341 341 339 340 340 340 340 340 337 337 335 335 335 334 333 332 331 331
335 345 346 345 343 341 340 340 339 338 339 339 339 339 338 337 337 337 337 337 335 335 334 337 338 337 338 340 340 340 341 340 338 338 336 334 334 333 332 332 331 331 331
334 345 345 345 344 342 341 340 339 338 337 338 337 337 337 336 336 335 336 336 335 333 334 333 333 335 336 338 339 340 339 339 338 338 335 333 332 331 331 330 330 330 329
341 344 345 345 344 343 342 341 339 337 338 337 336 335 335 335 334 333 334 333 334 332 328 327 326 328 334 335 336 335 335 336 337 336 334 333 331 330 329 329 328 327 326
346 346 346 346 344 343 342 341 340 339 338 337 336 335 334 333 332 330 333 333 331 332 328 323 322 323 324 329 333 333 332 333 335 334 332 331 329 329 328 327 326 325 324
342 344 347 346 345 343 342 343 340 338 339 338 337 336 333 328 326 326 329 329 328 328 328 328 325 325 322 322 323 328 332 332 330 329 328 327 326 325 324 327 324 323 325
344 345 346 344 344 345 343 344 341 340 339 337 337 336 334 327 327 326 326 328 328 326 327 327 327 327 328 326 322 322 323 325 329 328 328 328 326 326 325 325 325 325 325
345 345 345 345 344 345 345 343 340 339 337 333 336 335 333 327 327 325 326 329 329 328 328 325 322 322 323 324 318 317 316 318 319 317 316 316 313 314 323 321 319 319 321
341 341 343 344 346 344 345 342 343 340 338 335 334 335 331 327 327 326 329 330 329 328 325 324 323 322 321 321 320 317 315 313 311 310 309 308 307 305 305 316 322 316 320
332 340 344 343 346 344 338 342 341 340 338 336 335 335 332 327 327 327 328 328 327 326 325 323 322 322 321 320 323 322 321 320 319 318 316 314 314 312 311 306 313 314 315
334 342 342 340 339 337 337 340 341 340 338 336 333 332 328 328 327 327 327 327 325 325 325 324 322 320 318 314 314 319 321 317 316 319 318 316 314 313 313 313 306 312 312
337 337 337 335 338 335 338 341 341 340 337 336 333 332 329 328 329 328 326 326 325 325 323 322 321 317 313 312 311 308 309 314 315 316 316 315 312 312 311 312 313 308 309
336 336 336 336 336 337 339 338 341 339 336 335 332 332 329 329 329 327 327 326 326 325 323 322 318 312 313 312 307 309 312 313 313 313 313 312 311 311 310 311 310 311 311
338 338 337 336 333 333 335 337 338 337 335 333 332 332 329 328 327 328 327 326 325 325 323 320 314 312 315 314 313 312 311 310 311 311 311 311 310 310 310 309 309 308 308
337 336 335 335 335 335 333 333 335 336 335 334 333 331 329 329 328 326 324 322 324 318 322 316 310 314 317 316 314 312 311 312 311 310 310 310 310 309 309 309 309 309 309
335 334 334 332 333 333 333 335 336 334 334 333 331 330 329 328 327 327 325 325 322 321 315 313 316 318 316 313 312 312 311 310 311 310 310 310 310 310 309 309 309 309 309
332 330 330 330 329 330 332 334 334 334 332 332 331 329 329 328 326 324 323 322 321 319 316 318 319 316 313 311 311 311 312 311 310 310 310 310 309 309 309 309 309 309 309
328 328 329 329 328 328 330 332 330 330 331 330 329 328 326 324 323 321 321 320 319 315 316 318 318 315 312 312 312 312 312 312 311 310 310 310 310 309 309 309 309 308 308
328 328 326 328 328 328 327 329 329 328 327 324 323 324 322 321 320 320 320 319 316 316 316 317 316 313 312 313 313 312 311 311 310 309 310 310 310 309 309 309 309 308 308
327 327 327 328 328 327 328 328 328 328 327 325 320 319 317 318 318 318 318 317 317 317 316 315 313 312 313 313 313 313 312 312 312 312 311 310 310 310 309 310 310 309 308
328 327 326 327 329 326 325 325 324 323 321 316 315 316 310 311 314 314 314 314 313 314 313 313 313 313 313 313 312 313 312 311 311 310 310 310 310 309 308 308 307 308 309
327 326 324 322 320 317 316 315 314 314 315 316 316 314 312 313 314 314 313 313 313 313 312 312 313 313 312 312 312 312 312 311 310 310 310 310 309 309 308 308 308 308 308
325 323 322 318 318 316 314 316 316 316 316 316 316 314 313 313 315 314 314 314 313 313 313 313 312 312 312 312 311 311 310 311 310 310 309 309 309 308 307 306 305 304 303
325 322 321 318 317 316 315 315 317 317 318 318 317 316 314 314 314 315 315 315 314 314 313 312 310 311 311 310 310 309 308 308 306 307 306 306 306 304 302 300 299 298 298
326 323 321 319 317 317 316 316 318 318 319 319 318 318 318 318 317 316 316 314 313 312 310 310 310 311 311 310 308 307 307 307 307 306 306 303 299 297 297 297 297 297 297
325 325 324 321 318 318 318 318 317 318 317 317 318 318 318 317 317 316 315 315 313 312 312 311 310 309 309 308 307 307 307 306 306 303 297 293 295 296 296 297 296 296 296

GFSGL_850_thetae_048.txt.gz
Theta_e
346 343 346 345 343 336 339 336 335 339 341 339 339 339 339 338 337 339 338 334 335 337 338 340 340 341 341 340 341 340 341 340 340 337 336 335 335 335 335 334 332 331 331
343 341 341 343 342 341 340 334 337 339 338 339 339 337 336 336 337 337 335 333 333 336 336 337 338 336 337 338 340 341 340 341 339 337 336 335 334 334 333 332 331 331 331
338 341 343 345 343 342 342 339 337 338 338 337 336 337 336 336 336 336 336 334 332 332 331 333 337 337 337 337 337 338 339 339 339 338 336 333 332 332 332 331 331 330 329
342 346 344 345 343 342 341 340 338 338 338 336 336 336 336 336 334 334 333 334 332 324 323 324 329 333 334 334 335 333 336 336 335 335 335 333 332 331 330 330 329 328 327
343 345 346 345 343 343 342 341 340 340 338 336 336 336 334 333 329 334 333 331 332 325 323 323 322 323 328 328 332 333 332 334 334 334 333 332 331 329 328 327 326 325 324
346 343 345 345 343 343 341 342 340 339 335 337 338 337 333 327 326 330 329 327 327 327 326 326 327 325 323 324 330 333 333 330 329 329 328 327 326 325 324 324 323 323 323
343 345 344 342 344 344 343 342 342 339 336 337 336 336 332 327 327 326 328 328 327 327 328 327 328 328 325 322 322 322 325 327 327 328 329 328 328 326 325 325 325 326 324
345 344 344 341 341 341 343 343 342 340 338 336 336 336 333 327 327 326 328 329 327 327 325 323 323 323 323 320 318 317 317 319 318 323 320 319 313 317 322 319 322 322 321
344 343 343 340 341 340 341 343 342 341 339 336 336 335 334 327 327 327 330 331 329 328 326 324 323 322 322 322 320 318 316 316 313 312 311 310 310 307 308 316 318 316 317
342 342 337 335 339 343 344 343 342 341 340 339 335 335 334 328 327 327 329 330 329 327 324 323 323 322 321 322 324 323 322 320 320 316 316 314 314 313 313 305 313 313 314
338 335 332 335 340 338 338 339 340 341 341 339 336 335 334 330 327 327 328 330 328 325 326 326 323 321 319 317 318 323 324 313 318 319 319 315 315 314 313 311 305 307 312
336 332 332 336 337 337 335 335 338 339 341 339 336 335 333 330 329 327 327 327 326 327 326 325 323 321 316 314 313 309 310 315 316 317 317 315 313 312 312 310 309 309 309
336 338 339 336 336 336 335 339 339 340 341 339 336 334 332 331 329 329 328 327 326 326 326 325 324 320 314 313 310 311 313 314 313 314 313 312 312 311 310 310 309 310 309
337 334 334 334 335 335 336 336 338 338 338 339 336 333 331 330 329 329 327 326 326 326 326 324 322 316 315 315 313 312 312 311 312 312 312 311 310 310 310 310 310 309 309
338 338 338 337 336 336 335 334 334 337 336 337 335 334 332 330 329 327 328 327 327 326 325 323 319 313 316 317 314 313 312 312 311 311 311 311 310 310 310 309 309 309 309
335 335 334 334 334 334 334 334 333 334 334 335 333 332 331 330 330 328 326 326 324 323 321 320 315 318 319 318 315 313 312 311 311 311 311 310 310 310 309 310 309 309 309
334 332 332 330 331 330 330 333 333 334 334 332 332 332 331 330 328 328 326 325 324 323 320 316 318 319 318 314 312 312 312 312 309 311 311 310 310 310 310 310 309 309 309
328 330 330 331 330 328 328 330 331 331 332 332 331 331 330 329 328 326 325 323 323 322 319 318 318 319 316 313 312 312 312 312 312 311 311 311 310 310 310 310 309 309 309
331 329 329 329 328 327 327 327 330 329 330 330 330 330 329 328 326 324 323 321 321 321 317 318 318 318 315 312 313 313 313 312 312 311 309 311 310 310 310 310 310 310 309
330 329 328 327 326 327 327 328 326 328 329 328 327 324 325 325 323 322 321 321 319 317 317 317 318 316 313 313 314 313 313 312 312 312 312 312 311 310 310 309 309 308 309
330 329 329 327 326 329 329 328 329 329 329 328 326 321 317 319 317 318 319 320 318 318 318 317 315 314 313 314 314 314 313 312 312 312 311 311 311 311 310 309 308 308 308
329 328 328 327 326 327 327 326 327 327 327 326 320 317 316 308 315 315 315 314 314 314 314 314 314 314 313 314 314 313 313 312 312 311 311 311 311 309 309 309 308 308 308
328 327 327 326 323 322 319 318 316 316 316 316 317 317 316 313 315 315 315 314 314 314 314 313 313 314 313 312 313 313 313 312 312 311 311 310 309 309 309 308 307 306 304
327 327 327 325 322 319 318 316 315 316 316 317 317 316 316 314 314 316 315 315 314 314 314 314 313 313 312 312 312 312 312 311 310 310 309 307 306 306 306 304 302 301 298
327 327 327 325 321 319 318 317 316 316 318 318 318 316 314 313 315 315 316 316 315 315 315 314 314 313 312 311 311 311 311 311 308 307 307 306 306 304 301 298 297 298 298
328 327 326 326 323 320 318 317 316 315 317 318 318 318 318 317 318 318 317 316 315 315 315 313 313 311 312 312 311 311 310 309 307 307 306 304 299 294 297 297 298 298 297

GFSGL_850_thetae_051.txt.gz
Theta_e
346 341 341 344 337 341 339 336 335 336 338 338 338 338 338 337 337 336 332 334 336 338 336 336 339 340 340 340 341 340 342 341 340 336 335 334 335 335 335 333 332 331 331
345 341 338 343 335 338 338 333 334 335 337 339 337 336 335 336 337 335 331 333 330 331 333 334 334 337 337 340 340 340 340 340 340 336 334 334 334 333 333 332 331 330 330
342 339 339 342 338 340 339 334 333 335 335 335 336 335 334 335 335 335 333 329 327 328 331 333 334 335 336 335 337 339 340 338 338 337 335 334 333 332 332 331 331 330 329
339 340 342 342 341 340 339 336 335 335 334 333 333 334 334 331 332 332 332 329 323 322 324 328 331 332 333 332 331 335 334 335 335 335 335 333 333 332 332 331 330 328 327
339 344 342 342 342 340 339 339 338 337 335 333 332 335 333 331 329 331 329 328 323 323 323 322 323 325 327 331 331 330 334 334 334 333 333 332 332 331 329 328 327 325 324
343 344 346 344 343 341 341 341 339 338 334 335 337 335 332 327 329 330 327 326 325 326 326 325 324 323 324 325 326 327 328 329 331 331 330 328 326 324 324 323 323 323 323
342 345 346 344 342 341 342 342 341 339 335 337 337 335 333 326 327 327 327 325 325 327 327 326 325 324 322 322 322 323 324 326 327 328 327 327 326 324 324 324 323 324 324
344 344 343 341 340 337 342 342 341 340 337 336 335 335 333 327 327 327 327 327 327 325 327 326 324 323 321 319 319 319 319 320 325 325 324 322 317 323 323 321 321 322 320
346 345 343 342 341 337 338 342 341 340 340 338 335 335 334 327 327 326 328 329 328 327 325 323 322 322 322 320 318 316 315 314 312 312 311 312 310 305 311 318 319 316 317
342 344 342 340 339 337 337 334 337 341 339 338 336 335 335 332 327 327 330 330 329 327 324 324 323 322 322 322 323 322 320 316 316 315 314 314 313 313 312 307 315 313 320
340 342 339 336 334 332 333 334 333 340 339 339 336 336 335 333 327 327 329 329 329 327 326 324 322 321 320 322 323 322 321 316 318 319 318 317 315 313 312 311 305 306 311
339 337 333 331 333 337 338 335 331 334 339 337 337 336 336 334 330 326 328 329 329 326 327 326 324 322 318 315 313 311 311 315 317 317 318 317 313 312 310 309 309 309 309
336 336 335 332 337 336 338 336 335 334 334 335 339 337 336 335 332 329 326 326 326 326 327 325 325 322 317 314 311 313 314 313 314 315 313 312 312 311 310 310 309 309 308
342 341 338 338 336 335 336 336 336 339 340 341 339 338 335 333 331 329 328 328 327 326 325 325 324 320 315 315 311 312 312 312 312 312 311 311 310 310 310 310 309 309 309
335 339 337 337 336 335 335 335 334 335 335 336 336 337 335 333 332 330 328 328 327 326 326 325 324 320 315 314 313 313 312 311 311 310 311 310 310 310 310 309 309 309 309
333 333 332 333 333 332 332 332 333 333 333 334 334 336 334 332 331 331 328 326 326 326 326 324 324 321 316 317 314 313 312 312 311 311 311 311 310 310 309 310 309 309 309
326 326 331 331 331 330 329 329 330 332 333 333 334 334 333 333 331 330 330 328 326 324 323 322 320 317 318 318 318 314 312 312 311 311 311 310 310 310 309 309 309 309 309
330 327 325 325 329 329 329 328 327 329 330 332 333 332 332 331 330 329 328 327 326 325 323 322 317 318 318 318 312 312 313 312 312 310 310 310 310 310 309 310 309 310 310
331 330 329 328 327 327 327 327 327 327 328 331 330 331 331 330 330 328 328 327 325 324 324 322 318 318 319 315 313 312 312 312 312 312 311 311 310 310 310 310 309 309 309
328 326 327 327 328 326 325 326 326 326 326 327 328 329 329 329 328 329 328 326 323 322 322 322 317 318 317 313 314 312 313 313 312 312 311 311 310 310 310 310 310 309 308
330 328 325 328 328 327 326 327 328 328 328 328 327 327 326 321 317 325 326 323 321 322 318 318 317 317 315 315 313 313 313 313 312 312 312 312 312 311 310 310 309 309 308
330 330 326 328 327 325 326 327 325 325 327 327 328 328 324 317 310 313 313 312 318 321 318 318 317 318 315 314 313 313 313 313 312 313 313 313 312 311 310 310 308 307 309
329 327 328 326 326 326 325 323 320 317 317 319 323 324 318 318 315 314 315 315 313 316 315 314 314 314 314 313 313 314 314 312 313 312 311 311 310 310 310 309 306 306 307
329 328 326 325 326 325 324 321 318 316 316 316 317 317 316 317 315 315 315 316 315 314 314 314 314 313 313 313 313 313 313 313 312 313 312 311 311 310 307 306 306 305 304
326 326 327 326 325 326 324 322 319 317 315 317 317 317 316 315 313 313 316 316 316 316 314 314 314 314 314 314 313 313 312 312 312 312 311 309 307 307 306 306 304 300 297
326 326 326 326 325 323 323 323 320 317 316 316 316 317 317 315 314 314 316 316 316 314 314 314 314 314 314 313 312 311 311 311 311 310 309 307 307 306 304 298 296 297 297

GFSGL_850_thetae_054.txt.gz
Theta_e
346 343 339 341 337 334 339 335 334 335 336 337 336 337 337 336 335 330 331 332 332 332 336 340 340 339 339 341 340 341 340 340 340 336 334 332 334 335 334 334 332 331 330
347 342 340 341 332 338 337 332 334 333 334 336 335 335 336 336 334 329 329 330 331 333 333 335 337 337 339 339 339 340 341 341 340 336 333 332 334 334 333 331 331 330 329
346 342 339 341 335 336 337 333 336 336 336 335 335 334 333 333 331 330 327 327 329 331 333 333 335 334 335 337 339 339 340 340 340 337 334 333 333 333 332 331 330 329 328
344 339 337 342 340 337 338 335 335 335 333 333 332 332 332 332 331 330 325 323 323 326 329 331 332 333 329 331 334 335 337 338 336 335 334 333 333 332 331 330 329 328 326
340 339 341 342 342 340 339 337 337 337 335 332 330 333 333 330 331 330 328 322 322 322 324 325 324 326 330 330 330 332 333 334 333 333 333 333 332 332 330 329 328 325 323
337 340 342 343 343 342 340 338 338 337 335 333 332 332 330 328 330 329 327 324 324 324 323 323 323 325 326 326 326 327 330 332 332 332 331 331 331 329 327 326 325 323 323
341 343 343 344 344 342 341 340 339 337 335 335 336 335 334 327 329 328 326 325 326 326 326 325 323 322 322 322 322 322 324 326 328 328 328 326 325 324 323 323 323 323 324
342 339 343 342 342 341 339 336 336 338 337 335 336 336 334 326 327 327 327 326 326 326 326 325 324 322 321 320 320 320 320 323 325 326 325 324 322 323 322 323 322 321 320
342 342 343 342 341 339 339 338 335 334 338 337 335 336 334 327 326 327 327 327 326 325 324 323 323 322 320 318 317 316 314 316 312 310 310 309 308 306 310 320 320 322 319
343 343 342 343 340 336 338 337 334 333 334 336 337 336 335 333 326 326 328 329 329 327 325 324 323 322 322 321 320 319 317 315 313 313 313 312 311 311 310 307 312 316 314
336 337 340 339 335 333 334 334 333 334 331 330 336 336 335 335 331 326 329 329 329 328 326 324 323 322 322 321 321 321 316 315 315 315 315 315 314 312 311 310 306 307 316
336 338 337 332 332 333 336 336 332 330 330 333 336 334 336 335 334 326 327 329 328 329 327 326 323 322 320 320 318 317 319 317 318 319 319 319 318 311 310 309 309 309 309
337 338 336 334 332 332 337 336 336 333 331 333 332 334 336 336 335 333 326 327 328 328 326 326 325 323 318 314 312 309 312 315 315 316 316 317 312 310 310 310 309 308 308
342 341 338 337 335 336 336 336 337 337 337 336 335 336 337 335 335 334 330 326 326 326 326 326 325 324 319 314 311 312 313 312 313 313 312 311 310 310 310 309 309 309 309
337 338 337 337 336 335 335 335 335 335 336 338 339 339 339 337 336 334 331 329 328 327 326 325 325 325 319 314 312 312 312 310 312 311 311 310 310 310 309 309 309 309 309
325 323 324 327 331 330 331 330 329 331 334 334 335 335 336 336 336 333 331 328 327 327 326 326 325 324 320 315 312 312 312 311 311 310 310 310 310 310 310 309 309 308 309
330 329 328 325 325 329 328 328 328 328 330 331 331 334 334 334 333 333 331 329 327 326 325 325 325 323 322 315 314 313 312 312 311 310 310 311 310 309 309 309 309 309 309
326 329 327 327 327 326 327 326 326 326 326 328 330 332 333 333 333 331 331 330 328 327 325 324 323 322 320 315 317 317 317 314 311 311 311 310 310 310 309 309 309 309 309
327 326 323 324 326 327 326 325 325 325 326 326 328 330 330 331 331 331 330 328 329 328 327 324 323 322 317 316 318 316 312 313 311 312 311 311 310 310 309 309 309 309 309
329 329 328 328 325 326 328 326 325 325 327 326 326 327 328 330 330 330 329 328 328 327 326 325 324 323 317 318 318 315 312 312 312 312 312 311 310 310 310 310 310 309 310
330 330 329 329 325 324 327 325 326 327 328 326 327 328 328 327 328 327 324 324 325 326 326 324 322 322 322 318 317 313 312 313 312 313 312 311 311 310 310 310 310 310 310
329 329 329 329 327 325 324 326 325 326 326 321 322 322 326 327 320 317 311 320 324 324 321 321 321 320 318 317 316 313 313 313 313 313 312 311 312 312 312 312 310 310 309
326 328 329 328 328 327 325 325 325 324 322 317 317 317 324 324 321 317 311 314 314 314 316 321 317 317 316 316 317 313 314 313 313 313 311 312 313 313 313 312 311 310 308
324 324 326 327 327 327 327 326 325 323 321 316 316 316 316 319 320 320 313 315 315 315 315 317 315 314 314 316 317 314 313 313 314 314 313 313 312 311 311 311 310 307 306
322 323 323 325 325 324 325 325 323 322 319 318 317 316 316 318 320 321 313 315 315 315 315 314 314 314 314 314 314 313 314 314 314 313 313 312 312 311 310 309 307 306 306
318 318 321 325 324 323 323 323 320 320 319 316 316 316 317 317 317 317 314 313 314 315 316 316 315 313 313 313 313 313 313 312 312 312 312 311 310 310 309 306 306 306 303

GFSGL_850_thetae_057.txt.gz
Theta_e
345 344 343 339 339 336 338 335 333 334 336 336 335 336 337 335 333 329 332 334 335 335 338 340 339 338 340 342 342 342 341 339 339 336 336 334 334 334 333 333 332 331 330
346 344 341 337 337 336 336 333 333 335 336 336 336 335 334 333 329 329 331 332 334 334 334 335 338 338 339 341 340 341 339 339 339 338 335 334 334 334 334 332 331 330 329
346 345 341 338 336 335 336 333 335 334 335 335 334 333 332 332 330 328 328 329 331 332 333 334 333 334 338 339 339 341 340 340 340 339 334 333 333 332 332 331 330 329 328
345 344 341 340 339 335 337 334 334 335 335 335 333 332 332 331 330 327 323 324 328 331 331 332 332 330 333 336 338 339 339 339 339 336 334 331 333 332 330 330 330 328 326
342 341 338 338 340 339 338 337 335 335 334 333 332 331 331 329 330 328 324 322 323 325 328 326 327 329 328 328 331 332 335 337 335 333 333 331 332 331 330 329 329 327 324
340 339 338 340 341 341 341 339 337 337 336 333 332 333 330 328 329 329 327 323 323 322 323 323 325 326 326 326 328 332 333 333 333 332 332 332 332 331 330 328 327 324 322
344 337 339 342 342 341 339 339 336 336 337 335 333 333 332 330 328 328 326 325 324 325 325 323 323 323 323 322 323 325 328 330 331 331 331 330 330 328 326 326 323 323 323
345 341 340 343 342 338 340 339 337 334 335 337 336 336 335 333 327 328 327 326 325 326 326 325 322 321 321 321 321 321 322 325 327 326 326 325 324 323 323 323 323 323 323
345 344 341 340 342 339 339 339 338 337 333 336 336 336 336 334 327 327 327 327 326 326 326 325 323 322 321 320 319 318 318 320 322 322 321 318 314 320 321 321 319 320 320
343 342 342 340 339 335 333 334 337 336 334 334 334 335 335 335 329 326 327 327 327 327 325 323 323 322 321 320 317 318 317 314 312 311 311 310 308 308 309 311 313 318 318
342 341 339 339 336 333 333 335 332 334 333 332 332 332 335 334 333 328 326 328 329 329 327 324 323 323 322 322 321 320 316 314 313 313 313 312 312 311 311 309 306 307 313
337 336 338 336 332 332 332 336 333 330 334 332 331 334 334 335 334 332 327 327 329 329 328 326 324 323 322 321 321 321 319 315 314 314 315 315 315 312 310 308 307 308 312
337 338 337 335 332 332 332 335 336 334 329 330 330 331 332 333 335 334 329 326 327 329 329 327 325 325 323 320 320 316 317 318 317 317 318 318 317 313 309 309 308 308 309
341 338 338 337 336 336 336 336 336 337 336 334 333 334 334 334 336 336 334 330 326 328 329 327 325 325 323 318 314 314 310 312 314 315 316 316 314 311 310 309 309 308 308
334 331 331 333 335 335 333 333 333 334 334 336 337 336 336 337 337 336 335 334 330 326 327 326 325 325 324 321 315 312 311 312 312 313 314 313 311 310 309 309 309 309 308
327 325 323 323 323 326 326 328 329 329 328 332 334 336 335 336 336 336 336 333 331 329 326 326 326 325 325 324 317 313 312 312 311 311 311 311 310 310 309 309 309 308 308
325 325 324 323 324 325 325 325 325 325 325 326 329 331 332 334 334 334 335 333 329 328 328 327 326 326 325 324 318 314 311 311 311 310 310 310 310 310 310 309 309 308 308
327 326 320 324 324 323 326 325 325 325 324 324 325 327 328 332 333 333 333 333 330 327 326 326 325 324 325 324 320 314 312 312 312 311 311 310 310 310 309 309 309 309 309
328 329 328 327 327 325 326 326 326 324 324 325 325 326 327 330 331 331 331 331 331 329 329 327 325 324 323 322 322 315 314 313 314 313 311 311 310 310 309 309 309 309 309
329 330 330 329 329 328 325 326 326 325 326 326 327 327 326 326 327 328 330 329 330 330 329 327 328 325 324 322 320 316 315 317 317 316 315 311 311 310 310 310 309 309 309
326 327 329 329 328 329 326 324 325 325 325 326 326 323 320 325 328 327 327 327 324 324 325 327 327 326 325 323 321 316 316 318 317 313 312 312 311 311 310 310 309 309 309
325 325 326 328 328 328 327 327 326 325 325 324 324 321 318 317 322 325 324 318 314 314 320 321 322 324 323 322 322 321 317 318 318 313 314 312 312 312 310 310 310 310 310
323 324 325 325 326 327 326 326 326 326 325 324 321 317 316 316 320 322 323 318 312 313 313 315 316 318 320 320 319 320 318 317 317 312 313 312 312 312 311 311 311 310 311
322 322 323 323 323 324 325 325 324 324 324 322 320 319 317 316 317 317 318 320 314 315 315 314 316 318 318 317 317 317 317 316 316 314 313 313 313 312 311 312 312 312 312
316 317 317 318 321 323 323 324 323 324 323 321 320 319 317 316 317 317 320 321 319 314 315 315 316 317 317 315 314 314 316 316 316 314 313 313 313 313 312 312 312 311 310
318 318 319 321 323 324 322 322 322 320 320 319 318 318 318 316 316 316 317 319 315 314 315 315 315 315 315 314 314 314 314 314 314 314 313 312 312 312 312 311 311 311 310

GFSGL_850_thetae_063.txt.gz
Theta_e
348 346 345 344 343 339 335 335 333 332 333 334 334 336 338 336 335 334 331 333 335 336 336 339 339 339 340 342 341 342 341 338 338 336 335 335 334 334 333 332 332 330 329
350 346 344 343 341 339 335 336 332 332 332 333 333 335 334 334 333 329 331 332 332 332 333 336 339 338 339 342 342 342 340 340 338 337 335 335 333 333 332 332 331 329 328
350 346 344 342 339 338 334 334 332 333 332 332 332 333 332 332 331 328 328 329 331 332 333 334 334 335 338 340 341 341 341 340 339 339 336 334 334 333 332 331 330 329 327
348 344 345 341 338 335 333 334 332 334 333 332 331 330 330 330 331 329 324 325 330 332 332 333 332 332 335 338 340 340 340 340 340 338 337 334 333 332 332 331 329 328 325
345 342 344 341 339 338 335 336 335 334 335 334 333 331 330 330 330 329 326 324 327 330 330 329 328 328 334 337 339 339 338 338 338 338 336 334 333 332 331 330 329 327 324
342 341 344 341 340 339 338 338 338 337 335 334 334 332 331 331 329 329 328 322 323 326 327 325 327 328 328 329 331 333 336 339 339 338 336 334 333 333 332 330 328 327 323
342 340 342 338 337 339 339 339 339 338 337 336 335 334 332 332 331 328 329 326 324 323 323 325 326 325 324 325 328 330 331 333 335 336 333 332 332 331 332 330 329 328 327
342 340 339 338 338 340 342 342 339 338 338 338 336 334 334 333 332 330 329 327 325 325 325 323 323 323 322 322 323 324 327 329 330 331 331 330 330 331 331 330 329 327 325
344 343 341 338 339 340 341 341 339 336 337 337 337 336 336 334 334 332 329 328 327 326 326 325 324 322 322 322 321 321 322 324 326 328 330 330 329 327 327 326 325 325 325
345 344 342 341 339 340 340 332 331 330 332 332 336 334 333 335 335 333 329 328 327 327 326 326 325 323 322 321 321 319 319 320 322 323 325 325 325 324 322 322 324 324 326
343 343 342 341 340 339 332 332 334 333 332 332 332 331 334 334 334 333 330 328 327 328 328 327 325 323 322 322 320 318 317 317 316 315 314 314 312 311 314 317 320 322 322
343 343 343 341 339 337 333 332 334 334 334 331 331 331 332 333 332 330 332 331 327 328 328 329 328 324 323 323 322 320 320 318 315 313 312 311 311 309 310 311 309 308 309
342 340 338 338 337 335 332 332 334 334 334 333 330 330 331 332 333 331 330 332 332 327 327 329 329 326 324 323 322 322 321 320 316 313 315 315 314 314 312 312 309 307 307
340 338 337 336 334 333 333 334 334 335 335 334 334 333 331 331 331 331 331 330 330 332 329 327 329 329 327 325 322 322 321 321 321 318 316 316 316 315 315 316 310 309 312
337 337 336 335 335 334 330 328 330 331 332 331 331 331 333 334 334 335 335 334 334 333 332 329 327 328 329 327 324 323 322 321 321 320 318 318 317 317 318 318 316 311 311
335 332 328 327 327 326 323 323 323 324 324 324 325 325 327 328 330 332 333 333 334 334 333 333 332 330 327 328 328 326 324 324 321 317 312 314 315 315 316 316 316 311 310
325 324 323 323 322 321 321 322 326 324 324 323 324 323 324 324 325 326 327 330 331 333 333 331 332 331 330 327 328 328 326 325 324 318 312 312 313 313 314 315 313 310 311
321 323 325 326 327 326 324 321 321 326 328 327 324 324 324 326 326 325 326 327 330 332 331 332 331 330 330 329 327 327 326 325 324 317 312 312 312 312 313 313 312 311 311
329 329 329 329 329 328 328 327 324 324 325 327 326 326 325 326 323 323 325 326 326 327 329 330 330 330 328 327 328 327 325 322 322 319 312 312 312 311 312 312 312 311 311
330 329 328 328 328 328 330 329 330 328 328 328 326 326 327 324 325 325 320 319 323 326 327 327 328 329 328 327 328 325 323 324 324 323 318 311 313 312 312 312 312 312 311
326 325 325 324 324 325 329 330 326 326 327 328 328 327 323 322 320 319 321 321 317 320 325 325 322 318 320 320 320 322 324 323 324 322 321 319 312 314 313 313 312 312 312
322 322 322 322 323 324 325 325 327 328 327 327 327 326 324 321 320 318 317 317 319 321 323 323 319 315 317 318 318 320 322 322 322 323 323 320 316 313 313 313 312 313 312
316 316 319 321 322 322 322 323 324 325 327 326 324 322 321 320 320 318 317 317 317 317 319 321 320 315 316 317 316 316 318 319 319 318 320 320 319 317 314 313 313 313 312
316 315 315 316 317 317 321 321 323 324 324 324 323 321 320 318 317 317 316 316 316 316 318 320 319 316 315 315 315 315 315 315 315 317 318 318 317 317 316 314 314 315 312
319 319 320 320 321 322 323 323 322 322 320 320 319 318 318 318 318 317 316 316 315 315 315 315 314 314 315 315 315 314 314 314 314 313 313 313 314 315 316 315 316 315 312
316 318 318 319 319 319 320 320 319 318 318 316 315 315 314 314 313 313 313 312 313 313 313 313 313 312 311 311 312 312 313 314 314 314 314 313 313 313 314 315 314 313 314

GFSGL_850_thetae_066.txt.gz
Theta_e
352 350 348 348 346 340 340 331 334 330 331 340 341 342 341 342 338 338 338 338 340 340 339 339 340 340 342 341 343 341 341 342 339 337 336 335 335 335 335 334 332 331 330
353 351 349 349 347 345 344 337 333 332 334 338 339 341 341 340 337 335 337 337 339 340 341 340 340 341 341 342 343 342 342 340 339 338 336 335 334 334 333 332 330 329 329
355 352 350 350 347 346 344 342 336 339 339 340 341 340 340 339 335 331 330 333 335 337 339 341 342 340 339 340 342 342 342 340 340 339 337 336 334 333 332 331 331 329 328
355 352 349 349 347 345 343 343 341 341 341 340 340 340 340 338 336 330 327 325 332 331 330 334 337 340 341 339 343 341 342 341 340 339 337 336 334 333 332 331 329 328 326
355 351 349 349 347 345 344 342 342 341 341 341 340 339 336 338 336 330 328 326 332 335 333 335 333 329 333 338 342 340 340 341 340 339 338 336 334 333 332 331 329 326 326
355 350 349 348 347 346 344 343 342 341 341 338 338 335 335 335 335 329 330 333 333 335 336 334 328 328 328 331 336 339 338 338 339 338 338 337 335 333 332 331 326 327 325
354 349 348 348 346 345 345 344 344 343 341 339 338 336 334 332 332 330 329 332 330 331 333 334 332 328 326 326 329 330 333 336 337 337 338 337 335 334 333 332 331 330 327
353 348 348 347 346 346 344 344 344 343 340 341 340 339 336 334 333 331 329 331 331 328 329 330 332 327 324 327 327 328 330 332 334 335 334 334 332 332 332 332 331 330 327
352 348 347 346 346 345 344 344 341 339 337 339 338 337 338 336 335 332 330 331 332 332 329 326 326 326 322 322 330 331 330 329 328 329 331 332 331 331 330 330 329 328 327
350 348 348 347 346 347 344 342 340 331 331 332 336 336 335 334 334 333 333 331 333 333 331 326 326 325 322 322 324 330 330 331 328 325 327 329 330 330 329 329 327 328 327
347 346 346 345 345 345 341 338 331 333 334 335 335 336 334 334 334 334 332 330 333 332 331 330 327 326 324 322 322 328 329 330 324 327 327 327 326 325 324 324 327 327 325
341 340 343 343 343 341 341 334 332 334 335 333 334 334 334 332 334 333 333 333 330 330 331 331 329 328 326 323 322 321 319 319 324 324 322 320 320 321 323 324 324 323 324
340 340 339 342 342 340 339 334 333 334 337 338 335 336 337 333 334 332 332 331 333 332 328 327 328 329 327 324 323 322 321 320 320 319 319 318 317 316 316 314 312 311 309
336 335 335 338 338 337 336 337 338 338 336 335 336 337 337 335 333 333 332 330 330 331 331 329 327 328 329 328 326 325 323 322 320 320 320 320 319 318 317 316 316 313 314
331 329 330 334 337 337 337 337 335 333 333 335 335 333 332 333 334 335 333 334 334 333 332 332 331 328 328 329 329 326 325 322 321 321 321 321 320 320 320 318 317 317 316
328 333 337 337 336 335 332 330 322 324 323 323 324 324 327 326 328 330 331 332 333 333 334 333 333 330 329 329 329 327 325 324 323 323 323 323 322 322 321 320 320 319 317
336 337 335 332 331 330 329 328 329 328 324 324 323 323 323 325 325 324 325 326 327 329 331 332 333 333 331 331 330 328 326 323 322 325 321 321 321 320 320 319 319 320 319
333 329 329 330 330 329 329 328 328 328 328 329 328 325 324 325 326 325 325 326 327 328 330 331 331 330 330 329 328 328 327 327 324 324 324 319 315 316 316 317 317 317 317
324 327 330 331 330 329 329 328 328 328 328 328 327 327 327 325 325 325 323 321 327 327 326 327 327 328 329 329 327 325 324 324 325 324 325 323 318 312 315 316 316 315 315
323 324 326 331 329 329 328 328 327 328 329 329 329 327 327 326 326 326 326 326 324 324 324 325 325 325 323 324 323 322 322 323 323 323 321 321 321 318 319 315 314 314 314
328 329 328 328 328 327 326 326 327 328 328 329 329 328 326 324 324 324 323 324 325 326 325 326 327 324 323 321 320 317 316 319 321 321 322 323 322 321 321 319 313 314 313
324 324 324 324 324 325 325 325 326 327 327 328 328 327 324 324 324 324 324 324 323 323 323 324 324 323 322 321 321 321 319 319 319 320 319 319 319 319 318 316 313 313 314
320 320 320 321 322 323 323 324 325 326 327 326 325 324 323 323 322 322 322 321 321 320 319 318 319 319 318 318 318 318 318 319 318 319 319 318 320 318 318 317 316 314 312
317 319 320 320 321 322 323 324 325 323 324 324 323 322 322 321 320 320 320 319 319 318 317 316 315 315 315 315 315 314 314 314 314 314 314 314 315 315 315 315 314 315 316
318 318 320 321 321 321 322 321 321 320 320 319 318 317 316 316 317 315 315 314 315 313 313 313 311 310 309 310 310 310 310 311 312 313 313 314 314 314 314 313 313 312 313
318 319 318 318 319 319 318 317 316 316 315 313 313 313 315 315 314 313 313 313 312 312 310 309 309 309 310 309 309 308 308 308 309 309 308 307 308 308 308 309 310 310 309

GFSGL_850_thetae_069.txt.gz
Theta_e
354 355 352 351 349 348 348 346 345 345 344 343 343 342 343 342 342 343 342 342 342 341 341 342 343 341 341 342 341 343 342 343 342 337 337 337 336 336 335 335 334 334 333
354 354 353 352 349 348 348 346 345 344 342 343 342 342 341 342 341 341 341 340 341 341 341 340 343 344 343 342 341 343 342 342 342 339 337 337 336 335 334 333 332 330 330
355 355 351 350 350 348 348 345 345 344 344 343 343 342 341 341 340 340 340 340 340 340 341 340 340 340 341 341 341 343 342 343 341 340 338 337 335 335 333 331 330 329 329
351 353 351 350 349 349 347 345 344 344 344 344 343 342 342 341 340 338 337 337 339 339 340 340 340 340 339 339 340 342 343 342 340 340 338 337 335 334 333 332 330 330 328
354 353 351 351 350 349 346 345 345 345 344 343 342 342 341 340 339 339 337 337 338 339 339 339 338 333 331 336 341 340 340 342 341 340 339 337 335 333 333 331 328 328 326
354 353 351 351 349 348 347 346 345 344 343 343 344 342 340 339 337 337 331 337 337 338 338 338 335 327 327 333 337 339 339 339 340 340 340 339 336 336 333 332 329 327 327
354 353 351 351 350 348 347 345 346 346 344 344 344 344 341 338 334 332 330 331 335 336 336 337 336 334 328 330 329 332 337 338 338 337 337 338 338 336 334 332 330 329 329
355 354 352 351 350 349 347 347 349 347 346 346 344 346 340 339 338 334 331 329 331 334 334 335 336 336 335 336 333 334 333 332 334 335 336 336 336 336 334 333 333 330 328
357 353 351 350 349 348 347 348 346 348 348 347 344 346 338 336 336 336 333 330 330 333 334 333 333 335 332 324 334 335 331 332 330 331 334 333 332 332 332 333 330 330 329
356 352 350 350 349 348 348 347 346 338 333 339 338 337 339 335 333 334 334 332 331 334 332 331 326 326 326 322 324 333 333 333 331 326 328 331 332 330 330 330 329 330 329
354 352 351 350 349 348 347 345 339 339 339 337 340 337 340 335 333 334 332 333 331 333 332 333 329 326 326 325 323 331 333 332 331 329 330 329 328 329 329 329 330 330 329
352 352 350 350 348 347 345 343 344 343 337 336 342 338 338 337 333 333 335 335 332 331 333 332 332 331 327 325 323 322 325 327 329 329 329 329 329 328 327 326 325 328 328
352 350 349 349 347 345 343 342 339 337 338 341 340 339 340 338 336 333 332 332 333 331 331 331 332 330 329 328 325 323 322 321 322 326 326 324 322 322 322 324 326 325 321
347 344 344 343 340 340 340 339 340 340 339 338 339 341 340 338 337 335 333 333 332 330 332 332 329 328 328 329 328 326 324 323 321 322 323 323 322 320 318 317 318 317 312
341 338 337 337 338 336 340 341 340 340 338 338 336 336 334 334 336 335 335 334 333 333 332 332 330 331 329 329 328 328 328 327 325 323 324 324 323 322 321 320 319 318 318
336 338 338 339 339 340 341 337 334 334 325 323 326 326 328 328 326 326 328 329 330 330 332 332 331 331 332 332 331 330 328 327 326 325 325 323 323 322 322 321 321 320 319
339 338 339 340 339 337 335 333 334 327 325 323 322 322 323 323 325 326 324 325 325 326 327 328 330 331 331 331 331 330 330 329 328 327 326 325 324 324 323 323 321 322 321
337 335 336 334 333 331 330 329 328 330 331 331 329 327 324 324 325 325 323 324 327 329 327 327 329 330 330 329 330 329 328 328 327 328 326 324 322 323 324 323 322 321 320
331 330 330 331 330 330 330 329 329 328 328 328 330 329 327 325 323 324 325 325 326 327 330 329 328 326 327 326 328 327 326 326 325 324 323 323 323 323 322 320 319 319 318
321 321 321 322 325 320 322 323 326 328 328 328 328 329 328 326 327 326 325 327 327 327 326 328 326 325 323 319 317 316 316 317 320 321 321 322 323 322 321 320 317 316 317
322 323 320 321 322 329 329 329 328 327 327 328 330 330 329 327 326 325 325 325 325 325 325 325 326 324 323 324 324 323 322 320 318 317 318 319 319 320 320 319 319 319 318
325 326 326 327 326 325 326 326 326 326 327 328 328 327 324 325 325 324 323 323 323 323 323 323 323 322 321 320 320 320 320 320 321 321 322 320 320 318 319 318 317 317 317
321 322 322 322 323 323 324 323 325 327 327 327 325 324 323 323 323 322 322 321 320 320 319 319 319 318 317 317 318 317 317 317 316 316 316 316 316 317 317 318 318 317 316
321 321 323 323 324 324 325 324 325 324 324 323 323 323 322 322 320 319 319 319 318 317 317 316 314 313 312 311 311 310 310 310 311 312 312 313 313 314 314 314 314 314 314
318 319 319 320 322 323 323 323 322 322 321 320 319 319 319 318 316 317 317 315 315 313 312 312 312 312 312 310 308 307 307 308 308 308 310 311 310 310 309 309 308 308 309
318 319 319 320 320 319 319 319 319 317 317 316 316 315 314 314 314 314 315 314 313 312 312 311 310 310 310 307 302 302 302 303 304 305 306 309 309 308 307 307 307 306 305

GFSGL_850_thetae_072.txt.gz
Theta_e
355 351 351 349 348 346 344 344 341 343 341 340 343 341 342 342 340 340 340 340 340 338 338 341 340 341 340 340 340 341 342 343 342 340 338 338 337 337 336 336 335 334 334
352 353 351 350 349 349 345 346 343 344 339 342 345 343 340 340 340 341 340 341 341 341 339 340 339 341 342 341 340 340 342 343 343 342 337 337 336 335 335 335 334 334 332
353 353 351 349 348 347 346 347 346 343 344 344 343 342 341 341 339 340 339 341 341 340 339 339 340 339 339 342 340 341 343 342 342 341 339 337 336 335 334 334 332 331 331
351 352 353 348 348 348 346 346 346 341 344 343 343 342 341 341 342 340 340 337 338 340 339 338 338 339 338 339 339 341 343 342 342 340 339 337 336 335 334 332 332 331 331
355 350 353 351 348 348 347 346 345 344 343 343 342 341 341 340 341 339 339 337 337 336 337 336 339 338 331 332 339 342 342 341 342 340 339 338 336 334 334 333 331 331 330
355 350 353 350 350 348 347 346 344 344 343 343 341 341 341 340 338 338 338 336 337 337 336 337 337 335 329 329 336 339 340 339 339 338 339 338 338 336 335 333 331 329 328
356 353 353 351 350 348 347 346 345 344 343 342 343 342 341 341 339 337 334 331 335 336 336 336 335 337 330 331 329 334 337 337 337 337 338 337 338 338 336 333 332 331 329
356 353 354 351 350 347 347 347 344 345 344 342 342 341 342 341 338 337 336 334 329 334 335 335 335 335 334 335 333 333 336 334 336 335 335 334 334 335 336 335 334 331 329
356 355 354 351 350 348 348 346 345 345 344 342 345 342 341 340 336 333 336 333 330 329 332 334 333 334 335 328 335 335 333 330 329 330 332 333 333 333 333 332 332 331 330
356 354 353 352 349 348 347 346 347 346 346 341 341 340 341 337 335 333 334 335 332 330 331 333 332 328 328 325 327 334 334 332 331 328 327 329 332 332 331 330 332 332 330
356 353 351 350 349 349 346 346 346 346 342 342 341 342 339 337 335 333 334 333 331 329 332 332 332 331 327 326 324 327 331 334 334 332 328 327 327 330 330 329 330 330 329
352 350 350 349 348 348 347 347 346 343 342 341 338 340 340 339 337 333 333 334 332 331 330 332 332 332 332 329 326 324 326 331 331 331 329 330 329 328 328 327 326 329 330
341 334 344 349 346 348 345 345 343 343 342 343 341 340 341 341 337 336 333 333 334 334 332 331 332 333 332 331 329 328 325 323 323 325 328 329 329 328 327 327 327 326 325
340 327 341 345 345 345 343 342 343 340 340 341 340 338 339 337 337 337 334 333 332 332 331 332 332 331 330 329 328 328 329 326 325 323 324 325 325 323 322 322 323 325 326
340 340 330 337 338 338 341 341 340 341 341 340 339 337 336 337 335 335 334 334 333 333 332 332 332 332 331 331 330 330 329 328 328 327 325 324 323 323 323 321 321 319 320
341 335 338 339 339 339 340 340 338 337 335 326 335 330 326 324 328 325 324 324 328 329 329 330 331 332 332 331 332 332 330 329 329 328 328 324 324 325 324 322 320 319 319
338 338 338 338 338 338 339 338 331 323 318 319 321 319 318 321 324 324 324 324 325 327 327 327 328 330 330 329 331 330 331 331 330 328 328 326 325 325 325 325 323 322 321
338 338 338 337 337 337 336 334 334 331 330 330 328 325 326 323 323 324 324 324 327 327 329 329 326 328 328 327 326 327 327 328 328 328 328 327 327 326 324 324 323 323 323
330 329 327 326 330 330 329 329 328 329 331 332 330 328 327 325 325 325 325 325 328 327 327 330 328 325 326 325 320 318 317 318 321 323 324 323 322 322 322 322 323 322 322
324 325 328 328 324 320 322 324 324 326 327 329 330 329 328 327 327 328 327 328 328 326 325 326 325 325 324 325 324 322 322 321 320 320 319 318 318 319 320 321 321 320 320
322 322 321 322 323 325 325 326 324 325 326 329 329 329 328 328 325 326 326 325 324 324 325 324 324 323 321 321 323 323 323 322 322 321 321 322 321 320 320 319 317 319 318
325 324 324 325 324 325 326 327 327 327 328 328 328 327 325 325 324 324 324 323 322 321 321 322 320 319 319 319 319 319 319 318 317 318 318 318 317 316 316 317 317 316 318
322 322 323 323 323 323 325 325 325 327 327 326 325 324 324 323 323 322 322 321 321 320 319 318 317 316 315 314 313 313 312 312 311 311 312 313 313 313 313 314 314 314 314
319 321 323 324 324 325 325 325 324 325 324 323 323 323 322 322 320 319 319 318 317 317 315 313 312 312 312 311 309 307 307 306 307 308 309 311 311 310 310 309 309 309 309
318 319 319 323 324 324 323 323 322 322 322 320 320 320 319 318 318 316 315 315 313 312 312 312 313 312 312 311 308 302 302 302 303 303 304 307 309 308 308 308 307 307 307
319 319 319 321 321 321 320 319 319 318 318 317 316 316 315 315 314 314 313 311 309 310 309 308 308 306 306 303 302 302 302 301 301 301 301 302 307 306 306 307 306 305 305

GFSGL_850_thetae_075.txt.gz
Theta_e
349 349 350 349 346 344 342 340 345 345 343 341 342 338 339 341 339 339 340 339 339 339 338 339 340 340 339 340 339 339 341 342 343 341 340 337 337 337 336 336 336 335 335
350 351 349 350 346 345 344 345 342 342 338 336 340 339 340 340 338 339 338 339 341 341 340 339 339 339 339 340 341 340 340 340 342 342 340 337 336 336 336 335 334 334 333
351 353 351 349 348 346 346 344 345 341 339 339 342 342 338 339 339 339 338 336 339 340 338 338 338 339 340 339 340 340 340 341 341 342 341 337 336 335 334 333 333 332 331
350 352 351 350 348 347 346 345 346 344 341 343 344 342 341 340 339 339 338 338 333 336 338 337 337 337 337 337 338 338 341 341 342 340 341 337 336 335 334 334 332 332 331
352 351 350 350 348 347 347 346 346 345 342 342 342 341 341 340 339 339 338 339 334 335 335 337 335 337 336 327 332 340 341 341 341 341 340 338 336 335 333 333 332 332 331
354 353 351 352 351 348 347 345 345 344 342 343 342 342 340 340 339 339 339 338 336 337 336 336 336 335 332 327 333 338 339 340 338 338 339 338 338 337 335 334 333 331 331
355 354 351 350 352 349 347 346 346 344 343 342 342 341 341 340 340 339 337 337 334 336 335 335 333 335 334 333 328 335 337 337 336 337 336 338 338 338 336 334 333 332 332
354 355 354 353 352 350 347 346 346 345 343 343 342 342 341 340 339 337 336 335 331 336 335 335 335 334 334 334 332 331 330 334 335 334 334 334 333 334 336 336 334 332 331
355 353 354 353 352 351 348 347 346 345 343 343 343 342 341 341 337 335 335 336 333 332 333 331 334 334 334 333 331 335 335 330 328 330 331 332 332 333 333 333 334 331 330
358 355 354 354 353 350 347 345 346 344 344 343 343 342 340 339 335 333 333 335 332 330 329 332 332 332 330 329 327 329 332 331 331 331 326 327 326 330 330 331 331 331 331
352 353 348 343 335 339 347 346 345 345 344 344 340 341 339 337 335 332 333 334 334 330 329 331 332 330 327 326 324 328 329 329 332 332 331 328 326 327 330 327 328 329 330
351 349 347 343 341 333 328 336 343 343 342 340 343 340 340 338 337 333 333 332 331 329 329 331 331 331 331 330 328 326 324 328 332 332 331 329 329 328 328 327 327 326 327
344 344 342 334 329 331 330 334 342 342 341 340 340 339 340 340 339 335 332 333 332 332 332 330 330 332 332 332 330 329 328 324 324 328 330 330 329 329 329 328 327 327 325
343 339 332 325 325 332 333 333 341 340 339 339 340 339 340 341 338 336 334 333 332 332 332 332 332 331 331 331 331 330 328 328 327 324 323 323 325 324 324 325 325 323 322
341 339 329 331 326 331 341 339 337 337 338 337 338 339 337 338 337 336 333 332 333 332 332 331 331 331 331 331 331 331 330 330 329 328 328 326 324 322 323 325 324 326 324
342 340 337 332 330 338 337 337 338 337 336 335 336 335 335 336 334 332 328 325 327 330 331 331 332 331 332 331 332 329 332 329 329 329 329 328 328 327 324 323 323 320 319
339 339 338 336 335 337 337 338 337 335 335 332 331 333 322 320 322 322 323 324 327 328 327 326 327 327 328 328 329 329 329 329 329 329 328 328 328 327 325 325 325 325 324
333 335 337 337 337 337 337 336 334 326 319 319 320 319 321 322 323 323 323 326 327 328 329 329 326 325 327 325 326 325 326 326 326 325 325 325 326 325 325 324 323 322 322
326 327 325 331 330 328 329 329 332 325 323 324 322 324 323 323 324 324 326 328 327 327 329 329 327 325 323 322 320 317 316 317 316 317 317 317 317 318 319 319 320 320 319
322 322 323 328 327 326 327 328 327 330 331 329 326 326 324 324 325 326 327 327 325 325 326 326 325 323 323 324 324 323 322 321 321 321 320 319 322 320 319 319 319 318 317
325 325 324 324 324 325 323 324 325 324 325 326 329 328 327 327 328 327 325 324 324 324 323 323 322 321 321 322 323 322 321 320 320 318 318 318 318 318 317 316 316 316 316
321 323 323 323 324 324 325 327 326 327 328 328 328 327 325 325 324 323 323 323 322 321 321 321 320 320 319 318 318 317 317 316 314 313 313 313 313 313 313 313 314 314 314
322 322 324 323 323 323 324 326 327 327 326 326 325 324 323 323 323 322 322 321 320 320 318 318 316 314 313 312 310 309 308 307 307 308 309 309 310 308 309 309 309 308 308
318 322 324 324 325 325 326 326 326 325 324 323 323 322 322 322 321 320 318 317 316 315 313 312 312 311 311 310 307 303 302 302 303 304 305 308 308 308 307 307 307 306 306
319 319 323 324 324 324 324 324 324 323 323 322 322 322 321 320 318 316 314 312 312 311 311 311 309 310 308 305 302 302 302 302 302 301 301 301 302 305 306 305 306 306 305
319 320 320 321 322 322 322 321 320 320 320 319 318 317 315 314 313 311 309 309 308 308 308 307 307 307 306 305 305 303 302 300 300 300 301 301 303 305 305 305 305 304 303

GFSGL_850_thetae_081.txt.gz
Theta_e
347 343 342 349 347 347 347 345 340 339 337 340 341 341 340 339 339 338 337 338 339 336 335 334 332 334 335 334 336 336 337 337 337 340 340 340 339 337 337 337 335 334 334
350 348 341 346 346 347 348 344 344 341 337 342 341 341 340 338 339 338 338 338 337 338 338 338 337 337 337 337 337 338 336 334 337 338 340 340 339 337 338 336 336 335 334
352 352 341 344 347 348 346 344 342 341 342 343 343 337 335 338 340 338 338 338 336 335 337 338 336 337 337 338 338 338 338 338 338 339 339 340 339 337 336 336 335 335 334
353 353 343 343 346 345 347 345 342 343 342 340 338 337 338 339 337 338 338 337 336 337 336 336 336 336 336 336 338 336 336 338 339 339 340 340 339 336 336 336 335 334 333
353 353 347 342 345 346 347 347 345 343 343 343 341 338 339 338 338 337 337 338 338 337 336 332 335 336 335 336 335 330 330 337 339 338 340 340 337 336 336 335 334 333 333
351 352 350 345 345 348 347 346 348 345 344 345 343 340 341 340 340 338 338 337 338 338 336 334 335 335 335 332 326 329 338 337 336 340 336 337 337 335 335 335 334 333 332
347 352 352 349 347 348 347 344 344 345 344 343 343 340 340 341 340 340 339 339 338 337 337 335 335 335 334 334 332 333 336 336 335 335 335 336 338 337 336 334 334 333 333
350 350 351 350 351 349 348 346 331 329 328 338 335 341 341 339 341 341 340 339 338 336 336 336 333 334 333 334 333 331 334 335 334 333 333 334 336 336 335 336 335 334 333
350 352 352 351 349 351 350 346 329 328 326 333 328 328 341 342 341 341 339 339 338 335 335 334 335 334 334 333 331 331 331 332 333 333 333 333 334 335 335 334 333 333 331
351 353 355 354 354 352 350 341 332 335 334 326 329 329 340 342 342 341 339 340 336 334 334 334 335 334 331 331 332 330 330 331 328 329 327 329 330 332 332 332 332 334 329
343 346 348 349 349 351 350 349 339 337 338 329 328 328 335 341 343 341 340 339 336 333 335 333 334 334 331 331 331 326 328 330 330 331 330 329 327 326 327 327 329 331 331
338 337 337 340 344 347 346 345 343 341 336 330 328 334 339 341 342 340 339 334 332 332 334 332 332 330 332 331 328 326 324 327 327 328 331 331 328 329 328 328 329 328 327
338 339 338 338 338 333 332 333 334 334 336 330 328 333 338 339 340 339 335 334 331 333 333 330 329 330 332 331 330 326 325 325 325 325 328 329 329 329 328 328 329 328 327
337 339 339 337 329 328 330 335 333 330 333 330 332 334 337 338 337 336 335 333 332 333 333 331 330 331 331 331 331 330 329 328 327 326 324 324 325 327 327 326 325 324 328
334 337 338 336 329 328 334 335 330 330 330 329 332 336 334 337 334 333 334 333 331 332 331 329 330 330 330 331 331 331 330 330 329 328 327 327 325 323 322 322 322 322 324
329 332 335 336 332 335 332 338 332 332 336 332 330 333 335 332 334 335 334 333 332 331 332 332 332 331 331 331 331 330 329 329 329 329 329 329 328 327 327 326 327 327 325
324 327 330 334 335 335 335 333 338 337 337 336 336 332 333 332 335 333 334 331 330 332 331 329 328 328 328 328 328 329 326 325 325 327 327 328 328 327 327 327 327 326 325
325 323 326 328 330 334 335 335 335 334 335 334 336 337 336 335 334 333 332 329 328 328 329 327 328 327 327 329 325 325 324 325 325 324 325 325 324 324 323 323 323 323 322
324 325 324 326 328 329 331 333 331 333 334 334 334 334 334 332 327 324 324 326 327 325 325 325 326 325 325 324 324 322 320 320 318 319 320 319 318 318 318 318 317 317 317
323 323 323 323 325 328 328 329 331 329 328 325 323 323 323 323 323 325 326 327 327 328 327 326 324 323 323 321 320 320 321 320 320 319 319 317 318 316 317 316 317 316 315
318 322 323 323 324 324 325 326 324 323 323 322 321 321 324 324 324 325 327 327 326 327 325 322 324 322 322 322 322 321 320 319 319 318 317 316 315 314 313 313 313 313 313
318 319 319 322 323 325 325 325 327 322 322 322 323 324 324 325 325 324 324 325 325 324 324 323 323 321 323 319 319 319 318 317 315 313 312 310 308 306 305 305 306 306 306
316 322 322 322 322 323 324 325 325 327 326 325 324 323 322 324 323 323 325 325 324 322 321 320 319 318 317 316 314 311 309 307 307 306 306 305 306 305 305 305 304 305 305
318 322 323 323 324 324 325 325 325 325 326 326 326 324 324 325 325 324 323 322 321 319 317 315 312 310 308 306 303 302 301 301 301 301 301 302 303 304 304 304 304 304 304
321 320 321 323 324 325 325 325 325 325 326 327 325 325 323 322 321 321 319 318 315 313 311 310 309 306 303 303 303 302 301 300 300 300 300 300 300 301 302 304 303 302 302
321 322 323 323 324 324 323 323 323 325 325 323 322 321 321 320 318 316 313 312 309 306 306 305 306 306 305 304 302 301 300 299 299 298 298 297 298 298 299 300 299 298 298

GFSGL_850_thetae_087.txt.gz
Theta_e
352 347 344 341 339 345 345 345 344 343 338 336 338 340 338 336 336 338 339 337 338 336 335 335 335 334 334 333 336 335 336 338 338 337 337 336 338 339 339 340 337 337 336
353 348 346 343 340 345 346 345 345 342 339 336 336 338 339 339 339 337 337 337 337 337 338 338 337 336 336 334 335 336 337 335 336 337 333 335 335 337 335 338 337 336 335
349 348 347 345 342 344 346 346 346 345 342 340 336 336 337 337 337 335 337 338 337 337 335 335 337 338 337 337 337 337 336 337 336 335 336 334 332 332 336 338 336 335 335
347 349 348 348 345 342 345 347 346 346 342 340 337 333 333 332 334 334 336 338 336 337 337 336 335 336 337 335 335 334 335 337 337 337 338 338 337 337 336 338 336 335 335
346 350 349 350 350 345 343 347 347 348 345 342 338 337 338 336 335 334 336 337 337 337 336 336 336 335 335 335 335 334 336 335 334 331 336 338 338 339 338 338 336 335 335
349 348 350 344 344 345 344 344 345 347 344 341 340 341 342 339 336 335 337 335 336 337 337 337 338 336 333 336 335 334 328 328 331 334 335 336 336 336 338 337 336 334 333
340 344 338 336 342 342 335 339 337 344 345 342 341 342 341 342 339 337 337 338 337 337 338 338 337 337 334 335 335 334 331 332 335 335 336 337 337 336 336 337 335 335 334
335 334 335 334 334 336 334 334 340 343 344 345 341 342 341 341 340 340 338 340 339 339 339 339 338 336 336 335 334 334 333 332 334 333 333 333 334 334 335 336 336 335 334
332 332 333 335 334 333 333 333 339 343 345 346 345 337 334 335 334 340 340 340 340 340 339 340 338 336 335 334 334 333 332 332 333 333 332 332 332 333 335 335 335 334 333
341 338 337 335 334 336 337 341 344 345 345 346 346 345 340 335 335 334 338 341 340 340 340 340 338 335 336 334 333 332 330 331 333 332 332 330 331 333 334 334 333 334 334
338 339 339 339 339 340 345 347 346 346 346 347 346 345 344 337 333 333 335 338 338 340 340 339 338 334 334 335 333 332 331 331 329 330 330 329 330 330 331 332 332 332 332
330 331 332 335 336 336 336 339 343 344 344 344 345 345 343 336 334 335 338 335 331 332 337 338 338 333 334 335 333 331 330 330 331 331 331 331 329 328 328 329 328 328 331
328 330 332 334 335 336 335 335 336 336 337 338 338 338 337 336 331 328 333 331 330 330 336 337 336 333 334 334 332 332 329 328 331 330 332 332 330 330 328 328 328 329 328
324 325 327 330 332 334 335 333 331 330 330 333 331 330 330 330 332 333 331 329 329 332 336 335 333 333 334 333 331 331 327 327 330 331 331 330 329 329 329 329 329 328 328
323 324 325 326 329 331 333 334 333 335 335 334 331 333 330 331 334 333 332 334 332 335 336 333 333 333 333 332 332 331 328 327 326 326 326 325 325 326 327 327 327 326 325
318 324 325 326 327 328 329 331 332 333 334 333 335 333 332 332 333 335 335 333 335 333 332 332 332 331 330 329 330 330 330 330 330 329 329 329 328 327 326 325 323 325 325
315 322 324 323 326 328 328 330 332 333 334 334 333 335 335 331 331 336 335 335 333 332 332 332 331 330 330 331 331 331 331 330 329 329 329 329 328 328 328 327 326 325 326
316 317 323 322 323 325 326 327 328 330 330 331 332 333 333 333 335 335 332 332 332 332 331 330 331 330 329 330 330 330 329 328 326 325 324 324 325 325 324 324 323 323 323
315 315 318 322 322 323 325 326 326 327 328 329 330 332 332 332 334 333 333 333 332 332 330 328 327 329 329 329 327 326 325 324 324 325 323 323 323 322 321 319 319 318 318
315 315 316 320 321 323 325 327 325 325 325 326 326 327 330 330 333 332 331 329 328 331 330 329 328 326 326 326 325 324 323 323 321 319 319 318 317 318 316 317 316 316 315
319 318 316 320 323 323 324 325 325 325 324 323 323 323 323 324 327 324 323 324 326 325 325 325 326 326 325 323 319 318 318 318 318 318 317 316 316 316 315 314 313 313 312
319 318 319 322 322 324 324 325 327 324 323 322 321 320 320 322 323 324 322 323 323 324 323 323 322 321 320 320 320 319 319 318 317 316 314 313 310 307 309 310 309 308 307
320 321 322 323 323 324 326 325 325 325 323 324 325 323 321 320 324 322 322 319 323 321 320 320 320 321 320 319 319 317 316 316 315 312 309 305 304 305 306 307 307 307 307
320 321 321 323 324 324 324 324 325 325 323 324 323 323 321 323 324 324 323 324 323 322 322 321 320 319 318 317 315 313 310 308 306 304 303 305 305 303 307 307 306 304 305
321 322 321 322 323 323 322 326 327 323 323 323 323 322 323 323 323 323 323 322 321 320 318 316 313 311 309 307 305 303 302 302 302 302 301 301 301 301 305 306 306 304 302
317 318 318 319 320 321 322 321 322 323 323 323 322 322 322 322 322 321 319 318 316 313 311 309 307 304 303 302 302 301 301 301 300 300 299 299 298 298 298 298 297 298 296

GFSGL_850_thetae_090.txt.gz
Theta_e
356 352 350 344 339 336 347 350 349 349 347 347 345 346 348 346 342 341 338 337 333 335 340 341 341 340 341 341 342 339 341 340 342 342 339 339 337 335 338 339 338 338 338
358 355 351 344 341 343 349 350 350 350 349 348 345 347 348 348 346 341 342 343 337 336 337 340 342 343 343 341 341 341 341 341 341 341 339 336 337 337 339 339 338 338 337
355 357 351 345 343 345 351 351 351 349 350 350 346 347 346 347 347 346 345 346 345 345 344 343 342 340 341 341 341 340 340 339 339 342 341 336 335 335 337 334 338 338 337
349 354 349 346 346 346 351 350 351 350 351 351 350 348 347 346 347 347 347 346 346 344 344 343 343 341 341 338 338 339 338 340 339 340 341 340 336 334 333 334 337 337 336
341 334 352 352 352 351 350 350 350 351 352 351 350 350 349 346 345 346 345 345 346 344 343 343 343 342 338 335 339 338 337 335 340 339 338 339 339 338 338 337 337 336 335
335 346 349 350 353 352 349 349 348 349 350 348 350 348 348 346 345 345 342 344 344 345 343 343 342 340 336 334 334 335 335 336 339 337 337 338 337 336 337 339 336 335 333
336 339 339 337 341 346 345 342 342 340 338 341 346 349 348 347 346 342 341 339 343 343 343 343 342 340 339 341 334 335 334 332 328 335 336 337 339 337 337 337 337 335 334
338 341 340 338 337 340 343 339 336 336 333 337 340 346 345 347 343 339 340 340 342 343 343 342 342 342 342 340 341 338 338 334 332 335 336 337 336 337 336 336 336 335 334
334 335 335 337 337 341 338 336 333 335 335 340 342 343 347 347 346 337 335 341 343 344 343 343 342 343 341 337 339 338 336 334 333 334 333 332 332 333 333 336 336 335 334
336 334 334 332 333 334 333 333 332 333 333 336 339 342 344 346 344 339 337 339 342 342 341 341 340 341 340 335 336 338 334 333 337 332 332 331 331 332 333 334 335 335 334
339 338 338 338 339 339 338 336 334 334 334 336 343 347 347 346 346 344 342 335 339 342 342 341 340 339 339 335 335 338 335 334 333 335 335 335 331 331 333 334 335 334 334
330 330 332 333 336 335 332 332 332 334 337 342 345 346 346 346 346 345 344 337 333 335 339 341 340 340 338 335 335 335 332 332 335 334 332 335 334 334 333 332 332 332 333
326 327 329 331 332 333 334 334 334 336 336 338 339 339 340 343 343 342 339 339 339 338 338 339 340 340 337 334 335 334 332 331 335 335 334 334 334 334 334 331 329 328 330
328 327 326 327 328 331 332 334 336 337 336 334 333 335 335 335 335 336 336 335 332 331 332 336 338 337 335 334 335 333 333 333 334 333 333 334 333 334 331 330 332 330 329
324 328 329 329 327 328 329 331 333 334 334 334 335 333 333 335 336 336 336 334 332 332 330 331 334 336 334 334 333 333 333 333 332 332 332 333 333 333 330 329 330 332 331
324 323 326 327 329 331 329 330 331 332 332 332 334 333 334 334 333 332 333 335 334 335 330 330 335 333 333 333 333 332 332 331 330 330 330 330 329 329 330 330 330 330 329
322 323 322 325 326 328 330 329 329 329 331 332 333 334 333 335 335 333 333 336 334 334 333 330 332 332 333 333 332 332 331 330 330 330 330 329 329 328 327 326 327 327 327
322 320 321 323 325 327 327 329 328 329 328 328 329 330 331 333 334 333 335 335 333 331 333 332 332 333 333 332 331 330 330 330 330 330 329 328 328 328 327 327 327 326 325
321 321 321 321 324 326 328 329 327 327 326 326 327 329 332 333 333 334 335 334 334 332 332 332 332 331 331 330 330 329 329 329 328 326 325 325 325 325 324 324 323 323 323
321 321 319 321 323 326 329 329 326 325 324 324 325 326 328 332 333 335 333 332 332 330 331 331 330 329 328 327 324 328 325 325 324 325 324 323 323 323 322 321 321 320 320
321 321 320 321 322 324 327 329 328 325 324 325 324 324 325 327 326 326 325 326 328 329 329 329 326 327 327 325 325 324 324 323 322 321 320 320 320 320 318 319 318 318 317
321 321 322 322 322 323 326 328 327 326 324 324 321 320 324 325 325 324 322 321 321 322 323 322 321 323 324 323 321 319 318 318 318 318 318 319 319 318 317 315 315 314 313
321 322 322 323 324 325 326 327 326 325 324 323 324 321 320 321 321 322 324 321 322 323 323 322 321 320 318 317 317 319 319 318 318 317 316 314 312 311 311 310 310 310 310
322 323 323 323 325 325 325 325 326 325 324 324 323 322 323 321 323 322 320 322 320 319 318 318 317 317 319 319 319 318 317 316 316 314 312 311 310 310 310 310 309 309 308
319 321 321 322 323 325 324 324 325 324 324 323 322 321 319 323 324 324 323 321 322 320 319 320 320 320 319 319 318 316 315 313 311 309 310 310 309 309 309 308 308 308 308
318 318 319 320 315 317 322 323 323 323 323 321 322 322 322 322 323 322 321 322 321 321 320 318 317 315 313 310 307 304 303 302 302 302 307 308 308 308 308 308 307 306 304

GFSGL_850_thetae_093.txt.gz
Theta_e
361 361 361 359 355 346 345 351 351 351 349 349 349 350 349 347 347 347 345 345 344 343 345 345 343 343 341 340 342 342 342 340 339 340 344 341 340 339 339 338 339 340 339
358 358 359 357 355 346 338 349 351 350 349 349 349 348 348 346 346 347 347 345 344 344 344 345 345 345 342 341 341 342 341 340 341 341 341 341 340 340 338 339 339 339 339
357 357 355 349 354 347 340 348 351 350 350 349 349 348 348 347 347 345 346 346 346 345 344 343 344 342 344 343 343 341 343 340 340 341 342 341 341 337 337 337 338 338 339
340 347 348 335 344 350 347 348 351 350 351 350 349 348 348 347 347 345 345 347 345 344 344 345 343 342 342 341 342 341 342 339 342 339 340 341 340 339 335 336 336 337 338
337 339 341 340 338 348 347 347 351 350 350 349 349 348 347 347 345 345 344 343 343 344 344 344 344 342 342 343 341 342 342 342 342 342 342 340 340 339 339 336 333 335 337
331 336 338 337 335 335 349 347 349 351 350 351 349 348 349 346 346 345 345 347 343 344 342 342 343 342 341 339 336 336 338 339 340 339 339 340 340 338 336 338 338 337 335
336 335 334 334 334 340 350 347 350 348 350 350 351 353 351 349 346 346 345 344 345 343 342 341 341 343 341 342 339 336 335 334 333 338 340 340 340 339 338 337 337 338 337
340 337 337 343 344 343 341 345 349 349 350 349 350 349 352 350 347 342 337 339 345 343 344 343 343 341 343 343 340 340 336 337 334 332 333 338 337 337 338 337 337 337 335
336 338 341 341 339 340 345 348 348 347 347 337 342 347 350 350 343 343 343 341 343 343 344 343 345 344 342 341 341 340 341 340 340 336 335 337 337 335 336 335 336 336 334
338 339 339 339 337 336 339 341 337 336 335 336 338 348 351 351 348 345 345 344 344 343 343 344 344 343 343 342 339 339 341 341 340 337 333 332 331 331 332 333 335 335 334
337 340 342 340 335 335 335 335 339 340 341 342 341 343 343 344 346 345 346 345 344 344 342 342 345 345 341 340 339 338 340 339 338 338 337 335 334 335 332 333 334 336 336
330 331 333 334 335 337 336 336 337 340 340 340 340 341 343 343 342 346 346 346 344 343 341 341 343 343 341 339 339 338 338 338 337 336 338 336 337 336 336 334 335 335 334
332 330 328 327 329 331 332 334 338 339 339 340 340 341 340 342 343 344 343 342 341 341 342 339 339 340 340 341 338 338 335 337 337 337 337 336 335 335 335 334 333 333 333
328 331 331 329 327 328 332 335 336 336 338 338 337 335 337 337 337 337 338 338 338 337 336 335 336 337 341 341 339 337 335 336 335 336 336 335 334 333 334 333 333 333 331
327 327 330 329 331 331 331 330 330 333 332 334 334 334 335 337 337 337 337 337 339 339 337 334 334 334 338 340 337 336 335 335 335 335 334 334 333 332 332 331 332 332 333
326 325 326 325 327 329 330 332 332 331 330 330 331 332 333 334 334 334 335 334 335 335 334 334 333 335 335 338 336 335 335 333 333 334 333 333 334 331 330 330 330 330 332
325 325 323 322 325 327 328 329 331 331 330 330 328 329 331 332 334 334 334 335 334 333 334 334 333 333 334 336 335 335 333 334 333 332 332 332 331 331 330 330 331 331 331
324 324 324 324 323 324 327 329 331 331 330 330 329 327 328 329 330 331 333 334 333 334 335 334 333 333 332 333 335 333 333 332 332 331 331 330 330 329 329 329 328 328 328
323 324 323 322 322 323 325 329 331 330 330 329 330 328 325 328 332 333 332 334 334 335 333 332 332 332 331 333 333 332 332 331 330 330 330 329 329 328 328 327 327 327 326
322 322 322 322 322 323 326 327 330 330 329 329 328 327 324 325 329 332 334 334 335 334 333 330 333 332 333 333 332 331 330 328 328 327 326 325 325 325 325 324 324 324 323
321 322 322 322 323 323 323 324 330 330 329 327 326 325 323 325 326 325 327 327 327 328 329 329 331 332 332 331 327 325 326 325 323 324 324 323 323 323 322 322 321 321 322
321 322 323 323 323 323 325 325 328 329 328 327 326 324 323 324 323 325 325 325 325 327 328 329 329 328 327 326 325 325 324 323 322 321 320 322 321 321 321 320 319 319 319
321 323 323 323 325 324 326 327 328 328 327 325 324 324 321 321 321 322 322 321 322 321 320 322 322 323 324 323 321 319 319 319 318 318 318 318 319 318 317 317 317 315 314
320 321 322 323 325 324 325 326 327 326 325 324 322 320 323 322 322 323 321 321 323 323 322 321 319 319 320 319 318 317 317 317 318 319 318 316 314 314 313 312 312 311 312
320 319 319 320 320 322 324 324 324 324 324 323 322 321 320 322 323 323 321 321 320 319 318 318 318 318 318 318 318 318 318 318 317 317 314 312 311 311 311 311 311 311 310
318 317 318 318 319 319 321 322 324 324 323 322 322 322 322 322 322 323 321 321 320 320 320 320 320 320 320 319 319 318 317 316 314 312 311 311 311 311 310 310 310 309 310

GFSGL_850_thetae_096.txt.gz
Theta_e
359 358 356 357 356 354 350 349 351 350 347 350 350 347 346 345 346 343 343 345 346 343 342 345 343 343 342 340 340 340 340 340 342 339 340 340 341 340 340 340 340 339 339
360 358 354 357 356 355 352 351 346 350 347 345 349 346 349 346 345 343 343 342 344 342 343 343 345 345 343 341 340 341 340 339 340 337 340 340 340 340 340 340 339 339 340
355 356 354 347 345 337 349 347 348 348 348 349 346 348 345 348 347 346 344 343 343 343 343 342 342 342 342 341 342 341 342 341 341 339 339 339 340 339 338 338 339 339 340
345 352 354 352 345 341 335 342 346 346 350 348 347 348 346 346 348 345 345 344 343 344 344 342 342 342 342 342 341 340 341 341 341 338 339 339 341 341 339 336 336 338 337
336 337 336 339 337 337 337 330 333 348 348 347 347 348 348 346 348 347 346 343 343 342 342 342 342 342 341 341 341 341 339 340 340 341 340 339 340 341 338 338 335 337 334
336 334 338 340 341 338 335 333 342 346 345 347 348 347 348 346 347 346 344 344 344 343 342 341 340 341 343 342 341 339 336 339 340 341 341 340 340 339 339 338 336 336 334
335 337 338 337 338 333 335 341 346 346 348 349 347 347 347 347 347 347 346 344 343 347 343 341 341 341 341 341 341 338 337 335 334 336 337 338 339 340 340 337 336 336 337
337 340 340 337 335 338 334 331 339 346 346 346 345 344 345 346 348 347 346 345 344 341 341 341 340 341 341 343 343 343 340 339 337 333 333 333 332 335 338 338 337 336 337
340 339 340 338 341 338 335 338 342 343 343 343 346 346 345 342 344 347 343 341 337 336 335 336 336 341 342 341 341 342 341 339 339 339 337 334 334 336 336 337 337 336 334
340 341 339 340 339 339 339 341 341 341 344 344 340 337 334 337 345 343 343 344 343 343 343 341 337 340 341 344 341 338 340 339 340 340 340 337 337 337 334 332 334 335 335
336 337 339 341 338 339 336 336 337 338 336 335 336 337 337 341 345 341 340 342 346 346 346 345 344 343 342 342 342 341 340 337 339 339 339 339 333 334 332 332 333 333 334
333 328 329 332 332 335 338 337 337 338 338 339 340 339 339 341 341 342 344 344 343 345 346 346 345 344 343 342 342 342 340 339 336 339 338 338 335 334 333 332 333 334 333
332 331 327 326 325 327 328 333 334 337 340 341 341 341 340 341 342 342 342 342 343 342 342 344 344 342 342 345 343 342 339 338 338 338 337 337 336 336 335 334 334 335 335
329 329 331 331 330 330 328 329 333 335 336 335 338 338 337 337 339 339 338 338 339 341 341 340 338 337 341 339 341 342 340 339 339 337 335 334 337 334 336 334 334 333 333
327 326 327 328 327 332 331 329 328 332 332 331 330 332 334 334 336 337 337 337 337 339 337 337 336 335 335 334 336 338 340 340 339 336 335 336 336 332 334 333 333 333 332
327 326 326 325 323 326 330 331 330 330 331 330 330 329 329 330 331 333 333 334 335 336 336 336 336 335 335 334 333 335 338 339 337 336 335 335 335 333 332 332 331 331 331
326 325 325 325 325 324 325 328 331 328 331 330 329 329 328 326 328 328 330 332 334 334 334 333 333 333 334 335 333 334 337 338 336 335 334 334 334 332 332 331 329 330 331
324 325 325 325 324 323 323 326 329 329 330 329 330 330 329 328 325 329 331 330 331 333 334 335 333 333 334 335 333 335 335 336 336 334 332 333 332 331 330 330 330 330 330
324 325 324 323 323 322 323 323 328 328 330 329 329 330 329 326 324 327 331 332 332 332 333 334 334 333 334 334 333 333 333 334 335 333 332 332 331 330 330 330 330 329 328
322 322 322 323 323 323 324 325 327 330 328 328 329 328 326 323 324 326 326 329 330 332 332 333 332 332 333 333 332 334 334 333 332 332 331 330 330 329 329 328 327 327 327
322 322 325 325 325 326 326 326 326 330 329 328 327 326 324 324 324 324 324 324 325 326 328 330 331 331 331 334 333 332 333 332 332 331 329 327 324 325 325 325 324 323 324
322 322 324 325 325 326 325 326 329 328 329 327 327 326 324 323 322 323 322 322 323 324 326 327 329 330 332 332 333 332 330 329 327 325 324 322 320 320 322 323 321 321 322
321 320 321 323 323 324 326 327 326 327 326 325 325 323 323 324 322 323 321 321 321 321 322 324 325 326 326 327 327 326 325 323 322 321 321 321 321 320 320 320 319 320 320
318 320 320 320 319 320 323 324 324 324 324 326 323 320 323 322 322 323 322 321 323 320 320 318 319 321 320 319 319 319 320 320 319 319 318 319 319 318 318 319 319 317 316
319 319 318 319 318 319 320 323 322 323 323 323 323 322 322 321 321 323 321 321 321 321 321 319 319 318 318 318 318 318 318 317 317 317 318 318 319 318 315 314 313 312 312
319 319 319 319 318 318 318 320 322 321 321 322 323 322 321 321 321 322 322 321 320 319 319 318 319 318 318 318 318 318 318 318 318 318 317 314 312 311 311 311 311 311 311

GFSGL_850_thetae_099.txt.gz
Theta_e
357 354 353 349 356 357 351 348 350 348 349 349 348 347 345 341 343 344 346 342 340 341 339 340 343 342 341 342 340 341 340 341 341 340 339 340 339 340 341 340 342 342 341
360 357 357 354 354 351 348 347 349 349 348 347 349 348 347 342 345 344 343 342 343 344 339 339 340 342 342 340 340 340 340 340 339 340 340 339 338 340 340 339 339 340 339
358 355 351 341 351 347 342 343 347 345 346 347 347 349 347 344 344 345 344 342 342 345 343 340 341 341 341 341 340 339 338 337 338 339 338 338 339 340 339 339 339 339 339
353 351 341 339 341 348 346 342 336 332 338 346 347 346 346 344 346 346 345 344 344 342 340 341 342 342 341 342 341 341 339 340 341 340 340 337 339 340 340 339 337 336 337
343 346 349 348 349 346 346 343 343 335 332 346 348 348 345 346 343 343 346 344 344 343 342 342 341 341 341 341 339 340 341 340 338 340 340 340 340 340 339 340 338 337 335
337 333 336 336 338 342 341 339 341 333 335 345 350 349 346 348 345 345 345 343 344 343 342 341 341 340 341 342 341 341 340 339 336 339 339 340 341 339 340 339 339 338 335
336 336 337 335 337 339 338 338 335 335 335 345 347 346 346 347 346 346 348 347 345 344 343 344 342 341 339 339 339 341 340 339 336 335 336 337 339 338 339 340 339 337 335
340 341 340 337 337 337 336 336 334 333 341 342 343 345 346 346 346 346 345 347 347 345 344 343 344 341 341 340 340 342 343 342 340 338 336 334 333 336 337 337 339 339 336
339 339 339 339 341 339 336 335 337 339 338 341 342 344 343 342 343 344 345 343 345 344 344 343 342 341 339 341 340 340 340 342 341 339 338 335 334 334 332 336 338 337 337
338 339 340 340 339 340 339 337 335 336 339 340 343 341 341 342 336 336 337 341 341 343 341 340 339 338 338 339 341 341 341 339 340 339 338 338 340 336 334 336 335 335 336
330 335 337 339 338 337 337 337 338 337 338 340 341 338 335 334 335 336 338 340 339 338 339 342 342 344 343 341 341 341 342 340 339 339 338 339 339 338 335 335 334 330 331
333 332 328 327 328 331 333 337 336 337 337 337 336 337 338 338 338 341 341 339 339 339 341 341 343 346 345 345 342 342 341 342 341 340 338 337 338 338 337 334 332 331 332
328 330 331 332 331 328 329 329 333 336 338 338 339 338 339 341 339 338 341 342 342 342 343 342 342 344 345 344 346 345 344 343 341 341 339 336 335 337 336 333 333 331 333
327 327 327 329 327 330 330 329 328 329 332 333 332 333 336 337 336 337 337 337 337 338 341 341 340 340 341 342 342 342 342 342 342 340 338 336 336 336 337 336 335 334 334
324 325 326 327 326 327 328 331 330 329 328 329 329 329 329 329 330 332 333 334 336 336 337 338 337 335 337 337 333 335 338 340 341 339 338 338 337 334 335 336 336 335 334
323 323 323 322 324 325 325 325 331 330 328 329 329 329 329 329 328 326 326 328 331 333 333 335 336 334 333 335 334 335 335 334 334 338 337 338 338 334 334 335 335 334 333
323 324 324 325 325 325 324 324 330 328 326 329 328 328 328 328 328 327 325 326 329 328 331 332 333 333 334 334 333 334 334 334 334 334 338 338 338 334 335 334 333 333 331
323 325 325 324 323 323 322 323 324 326 328 329 328 328 329 328 326 323 324 328 331 332 331 330 331 333 334 334 333 332 333 334 333 335 336 337 337 335 335 334 332 332 330
322 322 322 322 322 323 323 323 323 324 329 330 329 329 329 327 323 324 325 327 328 329 329 330 332 332 333 333 332 333 334 334 333 334 334 336 336 334 333 333 332 330 329
322 322 324 324 325 326 327 327 327 327 329 329 327 328 327 326 323 324 324 323 324 325 327 329 331 332 331 330 332 334 334 332 335 334 332 335 334 333 332 331 330 330 330
322 321 322 325 324 326 326 326 329 330 329 328 326 326 325 325 323 323 323 321 321 322 324 326 327 330 331 330 331 331 333 332 333 333 333 333 331 329 331 330 330 329 328
321 321 320 323 322 321 325 326 326 326 325 325 326 325 324 323 323 322 322 321 321 320 322 324 325 327 328 329 329 331 332 331 332 331 331 331 331 330 330 328 326 325 325
319 320 321 320 319 319 320 320 320 321 323 324 325 324 321 323 322 323 322 321 321 319 318 320 323 323 324 326 328 329 329 330 331 331 329 327 326 323 323 323 322 323 324
314 318 318 320 319 319 318 321 319 319 320 322 323 322 320 321 322 322 322 321 322 320 318 318 320 319 318 319 323 324 323 323 324 323 321 321 320 320 321 318 318 319 319
311 318 319 319 318 317 317 320 320 318 317 319 321 322 322 321 321 321 322 321 321 321 319 319 318 317 316 316 316 317 319 319 319 319 319 319 320 320 319 319 319 319 317
313 316 317 318 318 317 317 317 319 319 318 316 317 320 320 319 319 320 321 321 320 320 319 319 318 318 318 318 317 316 316 317 317 317 318 318 318 316 315 315 315 315 314

GFSGL_850_thetae_105.txt.gz
Theta_e
337 333 335 351 351 350 351 348 345 344 346 349 348 347 347 345 344 344 343 345 344 344 343 342 341 339 338 342 342 341 341 342 342 341 341 341 341 340 340 340 340 341 341
334 335 338 339 343 341 348 350 349 347 348 350 349 346 348 347 346 346 344 344 343 341 341 340 339 339 340 342 341 341 341 339 340 339 340 340 340 340 339 338 339 339 339
335 341 335 338 341 334 336 344 347 347 347 347 350 348 348 348 345 346 346 344 343 341 342 339 337 340 336 340 341 342 341 339 339 339 339 339 339 339 338 339 339 337 338
347 343 343 337 331 332 333 336 335 335 342 347 346 346 346 346 343 344 344 340 340 342 341 341 342 341 338 338 339 340 341 341 339 339 337 337 338 339 338 338 338 338 336
343 345 330 332 335 331 331 335 335 338 339 339 340 343 344 343 341 344 343 341 342 343 342 341 340 342 341 341 341 340 340 340 341 340 339 340 341 340 339 337 338 341 340
345 348 347 344 343 342 338 341 337 337 337 340 339 339 338 332 334 343 344 342 342 343 343 342 342 343 342 342 342 340 340 338 339 340 339 339 338 338 339 338 338 339 341
336 339 339 337 338 340 342 341 339 338 340 343 339 334 337 334 342 344 343 342 343 343 344 344 343 343 343 341 341 341 341 340 340 341 341 339 337 336 338 339 339 338 338
338 337 336 335 337 337 338 339 340 341 341 342 338 335 335 333 334 340 341 342 341 341 341 342 342 343 343 343 342 341 340 339 339 339 339 339 339 336 335 337 338 338 338
339 339 339 340 340 339 338 335 336 338 338 338 338 337 337 336 335 340 341 340 340 341 341 340 341 342 343 344 344 343 343 341 339 339 339 340 340 338 337 336 336 337 338
335 337 338 338 337 339 335 334 335 335 335 336 338 336 336 340 339 337 339 337 340 339 339 342 342 341 341 342 341 340 338 338 337 338 339 338 338 339 338 336 335 334 334
329 332 331 333 336 337 337 338 338 337 336 337 337 337 337 339 336 334 334 338 337 336 335 335 334 339 338 339 339 339 339 340 340 340 339 340 340 340 339 338 337 338 335
329 329 327 327 328 330 334 337 336 337 337 337 337 336 336 339 340 337 337 337 337 335 335 335 336 338 338 336 339 338 335 335 336 340 340 340 340 341 341 338 337 336 337
327 328 328 330 328 328 328 328 331 334 336 336 336 337 337 337 337 337 337 337 337 336 335 335 335 335 336 336 336 335 334 334 334 336 339 340 338 339 339 340 338 336 337
325 325 326 325 327 330 330 329 328 328 327 326 327 328 329 331 333 335 335 335 334 335 336 336 336 337 337 336 337 337 336 335 335 336 337 339 339 338 338 338 339 337 337
323 324 324 323 324 324 323 324 329 329 327 327 327 327 327 328 328 327 327 327 327 327 327 328 329 331 333 335 337 337 339 338 338 340 340 337 338 340 339 338 337 337 337
323 324 324 324 323 322 322 324 326 329 326 327 328 327 326 327 327 326 325 323 323 324 324 325 325 327 327 329 332 334 336 336 334 334 336 336 334 333 335 339 339 337 336
322 323 323 322 322 322 323 322 328 329 328 328 328 328 327 326 326 326 324 323 323 323 324 325 327 325 328 330 328 329 331 333 334 334 334 335 334 334 334 333 333 338 338
322 322 323 324 324 325 325 325 322 322 322 322 324 328 328 327 326 326 325 323 323 322 322 322 322 321 325 327 329 329 328 329 331 332 333 333 333 333 333 333 332 334 337
321 322 323 324 324 324 323 323 325 325 325 324 324 328 328 326 326 325 323 323 323 322 322 321 321 322 324 324 326 328 329 330 329 331 332 333 333 332 332 332 332 332 334
321 320 321 321 322 319 319 320 321 322 325 326 326 325 325 324 325 324 322 322 322 322 320 319 319 321 322 323 324 327 328 329 329 331 331 331 332 332 332 333 333 333 334
319 320 320 320 320 319 319 319 318 318 317 317 318 320 323 324 324 323 321 322 322 321 319 317 319 320 320 324 324 326 328 328 329 330 329 330 331 332 332 332 332 334 334
319 319 319 319 319 319 319 319 320 319 319 316 315 318 320 321 322 320 321 322 322 321 319 317 318 318 318 322 323 323 324 326 327 329 329 329 331 332 332 331 332 333 334
318 318 319 317 315 318 318 318 318 317 319 318 316 315 318 321 321 320 320 321 321 321 320 318 317 317 317 318 321 321 322 322 323 325 327 329 329 330 330 330 331 331 332
315 315 314 313 313 315 317 318 318 317 317 319 318 316 314 315 315 317 319 320 320 320 320 319 318 317 316 315 315 315 317 318 320 319 320 323 325 327 329 330 330 330 331
316 314 313 313 310 313 316 317 318 318 317 317 319 318 316 315 314 313 315 318 318 318 319 320 320 319 318 317 316 315 314 316 318 320 319 319 319 321 323 324 325 326 327
319 317 315 314 310 314 316 317 317 316 316 317 316 318 319 317 315 312 314 317 318 318 319 319 320 319 319 318 318 318 316 315 316 316 315 319 318 317 318 320 321 319 319

GFSGL_850_thetae_108.txt.gz
Theta_e
333 333 334 344 341 342 344 345 344 346 348 346 344 342 344 347 347 346 346 346 346 346 346 344 344 343 343 342 340 339 341 342 342 344 341 340 341 341 340 340 340 340 340
339 335 334 337 338 337 334 333 339 341 345 347 347 347 348 347 346 346 344 345 343 343 345 344 342 343 342 340 340 341 339 340 341 340 340 339 340 341 340 340 339 339 340
335 334 336 335 335 335 333 332 333 336 339 346 346 347 349 348 345 346 346 346 344 344 344 343 340 340 338 338 340 341 340 339 339 339 339 339 339 339 339 338 338 338 338
336 335 336 337 335 332 332 333 332 335 343 344 347 346 348 348 345 345 345 344 344 346 344 341 341 338 337 339 337 338 341 341 339 338 338 338 338 337 338 337 337 337 338
337 336 336 336 336 336 336 335 335 337 338 341 338 342 347 346 346 345 345 343 343 343 341 342 341 340 341 341 340 339 340 341 341 340 340 340 338 339 339 338 338 337 336
340 339 341 336 332 332 334 333 334 335 336 336 338 341 345 344 340 342 340 341 343 342 342 342 341 339 339 341 341 341 342 341 340 339 338 339 338 338 337 337 339 338 338
341 341 340 341 341 339 336 335 339 333 334 337 337 340 341 340 338 339 339 338 337 340 340 341 341 341 342 342 341 341 342 341 340 341 340 338 337 338 337 336 337 338 338
338 337 336 336 339 340 341 340 340 340 340 339 337 341 341 335 336 336 335 336 338 341 341 341 341 343 343 343 341 342 341 340 340 340 340 340 339 339 339 336 335 338 337
338 339 338 339 339 339 337 335 335 336 337 339 340 341 338 336 338 334 334 334 338 336 338 340 340 340 340 342 342 342 343 342 341 341 340 339 338 339 341 339 336 335 335
334 335 337 337 337 337 334 335 335 337 337 337 338 338 336 336 337 338 334 336 339 339 338 337 338 338 338 338 339 341 341 339 339 338 338 337 337 338 339 340 338 337 336
329 328 329 331 335 336 337 336 336 336 336 338 337 337 337 337 338 338 339 337 337 336 334 334 335 335 336 336 339 338 338 339 339 339 339 339 338 338 339 339 339 338 336
329 328 327 328 330 332 336 337 337 337 337 337 336 336 335 337 338 338 338 338 335 335 336 336 335 333 331 335 335 336 335 337 337 338 336 336 339 339 338 337 339 339 338
326 328 328 328 328 328 329 332 334 335 335 335 336 337 337 337 337 337 338 336 335 336 334 335 335 335 335 334 335 336 337 336 335 335 336 335 335 336 339 339 338 339 340
323 324 325 325 328 328 329 328 328 327 326 326 327 328 329 330 332 333 333 335 335 335 335 334 333 334 335 336 335 335 334 334 335 336 336 336 337 336 334 336 338 338 338
323 323 322 323 324 324 324 325 329 327 326 327 326 327 327 327 327 326 326 325 324 325 325 325 326 326 326 327 329 332 334 335 336 338 339 339 338 338 338 337 337 338 338
323 323 323 323 322 322 323 323 326 328 325 326 326 327 325 325 326 326 325 324 323 323 323 323 324 324 325 325 326 328 328 328 331 334 336 337 336 336 337 337 335 335 337
322 322 322 322 324 324 324 320 328 328 327 325 325 326 327 327 325 324 324 324 322 322 322 322 322 322 322 322 324 325 325 329 328 328 331 334 334 334 335 335 334 333 334
321 323 324 325 324 323 323 325 324 322 323 322 322 323 325 327 325 324 324 322 321 321 322 322 321 320 320 320 321 322 325 325 328 330 330 330 331 333 334 334 334 333 334
321 322 323 323 322 321 321 321 321 321 325 325 324 325 327 326 324 323 323 322 321 321 322 322 320 319 320 319 321 322 323 327 327 328 328 330 329 330 332 332 332 332 332
320 320 320 320 321 318 318 319 318 318 317 316 317 319 321 322 323 324 324 323 321 321 321 320 318 318 319 320 321 323 325 323 325 326 328 329 329 331 331 331 332 332 332
319 319 319 319 319 319 319 318 318 318 318 317 315 315 316 319 321 323 322 321 321 321 321 320 318 317 318 319 322 321 322 322 324 325 327 328 328 330 330 330 331 332 331
317 317 318 318 317 316 318 318 318 317 316 317 317 316 315 315 319 321 320 320 320 321 321 320 318 317 317 317 318 320 321 320 320 320 323 324 327 328 329 329 329 332 331
316 316 315 314 314 314 315 315 317 317 317 316 317 318 317 314 314 314 313 315 318 320 320 320 319 318 316 316 315 315 315 315 317 319 319 319 321 324 327 328 329 329 331
318 317 316 315 315 315 311 312 316 317 317 317 316 316 317 317 315 315 314 313 314 316 319 319 319 319 319 318 318 316 316 315 316 318 319 321 319 320 321 323 324 327 329
320 320 320 319 317 315 313 311 314 316 317 317 317 317 317 317 318 317 315 312 313 316 317 318 318 319 320 319 319 318 318 318 315 315 315 315 319 320 321 321 320 321 324
319 319 319 318 317 317 317 317 317 316 316 316 315 315 316 316 316 318 317 313 312 314 315 317 318 318 319 319 319 319 318 319 317 315 316 316 314 317 317 317 316 318 318

GFSGL_850_thetae_111.txt.gz
Theta_e
334 340 347 347 345 349 351 352 350 349 346 349 349 347 346 343 343 344 344 343 343 345 344 345 345 345 344 343 343 343 342 341 340 340 342 340 339 339 341 341 341 341 340
339 336 334 335 335 341 345 345 344 343 348 346 346 346 345 344 341 341 344 346 345 346 345 346 345 346 344 344 343 342 341 338 341 341 339 338 338 339 341 341 340 339 339
339 340 336 335 335 335 334 339 342 341 342 340 346 346 341 344 342 344 345 345 344 342 342 343 343 344 343 343 342 342 339 340 341 341 341 337 338 338 338 338 339 338 338
339 342 335 334 336 338 338 337 337 337 336 338 339 337 340 345 344 344 344 345 344 343 344 344 344 343 342 340 339 338 338 341 341 342 340 339 338 338 337 337 337 337 338
340 340 335 337 337 336 335 334 336 334 334 338 340 339 343 344 346 345 346 343 344 344 343 343 345 343 341 339 340 340 337 338 341 342 341 341 340 339 338 338 339 338 338
341 342 337 337 337 336 336 335 333 334 335 337 337 339 342 343 345 345 344 344 344 343 343 344 343 340 342 340 341 341 339 340 341 341 341 340 339 339 339 337 337 338 340
341 339 338 339 334 335 336 332 332 333 335 335 337 338 338 338 338 343 344 344 345 343 342 341 341 342 342 340 339 341 342 341 341 341 340 339 338 338 338 338 336 335 338
329 335 339 338 336 340 336 337 337 338 337 338 336 337 338 338 339 339 339 340 340 341 342 339 340 341 341 340 340 341 341 341 341 341 339 339 338 338 339 340 340 337 335
337 338 338 339 339 339 337 337 337 338 337 337 335 338 337 339 337 335 336 338 340 337 337 333 336 340 339 339 339 341 340 340 342 341 340 340 339 340 340 340 340 340 337
332 335 337 337 338 336 335 335 336 337 337 338 338 340 340 339 334 336 337 336 334 336 336 336 336 338 338 338 337 338 338 339 339 340 340 340 339 339 339 339 341 340 340
329 329 330 331 335 337 336 336 336 336 338 337 337 337 337 337 336 338 335 336 334 336 337 338 336 336 335 337 337 337 337 337 338 338 338 338 339 338 338 338 339 341 341
329 329 328 327 328 331 336 337 337 336 335 336 337 336 336 337 337 336 337 337 338 337 337 336 335 334 333 332 332 335 332 334 334 334 336 337 338 337 339 339 339 339 339
325 325 325 329 329 328 328 332 334 334 335 336 337 337 337 337 338 339 338 338 337 336 335 334 336 336 335 334 333 333 331 331 334 336 336 336 336 336 335 335 335 337 339
322 321 323 325 326 325 328 328 327 326 326 326 329 329 330 332 333 333 333 333 334 334 333 336 336 334 335 336 336 335 333 333 332 331 331 332 334 333 331 334 336 336 336
323 323 323 323 323 323 324 325 328 325 327 327 325 326 328 327 326 325 325 323 323 323 323 324 325 325 325 326 326 328 331 333 334 336 336 336 336 335 333 333 335 337 337
322 323 323 321 321 321 320 323 327 326 326 326 326 326 326 326 325 324 323 323 323 322 322 322 322 322 323 323 323 324 325 326 327 328 328 330 333 335 336 337 337 336 338
322 323 322 324 324 325 325 322 328 329 328 327 325 326 327 327 327 325 324 323 321 320 321 322 322 321 321 320 320 320 321 322 324 324 327 330 330 330 333 335 335 334 335
322 324 324 323 323 322 322 322 325 324 323 323 322 322 325 326 327 326 324 323 323 322 320 322 322 320 319 319 320 321 322 322 322 326 326 326 328 327 330 332 332 335 336
321 322 322 321 321 318 319 322 323 322 322 323 325 325 325 327 326 325 323 323 324 323 322 321 320 319 319 319 320 322 321 323 324 323 324 325 327 328 328 328 329 332 333
319 319 319 319 319 318 318 320 321 322 321 321 321 322 316 317 321 324 322 322 322 321 320 321 321 319 318 318 320 320 319 322 321 321 323 324 325 326 328 328 329 330 330
318 318 317 318 317 317 318 318 318 317 320 320 319 316 316 316 320 322 322 321 320 319 320 321 320 319 318 317 318 318 319 320 319 320 319 319 321 324 327 328 328 329 330
318 318 317 317 315 315 315 315 316 317 318 319 319 320 317 317 315 315 315 315 316 316 317 320 320 320 318 317 316 315 315 316 315 315 317 319 319 319 320 323 326 328 329
317 317 318 318 317 317 316 316 313 314 316 317 318 320 320 317 317 317 315 315 314 313 312 313 317 320 320 318 317 317 317 317 317 315 317 318 318 317 319 319 321 322 324
319 320 320 319 318 318 317 318 317 314 315 315 317 318 320 321 320 319 317 317 316 314 312 314 316 317 318 320 319 319 319 318 318 317 315 316 317 316 318 319 319 319 320
320 319 318 318 319 319 318 318 318 318 317 317 316 315 318 320 320 320 320 317 318 316 313 313 315 315 318 318 319 320 319 319 318 318 317 316 317 316 316 316 317 317 317
317 317 318 318 318 318 318 318 318 318 318 317 316 316 315 316 317 319 320 320 320 321 318 314 313 312 314 318 318 318 318 318 318 318 317 316 316 317 315 317 315 315 314

GFSGL_850_thetae_114.txt.gz
Theta_e
344 341 342 347 351 350 352 352 352 352 351 351 352 353 353 352 351 348 345 349 350 350 348 346 342 343 344 345 345 345 344 343 344 346 345 343 345 343 344 346 344 343 343
345 347 345 338 345 347 347 346 349 352 351 350 346 351 354 353 352 352 351 350 350 350 349 349 350 350 347 346 346 345 344 346 347 347 343 345 344 346 346 342 342 341 340
344 343 344 343 340 342 341 343 347 348 350 351 350 349 352 351 354 351 352 352 350 351 350 351 351 349 348 347 347 345 345 345 345 344 344 345 344 345 345 341 338 338 337
343 342 341 342 345 342 343 341 342 342 342 346 347 347 350 352 349 349 352 351 351 350 351 350 350 350 349 348 347 346 344 346 345 343 345 345 341 344 345 344 343 338 340
343 342 341 343 341 339 339 339 339 339 339 338 341 344 348 348 348 346 349 350 351 351 350 346 349 348 344 349 348 345 344 345 347 343 344 345 340 342 344 344 343 343 343
339 341 342 339 340 338 338 338 337 336 334 337 338 339 340 342 342 342 345 351 347 343 344 348 349 344 344 343 343 342 344 343 343 344 344 344 344 344 345 345 344 343 342
339 341 341 338 337 337 337 337 337 335 333 337 337 338 339 341 341 342 344 345 346 347 347 349 347 344 343 342 340 339 341 342 341 343 344 346 346 345 344 345 344 343 341
333 337 339 339 338 335 335 338 335 335 337 337 335 335 338 339 339 340 340 342 345 347 348 346 343 342 340 340 340 339 339 341 341 342 343 345 345 345 342 342 340 342 343
332 335 336 332 333 330 335 339 341 338 338 339 339 337 337 337 338 338 337 338 342 343 342 343 342 341 339 340 339 339 339 342 343 341 339 340 340 339 339 341 342 342 343
332 334 337 337 338 337 336 338 337 337 338 339 338 337 339 340 340 339 336 336 339 339 339 339 341 339 336 338 337 337 338 338 344 344 342 340 339 340 339 340 341 343 343
328 329 332 336 337 338 337 337 336 337 338 338 338 339 339 339 339 336 336 338 337 335 335 335 335 335 336 335 336 337 337 337 336 337 340 340 343 339 338 341 339 341 342
330 329 329 332 335 337 338 338 337 337 338 336 337 337 337 338 338 337 339 337 335 336 334 335 338 338 337 336 335 335 336 336 336 335 337 337 336 339 339 339 343 341 340
327 325 328 329 329 330 332 336 335 337 339 336 337 336 336 337 338 338 337 338 338 337 337 337 337 336 336 335 334 334 333 334 333 333 333 333 335 335 335 336 335 336 337
326 323 325 325 325 327 333 333 331 331 331 332 333 334 334 333 332 331 331 332 332 333 334 335 336 335 335 335 334 335 335 335 334 333 332 332 331 331 330 332 334 335 334
327 327 327 326 327 326 327 331 332 326 329 330 330 331 331 330 325 325 325 326 325 323 323 324 325 326 328 329 330 330 329 330 333 335 335 334 334 335 336 336 335 332 332
326 326 324 326 327 326 325 328 328 326 326 326 325 328 326 325 324 323 323 322 321 321 325 328 328 327 327 326 323 323 327 327 326 326 326 327 329 331 332 334 335 337 339
326 327 326 326 326 327 328 327 329 328 328 327 325 324 326 325 327 325 324 322 321 321 325 326 327 327 327 326 326 325 324 322 323 323 324 325 326 327 329 329 331 332 334
324 324 326 325 324 324 325 325 326 327 327 327 325 322 322 325 327 327 325 324 325 326 326 325 326 326 325 322 320 322 325 324 325 325 325 324 326 326 326 328 329 330 331
322 321 322 322 321 321 321 322 322 323 323 323 327 327 326 324 324 322 322 322 324 324 325 325 325 324 320 319 319 321 323 323 321 322 323 326 325 325 326 327 327 328 328
322 319 319 320 319 319 320 319 319 320 322 322 321 321 324 320 323 325 325 325 326 325 325 324 324 323 320 319 321 323 324 323 323 322 323 324 323 323 324 325 326 327 328
321 321 319 320 319 318 318 318 318 319 319 320 320 321 318 318 320 321 322 323 323 324 324 324 324 324 321 320 322 323 324 322 322 322 321 321 324 322 324 324 323 322 325
321 321 321 320 320 320 319 318 318 316 317 318 319 320 320 319 319 320 320 321 321 322 322 322 321 321 321 319 322 323 323 321 322 322 321 321 322 323 322 321 323 322 323
322 321 321 321 321 320 320 320 320 321 318 316 317 318 319 320 321 321 321 321 321 321 322 322 322 320 320 317 320 321 322 322 322 322 320 319 321 321 321 320 321 319 319
321 322 321 321 320 319 320 320 320 320 320 320 319 318 318 319 319 320 321 321 321 322 321 321 321 321 322 320 321 321 321 321 320 320 320 319 320 320 321 321 321 318 317
320 320 320 320 320 320 320 319 319 319 319 319 320 320 319 319 319 320 321 322 322 323 322 321 321 321 321 321 317 320 321 319 320 319 319 318 320 320 320 320 320 319 318
318 318 317 317 317 317 317 316 316 317 317 318 318 319 319 320 320 320 320 320 320 320 321 322 322 322 321 321 321 320 317 313 317 317 317 318 318 318 319 319 319 318 317

GFSGL_850_thetae_117.txt.gz
Theta_e
347 347 346 347 350 349 349 352 351 352 352 350 341 349 351 351 351 350 350 351 350 349 347 349 348 349 350 349 350 350 349 347 348 348 348 346 347 345 343 343 344 347 348
344 345 346 345 346 347 347 350 351 351 351 352 349 342 347 350 351 351 351 352 349 350 350 348 348 350 348 347 348 348 349 347 346 347 347 348 346 346 342 343 345 346 346
344 346 345 346 345 344 344 347 348 350 350 349 351 348 348 339 354 353 351 351 351 351 348 349 348 348 348 349 349 348 348 347 347 348 348 348 345 346 345 345 344 342 338
344 344 345 347 346 345 344 344 345 345 346 349 347 350 349 343 349 350 351 350 350 350 349 348 349 348 349 349 347 347 348 349 349 349 348 344 344 347 344 345 345 346 345
341 343 343 344 344 344 344 344 344 344 345 346 344 346 348 350 349 348 349 350 350 349 349 349 350 350 350 348 349 346 347 347 348 347 345 344 346 345 345 345 344 344 344
339 339 342 342 342 343 343 343 342 342 343 343 344 344 344 345 346 347 347 350 349 350 349 349 349 350 349 349 346 343 345 346 345 347 346 344 343 345 345 346 343 342 344
337 338 341 343 342 340 341 341 342 340 342 341 342 342 341 343 344 344 344 343 343 345 348 348 350 350 349 347 344 344 343 347 344 344 344 343 344 344 344 345 345 344 344
333 334 338 339 339 340 341 342 341 342 341 340 343 343 344 345 342 342 341 342 343 343 346 349 347 344 349 348 346 346 342 341 340 340 340 340 338 341 344 344 342 343 342
331 334 335 338 338 338 335 336 339 341 340 340 340 340 341 340 340 339 338 340 342 344 346 346 346 346 347 346 343 345 343 340 338 338 336 339 339 338 339 341 341 343 344
330 330 333 334 337 336 336 338 338 338 339 339 339 338 338 339 338 337 338 338 339 339 341 344 344 344 343 342 341 341 341 339 335 333 333 334 334 335 338 339 339 340 342
331 332 331 335 337 337 337 337 337 339 340 339 340 340 340 341 340 340 339 338 338 339 339 339 338 338 339 340 339 337 336 334 335 336 336 338 338 340 342 340 339 339 340
330 332 333 330 334 335 336 337 338 338 337 337 337 337 337 338 338 338 337 336 338 338 336 336 334 335 336 336 336 336 335 336 336 337 336 335 334 333 336 339 339 340 341
329 332 333 329 329 332 333 333 334 335 336 336 337 337 336 337 338 338 338 339 337 337 338 335 336 337 337 337 337 336 336 335 335 335 335 335 335 333 330 330 334 335 335
329 330 331 330 329 331 334 333 334 334 332 334 335 335 335 334 334 333 333 333 335 336 336 336 336 336 335 336 336 336 335 335 335 335 336 336 336 336 333 332 333 332 331
328 329 328 327 327 329 326 331 331 328 331 333 332 333 332 328 325 327 328 327 326 323 327 329 329 331 334 334 334 334 334 334 333 332 332 334 335 336 336 335 336 335 337
328 326 327 327 328 327 327 329 326 325 325 325 327 329 326 325 324 323 322 321 320 319 329 331 330 330 330 330 329 329 329 330 330 330 330 330 331 330 332 332 332 333 334
328 330 326 326 326 326 327 327 332 328 325 325 325 323 324 325 326 326 325 323 321 321 328 328 328 329 329 329 329 329 328 327 325 324 325 326 326 328 330 331 331 330 331
326 324 325 324 323 324 324 324 325 326 328 329 326 325 324 324 325 326 325 324 326 327 328 328 327 328 328 327 326 326 326 326 327 326 326 328 328 328 328 327 328 331 330
322 321 322 322 321 322 322 322 322 323 323 323 325 326 325 320 319 320 322 323 325 325 325 325 327 326 327 326 325 325 326 326 326 325 326 326 327 327 326 327 328 327 329
323 318 319 321 321 320 320 320 320 321 321 322 323 324 325 322 324 326 325 326 327 326 326 325 325 326 324 321 324 325 325 324 325 325 324 324 324 323 323 324 326 328 328
322 323 321 321 321 321 320 320 320 319 319 320 321 321 322 320 319 320 322 323 323 323 323 323 322 323 326 323 324 324 325 325 325 324 324 324 324 323 324 324 324 323 322
323 323 322 322 322 322 321 321 322 322 321 319 318 319 320 320 321 321 321 321 321 322 322 323 323 322 321 321 322 322 322 322 323 323 323 323 323 323 323 322 322 322 321
322 323 322 322 321 322 321 321 322 321 322 321 321 320 319 320 320 321 321 322 322 322 322 323 322 322 323 322 322 322 321 321 322 323 323 323 323 322 322 321 321 321 321
322 322 321 320 321 320 321 320 320 321 320 320 320 321 321 321 321 320 321 322 322 323 323 323 323 322 322 322 322 321 322 321 322 322 322 321 321 322 322 321 321 321 321
320 320 320 319 319 319 318 318 318 318 318 319 319 319 319 319 320 321 320 321 321 321 322 322 323 322 322 322 323 323 322 321 321 321 321 320 320 320 321 320 320 321 320
319 318 318 317 316 315 315 315 315 315 315 316 316 316 317 317 317 316 316 317 317 318 318 317 317 318 319 320 321 321 321 321 321 319 317 318 319 319 318 320 320 320 319

GFSGL_850_thetae_120.txt.gz
Theta_e
343 345 346 348 345 345 347 351 352 352 351 349 352 351 351 350 349 349 349 349 349 349 349 348 347 345 345 344 347 348 347 346 348 345 346 344 347 346 345 345 345 341 339
343 342 342 343 345 346 345 344 348 350 351 351 350 350 350 343 338 344 350 350 350 350 349 348 348 347 346 346 346 347 347 348 348 347 345 346 347 347 347 345 342 339 341
339 344 345 343 341 341 345 344 343 345 349 351 350 350 335 341 337 335 342 350 351 349 349 350 348 348 348 347 346 347 347 347 347 347 346 345 344 347 344 345 342 343 341
337 338 339 340 340 340 345 345 345 344 343 347 343 348 348 345 336 337 334 335 348 351 349 349 347 346 347 347 346 345 346 347 347 348 348 346 346 347 346 345 342 343 343
337 337 338 339 340 342 344 345 345 344 345 343 346 347 347 346 342 334 335 335 335 347 347 349 349 347 348 349 347 345 347 347 347 348 348 346 345 345 346 345 341 344 343
336 338 339 339 339 341 342 342 343 344 344 342 344 345 346 345 347 347 337 334 335 338 349 348 349 348 349 350 347 349 346 345 345 345 346 348 345 346 345 342 344 344 342
334 335 336 337 341 342 342 343 343 342 342 342 344 345 345 344 345 345 345 344 339 342 350 347 347 347 348 347 350 351 348 344 343 342 345 347 344 342 343 343 342 342 343
331 332 333 335 339 340 340 340 339 340 341 340 341 341 343 342 344 344 345 346 347 348 349 348 347 345 345 343 347 345 344 344 344 343 344 343 341 340 343 340 339 338 342
330 330 331 335 336 334 337 338 339 341 342 341 340 341 342 341 342 343 343 343 342 342 342 344 344 344 347 346 345 343 345 344 344 343 344 342 340 339 336 337 337 340 338
330 330 330 330 332 333 329 333 337 338 339 340 341 341 341 342 342 340 338 338 341 342 343 344 344 344 346 346 345 345 345 342 342 342 341 340 339 335 335 338 338 339 339
329 329 329 327 332 335 334 337 338 338 339 340 340 339 338 339 340 339 337 338 341 341 340 340 340 341 342 343 343 342 340 341 341 341 338 335 334 332 333 333 334 338 337
329 328 329 328 331 333 333 333 329 335 337 337 337 337 338 338 339 339 338 337 338 338 338 339 339 338 337 337 336 337 338 338 337 336 334 334 335 336 337 334 333 337 340
329 329 329 328 332 334 334 334 334 334 334 334 335 336 336 336 337 337 338 338 338 339 337 335 334 335 336 337 337 337 335 336 334 334 335 336 336 335 336 335 333 332 331
328 328 328 328 329 327 333 331 332 333 334 334 335 334 334 334 333 333 332 332 336 337 337 337 337 337 337 336 336 336 336 335 335 335 335 336 335 336 335 335 335 335 334
329 327 328 329 327 328 325 323 325 329 329 330 331 332 324 328 330 329 328 329 325 325 327 329 330 331 333 334 334 333 334 333 332 332 332 332 333 334 335 336 336 336 337
329 330 327 327 327 328 330 327 322 322 322 322 324 324 324 324 323 323 322 320 320 327 332 332 331 332 331 333 331 332 332 332 331 331 331 331 330 330 330 331 331 331 331
326 326 326 324 325 326 326 329 331 326 325 325 324 323 322 323 325 325 323 321 325 325 329 329 329 329 330 330 330 330 329 328 328 326 325 326 327 327 326 327 329 329 330
325 324 323 323 322 323 323 323 325 326 330 329 325 325 324 323 324 323 321 319 324 326 327 328 327 328 328 329 327 326 326 327 325 324 325 327 327 326 325 326 327 328 327
319 319 322 322 321 321 321 321 321 322 323 327 324 325 322 321 323 324 324 324 324 326 326 326 327 327 327 324 325 325 324 326 325 325 322 324 324 324 324 324 325 326 326
324 322 321 322 321 320 320 321 320 320 320 321 322 328 325 322 320 320 325 324 325 325 326 326 326 326 325 324 322 319 322 323 322 323 322 323 324 325 323 320 322 323 323
323 324 323 323 323 323 323 322 322 322 320 319 319 320 321 320 320 321 321 323 323 323 323 323 322 323 322 324 324 324 324 324 324 324 324 323 324 323 324 323 323 323 323
323 324 323 322 323 322 322 322 322 322 322 322 322 322 321 319 320 322 323 322 321 322 323 323 323 322 322 322 321 320 319 321 322 322 323 321 322 322 322 322 321 322 322
323 322 322 321 322 321 320 320 321 321 321 320 321 322 322 322 322 322 322 323 324 323 323 323 323 323 323 324 323 322 322 322 319 319 321 322 322 321 322 322 322 322 321
321 322 321 321 320 320 319 320 319 319 319 319 320 320 320 320 320 320 320 320 321 322 322 323 322 323 323 323 323 324 323 323 322 322 322 321 321 320 320 319 320 320 321
321 320 319 319 318 317 317 316 316 316 316 316 318 317 317 318 318 317 317 316 316 317 318 318 317 317 316 319 318 321 322 321 321 322 322 321 321 320 319 318 318 318 318
317 315 315 315 314 313 313 312 313 313 314 315 315 315 315 315 314 313 314 315 314 313 314 314 314 314 313 313 313 314 316 317 317 317 320 320 320 319 318 318 318 318 319

GFSGL_850_thetae_123.txt.gz
Theta_e
336 339 338 343 346 345 345 344 343 343 349 349 349 349 349 351 350 349 348 347 346 344 346 346 345 343 344 346 344 344 344 347 348 347 345 342 342 344 347 347 346 345 345
336 337 339 340 342 341 343 344 342 344 343 345 349 349 349 349 351 349 349 349 348 347 347 348 347 346 345 344 344 345 344 345 348 348 346 344 344 344 345 347 346 346 343
334 336 336 336 338 342 343 343 342 341 342 343 343 346 348 348 345 341 341 338 344 349 348 348 347 347 347 346 344 345 345 345 346 348 345 345 344 345 346 345 346 344 343
332 333 334 335 335 336 338 339 339 338 342 343 344 344 348 347 340 335 332 334 334 335 339 351 349 347 347 346 346 345 345 346 346 347 347 346 346 345 345 345 347 345 344
332 334 335 336 336 337 336 338 338 340 343 343 343 344 344 344 340 332 334 332 333 334 335 343 349 349 348 347 346 347 345 346 347 347 347 346 346 346 345 346 344 344 344
331 332 332 333 335 336 337 339 339 341 342 341 342 344 344 345 345 343 342 338 338 338 335 334 335 347 346 347 345 346 347 346 346 346 347 347 346 344 346 344 346 345 342
329 330 330 330 331 332 334 341 342 341 341 341 342 344 343 344 345 344 341 339 337 337 337 335 336 343 342 344 347 346 344 346 347 347 346 345 345 344 343 346 345 344 341
327 330 330 330 328 332 334 338 341 341 341 342 341 342 343 344 344 344 343 342 340 338 337 335 334 335 337 336 345 346 344 346 346 343 343 342 342 344 342 343 342 342 339
326 328 329 327 329 332 332 335 338 338 338 339 339 339 340 341 343 343 342 343 344 344 343 341 344 337 338 341 345 344 344 342 343 342 342 343 343 342 341 341 339 341 337
328 326 326 325 331 334 336 330 334 334 337 337 339 339 338 339 340 341 342 341 342 342 342 342 343 344 345 344 343 342 343 341 342 342 342 343 343 341 341 339 338 336 335
328 326 327 324 330 331 332 328 329 335 337 338 338 339 339 340 341 340 341 339 339 339 340 340 341 341 341 341 341 341 342 344 343 344 342 341 341 341 340 337 333 333 336
326 328 328 329 329 329 331 326 327 337 336 337 337 338 338 338 338 339 338 338 338 339 339 340 339 339 339 340 341 342 343 343 340 339 340 340 339 337 334 334 335 336 334
327 327 327 328 328 329 331 333 330 331 331 335 334 334 335 335 337 338 337 336 336 338 338 337 335 335 336 336 336 336 336 336 337 337 335 335 336 336 336 336 336 336 335
328 327 328 328 330 325 325 329 332 333 333 333 330 332 332 332 332 331 332 335 336 337 338 336 336 336 336 336 336 336 336 336 336 335 335 335 335 335 335 335 335 334 334
328 327 326 328 330 329 322 322 323 325 330 332 324 323 325 325 322 322 324 321 324 328 330 331 331 333 335 334 333 334 335 333 333 333 333 333 332 332 333 334 334 335 335
326 325 325 324 327 330 328 326 323 323 323 322 323 323 323 324 324 323 320 320 327 332 332 332 331 330 332 331 330 332 332 331 331 331 331 332 331 329 328 328 330 330 329
324 324 323 321 323 322 324 330 327 327 324 323 323 322 323 324 324 322 320 324 326 329 329 329 330 329 330 330 329 329 329 329 328 325 323 323 324 324 326 326 326 328 327
320 323 322 320 321 321 321 322 323 325 324 326 324 319 320 321 322 322 323 318 325 326 327 327 328 328 327 328 328 328 326 325 325 323 323 324 325 325 325 325 324 325 325
321 320 322 322 321 320 320 320 320 321 320 324 324 322 322 320 319 322 323 322 325 325 325 325 325 324 324 324 323 320 319 321 324 323 322 323 323 323 322 322 321 320 322
325 323 322 323 322 322 322 321 320 320 319 319 320 323 324 320 320 320 322 323 323 324 324 324 324 324 323 323 323 321 316 320 322 323 323 322 324 324 323 322 322 323 324
323 324 323 323 322 322 322 322 322 323 322 321 322 321 323 321 322 322 322 324 325 326 325 322 322 322 322 321 322 320 319 317 319 323 323 324 321 322 321 321 321 321 322
323 322 322 322 321 321 321 320 320 320 321 321 321 322 321 321 322 323 324 323 323 324 324 324 324 323 323 324 323 322 322 320 320 321 322 322 323 322 321 321 322 322 322
321 323 322 320 320 319 319 319 318 317 319 321 320 320 320 320 320 320 320 321 322 322 322 323 323 324 323 324 324 323 323 322 322 321 321 320 320 321 320 321 321 321 321
321 320 320 316 317 317 316 315 315 315 317 318 318 317 317 317 317 317 317 317 317 317 319 317 318 318 319 319 319 320 322 323 323 323 322 322 322 321 321 320 318 317 316
317 317 315 314 314 314 314 313 313 311 312 311 312 312 314 314 313 313 312 311 311 314 314 314 314 314 314 313 312 313 313 317 316 318 320 320 319 321 321 319 319 319 317
311 312 311 311 311 311 310 310 307 305 305 306 307 308 310 309 309 309 308 307 306 305 304 307 311 312 311 311 310 310 310 310 310 310 310 308 308 311 317 320 320 319 318

GFSGL_850_thetae_126.txt.gz
Theta_e
325 326 327 328 332 337 338 343 345 345 345 342 341 343 346 347 347 347 348 348 348 347 345 344 342 340 340 343 345 344 343 344 344 342 342 344 345 344 343 343 346 348 347
326 330 330 330 333 335 337 339 341 341 343 342 340 342 343 345 347 344 347 342 339 347 345 345 345 342 341 341 344 344 345 345 344 343 342 345 345 346 345 344 344 347 347
328 331 332 333 333 333 334 334 336 340 343 342 342 339 341 342 345 343 333 340 338 344 347 346 347 345 343 344 345 343 343 347 345 344 342 342 344 346 345 345 345 346 346
329 330 331 332 333 335 336 336 336 336 337 339 339 338 340 341 345 344 329 333 330 334 335 343 347 347 347 346 346 346 344 344 345 346 346 344 344 344 345 345 345 345 344
328 328 329 329 329 330 331 333 335 337 336 336 337 337 341 342 344 343 344 335 333 329 330 335 343 340 338 347 348 347 346 345 346 346 346 346 345 344 343 344 345 344 345
323 327 328 329 329 330 328 329 330 331 334 337 338 340 343 343 343 344 345 340 333 333 335 338 335 333 334 348 349 348 348 347 346 345 346 346 345 344 342 344 345 346 345
320 326 328 327 327 329 329 331 330 333 338 342 339 341 342 341 342 344 344 342 334 332 334 332 333 335 336 335 336 342 347 346 345 346 346 345 346 345 343 343 342 343 344
326 325 327 326 328 330 332 334 332 333 339 341 341 341 341 342 343 341 343 345 340 333 332 332 334 337 335 334 336 345 344 341 344 344 343 342 343 343 342 342 342 344 344
328 324 325 324 326 329 328 327 333 336 339 339 340 341 341 340 340 340 341 342 344 343 340 339 337 337 338 337 334 340 339 337 342 345 343 343 343 341 343 342 342 342 342
327 328 327 328 325 328 327 329 333 332 336 337 338 338 338 338 338 339 340 341 342 343 343 343 343 342 341 342 341 337 337 336 338 344 342 342 341 341 341 342 342 340 339
323 328 327 328 327 329 328 329 328 337 335 336 337 337 338 338 338 338 339 340 340 341 341 341 341 341 341 341 342 344 345 344 343 342 343 342 342 342 342 343 342 340 340
321 327 328 328 324 328 328 326 330 333 336 335 336 337 338 338 338 338 338 339 339 340 340 339 339 340 340 340 341 341 340 341 341 341 342 343 342 341 341 341 340 338 334
326 326 327 328 328 326 329 329 325 330 328 326 331 334 337 338 337 338 339 339 338 338 338 338 339 339 339 338 339 339 340 342 342 340 340 338 336 336 336 336 334 335 337
324 325 326 328 328 324 328 330 333 329 325 330 330 330 330 329 326 330 336 337 338 337 336 335 335 335 337 337 337 335 336 335 336 336 335 334 335 336 336 336 336 335 335
323 324 322 327 327 327 325 324 325 324 323 323 322 321 321 321 320 320 321 325 330 333 330 330 334 335 336 335 335 336 335 335 335 334 334 333 332 332 334 335 335 335 335
324 323 321 322 322 326 327 325 324 323 323 323 323 324 324 323 321 321 322 328 331 331 331 331 329 330 329 329 333 334 332 332 331 331 331 331 331 330 329 328 329 331 330
322 322 321 321 321 321 323 326 326 324 324 320 319 320 321 321 322 321 322 326 328 328 329 330 329 330 330 329 328 329 329 328 327 324 321 322 324 325 324 325 326 326 327
319 320 322 321 320 320 320 321 321 321 324 322 321 320 319 320 323 322 319 325 326 326 326 327 328 325 326 325 323 322 322 324 323 320 321 321 323 323 323 322 321 323 324
322 322 323 322 321 320 321 319 320 319 320 321 322 322 321 320 320 323 324 324 325 325 325 325 323 324 324 323 323 321 319 320 320 321 322 323 323 323 322 322 321 321 321
323 323 323 322 322 322 321 321 322 322 320 319 321 325 323 319 320 321 322 323 323 324 324 323 322 322 323 323 321 319 318 321 322 323 323 322 323 323 323 322 321 321 321
324 323 322 322 322 321 321 320 321 321 321 322 323 325 321 320 322 322 323 322 322 322 324 324 323 323 324 321 321 321 320 319 318 319 321 321 323 323 322 322 321 321 321
323 322 321 321 321 320 318 319 321 321 322 322 321 321 322 322 322 323 322 322 322 323 323 324 324 325 324 323 323 324 323 321 320 320 320 320 320 322 323 321 321 321 321
321 321 320 318 317 317 317 316 317 320 319 318 318 318 318 318 317 316 316 315 316 318 320 320 320 321 321 323 324 324 324 323 323 322 322 321 321 321 321 321 320 318 318
319 319 317 316 316 315 314 314 315 315 315 314 315 315 314 314 314 313 312 311 310 310 314 315 316 316 315 316 316 316 318 318 321 318 320 321 321 321 322 322 321 320 320
317 315 314 314 313 311 310 309 307 307 308 309 313 312 310 311 310 309 308 308 308 308 305 306 311 312 312 312 312 312 312 311 311 311 311 310 311 312 312 313 317 319 320
312 311 309 308 307 306 306 305 304 304 304 304 304 304 304 304 304 304 304 304 304 304 303 303 303 303 303 305 307 307 307 307 307 307 307 307 307 307 307 307 306 305 313

GFSGL_850_thetae_129.txt.gz
Theta_e
325 325 325 326 329 330 328 327 332 337 338 341 344 344 343 342 341 344 344 345 348 347 346 347 347 346 345 342 342 342 342 342 344 343 342 341 341 341 344 344 345 343 343
324 323 327 328 330 331 332 332 331 332 334 337 339 341 343 343 339 341 342 344 345 340 338 336 347 345 344 343 343 340 338 340 342 345 342 342 342 341 342 345 345 344 343
323 323 327 328 328 329 330 331 333 334 334 334 335 340 341 339 340 339 338 341 340 331 328 329 333 336 345 344 344 341 337 340 342 344 343 342 342 343 342 343 344 344 343
320 320 324 327 328 329 329 329 329 330 333 335 335 336 341 342 340 337 338 341 342 330 327 328 331 333 338 341 345 343 340 342 343 343 345 344 342 341 344 344 344 343 343
316 316 323 327 327 327 328 328 329 328 329 330 333 336 336 338 338 338 338 341 343 331 329 328 327 332 341 343 344 345 345 344 344 345 347 346 344 343 343 343 345 344 343
313 316 325 327 325 326 327 327 327 330 330 329 330 332 336 336 336 336 340 342 342 340 336 330 328 332 331 335 339 344 342 345 346 346 346 347 344 344 344 343 343 344 343
316 324 324 325 324 326 328 327 327 330 333 331 332 336 339 337 338 338 341 341 341 341 340 336 332 329 331 331 332 337 337 348 348 346 346 346 345 344 344 344 344 344 343
318 326 326 327 327 326 327 327 329 330 332 335 338 338 341 340 340 341 341 341 341 342 341 338 334 333 333 335 334 336 335 335 337 340 345 345 344 342 342 343 343 343 343
316 322 327 328 327 324 329 326 328 331 332 333 336 338 339 340 340 341 342 341 341 341 342 340 338 332 336 334 336 337 336 334 335 336 345 341 342 342 341 343 342 341 341
315 325 326 327 328 325 328 326 328 332 334 334 336 338 339 339 338 338 339 340 340 340 341 343 337 333 332 332 337 337 338 338 334 338 341 336 343 345 343 343 341 341 342
317 327 326 327 327 328 328 323 322 327 334 336 336 336 337 337 337 337 337 339 340 340 340 341 342 339 337 339 339 340 340 343 340 338 337 337 340 343 342 342 341 341 341
319 325 326 328 327 327 328 326 325 325 323 328 333 335 337 337 338 338 337 338 339 339 340 340 340 340 340 340 340 340 340 341 343 343 343 341 342 342 342 342 341 342 342
320 324 327 327 326 326 324 327 325 324 325 320 324 323 330 333 336 338 338 338 338 338 338 338 338 338 339 339 340 339 340 341 341 341 341 342 342 341 340 340 339 336 340
319 323 325 325 326 324 323 324 323 323 322 321 321 321 320 320 326 331 337 337 337 337 337 337 336 336 336 336 337 338 338 339 340 340 338 336 335 335 335 335 336 336 335
319 321 322 322 326 326 324 323 323 322 324 323 324 323 323 323 323 327 330 331 332 334 335 333 335 335 334 335 336 336 336 335 336 336 335 335 335 334 335 335 336 335 335
322 321 322 321 325 325 326 325 324 320 320 322 323 323 322 322 321 325 327 328 329 330 330 330 329 328 330 331 331 331 330 329 329 330 332 332 331 330 330 329 329 331 331
320 320 321 321 320 320 321 324 321 322 320 319 320 320 321 323 321 324 326 328 330 329 328 330 329 329 328 328 328 328 326 326 324 320 323 322 322 325 325 325 326 328 327
323 322 321 321 320 321 320 320 319 322 322 320 320 320 320 322 323 325 325 325 325 327 327 324 323 323 322 322 321 322 324 324 321 321 321 322 322 323 322 321 322 323 323
322 322 322 321 321 321 321 321 320 319 320 321 322 322 319 319 320 322 323 324 324 325 327 326 325 324 323 320 318 318 320 321 322 322 322 322 322 322 322 321 320 321 321
323 322 322 322 322 322 321 321 321 321 319 321 323 322 320 320 321 321 321 322 323 324 324 323 325 326 324 322 320 318 319 321 322 323 323 322 322 323 323 322 321 321 320
323 323 322 321 321 321 320 319 320 321 321 323 322 322 322 322 322 322 322 322 323 323 323 324 323 325 325 323 323 321 320 319 320 320 321 321 321 323 323 322 323 322 321
322 322 321 320 320 320 320 320 320 320 321 321 321 320 320 320 319 318 318 318 318 319 320 321 322 323 324 324 324 324 323 322 321 320 321 321 320 321 322 322 322 322 321
320 319 318 317 317 318 318 318 319 319 319 318 317 317 316 315 314 314 313 312 311 310 309 311 315 317 317 317 319 321 322 323 323 322 322 321 321 321 321 321 321 321 320
317 316 315 314 314 316 317 317 316 315 315 315 315 314 313 312 311 311 310 309 308 307 307 306 305 308 313 313 313 313 313 313 312 312 312 311 312 312 314 315 315 318 321
315 315 314 313 312 311 310 308 308 307 308 308 307 307 307 306 306 306 305 305 304 304 304 303 303 303 303 302 302 304 307 308 308 308 307 306 306 307 308 308 308 308 309
310 309 308 307 306 305 304 304 304 304 304 304 304 303 303 303 303 303 303 303 303 303 303 303 303 303 303 303 303 302 302 302 302 302 302 301 301 301 300 300 300 300 301